Date StartTime U_cm/s V_cm/s W_cm/s Ustd_cm/s Vstd_cm/s Wstd_cm/s Uvar_(cm/s)^2 Vvar_(cm/s)^2 Wvar_(cm/s)^2 KE_(m/s)^2 TurbulentKE_(m/s)^2 HorizWindSpeed_cm/s FrictionSpeec_cm/s DragCoef SpeedOfSound_m/s SonicTemperature_C Pressure_mb 
08/08/2014  00:00:00     -151.854      -13.787        6.638       87.406       58.501       39.727     7639.778     3422.313     1578.230        1.796        0.632      152.479       38.569        0.064      346.366       24.562      862.095
08/08/2014  00:01:00     -186.465      -76.617        3.290       79.662       70.769       35.176     6346.011     5008.227     1237.362        2.662        0.630      201.592       26.490        0.017      346.393       24.605      862.110
08/08/2014  00:02:00     -147.034      -62.518       -3.538       61.185       63.947       28.452     3743.590     4089.191      809.492        1.709        0.432      159.773       27.243        0.029      346.365       24.559      862.122
08/08/2014  00:03:00     -188.276      -16.566       -0.837       91.462       57.470       39.484     8365.311     3302.780     1559.025        2.447        0.661      189.003       43.309        0.053      346.448       24.700      862.143
08/08/2014  00:04:00     -150.831      -20.476       -5.318       49.379       46.876       28.477     2438.317     2197.317      810.933        1.432        0.272      152.214       21.104        0.019      346.361       24.552      862.153
08/08/2014  00:05:00     -175.474      -13.596       -9.541       50.462       43.983       29.359     2546.367     1934.469      861.964        1.820        0.267      176.000       25.671        0.021      346.344       24.523      862.170
08/08/2014  00:06:00      -81.308      -39.265        4.446       57.429       47.670       28.994     3298.072     2272.429      840.650        0.729        0.321       90.292       28.327        0.098      346.270       24.396      862.194
08/08/2014  00:07:00     -102.965      -16.355       -5.229       31.509       32.584       18.241      992.847     1061.735      332.721        0.664        0.119      104.256       17.033        0.027      346.272       24.400      862.230
08/08/2014  00:08:00      -66.973      -19.498        5.099       47.565       32.610       19.714     2262.425     1063.429      388.627        0.430        0.186       69.754       20.179        0.084      346.192       24.262      862.252
08/08/2014  00:09:00      -22.601      -37.413        9.375       39.137       35.468       22.854     1531.689     1257.990      522.300        0.265        0.166       43.710       21.997        0.253      346.192       24.263      862.267
08/08/2014  00:10:00       12.078      -35.930       34.373       41.555       29.214       31.890     1726.805      853.473     1016.951        0.311        0.180       37.906       28.324        0.558      346.141       24.175      862.273
08/08/2014  00:11:00      -32.195      -52.923        6.642       31.423       34.879       16.042      987.414     1216.562      257.347        0.317        0.123       61.947       16.513        0.071      346.146       24.182      862.279
08/08/2014  00:12:00      -33.860      -53.407        8.181       41.321       32.531       21.380     1707.440     1058.243      457.114        0.364        0.161       63.236       19.171        0.092      346.139       24.172      862.291
08/08/2014  00:13:00      -34.450      -65.466       15.756       67.407       39.979       30.037     4543.645     1598.351      902.244        0.638        0.352       73.977       36.994        0.250      346.124       24.145      862.297
08/08/2014  00:14:00      -13.902      -49.223       12.743       40.140       36.027       24.900     1611.248     1297.940      620.031        0.315        0.176       51.148       23.856        0.218      346.110       24.121      862.310
08/08/2014  00:15:00      -74.997      -93.766        1.709       55.126       35.663       30.941     3038.900     1271.882      957.331        0.984        0.263      120.069       36.383        0.092      346.092       24.091      862.320
08/08/2014  00:16:00     -121.990      -97.720        0.252       55.158       36.757       25.288     3042.433     1351.084      639.461        1.473        0.252      156.304       24.709        0.025      346.058       24.032      862.319
08/08/2014  00:17:00      -89.023      -71.441       -0.805       45.480       32.253       23.028     2068.453     1040.244      530.304        0.833        0.182      114.145       22.716        0.040      346.005       23.942      862.325
08/08/2014  00:18:00     -101.953      -73.773        2.715       52.704       51.559       23.674     2777.746     2658.294      560.479        1.092        0.300      125.844       20.712        0.027      345.911       23.780      862.336
08/08/2014  00:19:00      -59.566      -97.038       10.093       51.164       60.016       23.861     2617.773     3601.925      569.328        0.993        0.339      113.862       24.392        0.046      345.950       23.848      862.338
08/08/2014  00:20:00      -26.584      -55.629       12.719       36.653       51.428       25.230     1343.470     2644.869      636.544        0.429        0.231       61.654       22.334        0.131      345.894       23.752      862.338
08/08/2014  00:21:00      -79.509      -50.888        4.831       41.703       31.582       19.975     1739.128      997.444      398.994        0.603        0.157       94.400       12.441        0.017      345.898       23.757      862.340
08/08/2014  00:22:00     -109.899      -52.407       -2.551       24.726       21.900       16.794      611.351      479.595      282.029        0.810        0.069      121.755       13.262        0.012      345.935       23.822      862.342
08/08/2014  00:23:00      -70.985      -58.807        3.608       44.754       34.973       22.600     2002.880     1223.145      510.781        0.612        0.187       92.180       21.099        0.052      345.850       23.675      862.346
08/08/2014  00:24:00      -87.686      -55.950       -7.505       47.704       34.268       20.739     2275.625     1174.325      430.116        0.738        0.194      104.016       25.636        0.061      345.829       23.640      862.342
08/08/2014  00:25:00      -48.354      -39.297       10.069       43.753       25.396       20.327     1914.302      644.936      413.183        0.348        0.149       62.309       22.268        0.128      345.720       23.451      862.333
08/08/2014  00:26:00      -82.629      -32.747        3.189       46.330       34.014       22.711     2146.449     1156.985      515.771        0.586        0.191       88.882       19.379        0.048      345.752       23.508      862.321
08/08/2014  00:27:00     -120.577      -83.343       -1.745       41.706       36.223       23.153     1739.404     1312.138      536.079        1.254        0.179      146.577       21.387        0.021      345.766       23.530      862.317
08/08/2014  00:28:00     -148.645      -38.854       -8.531       37.257       37.782       24.999     1388.105     1427.478      624.956        1.356        0.172      153.639       23.258        0.023      345.687       23.396      862.310
08/08/2014  00:29:00      -99.328      -30.619       -2.715       32.520       30.899       22.676     1057.562      954.773      514.202        0.667        0.126      103.940       19.826        0.036      345.530       23.127      862.314
08/08/2014  00:30:00      -88.284      -18.867       -3.608       33.291       21.706       12.963     1108.308      471.141      168.041        0.495        0.087       90.278       11.849        0.017      345.532       23.131      862.317
08/08/2014  00:31:00      -89.893      -35.854       -4.667       27.002       31.165       20.063      729.123      971.261      402.539        0.575        0.105       96.779       17.900        0.034      345.485       23.048      862.325
08/08/2014  00:32:00     -121.965      -44.912       -9.939       35.317       34.351       15.233     1247.322     1179.979      232.030        0.982        0.133      129.972       11.223        0.007      345.442       22.975      862.323
08/08/2014  00:33:00      -94.797      -33.433      -13.176       60.779       30.571       19.390     3694.069      934.598      375.977        0.764        0.250      100.519       22.617        0.051      345.394       22.893      862.320
08/08/2014  00:34:00       -7.399       50.732        0.786       13.709       39.274       13.304      187.945     1542.470      176.983        0.227        0.095       51.269       14.297        0.078      345.606       23.258      862.299
08/08/2014  00:35:00       12.004       71.034        1.271       17.468       28.756       13.058      305.116      826.928      170.510        0.325        0.065       72.041       13.346        0.034      346.125       24.148      862.279
08/08/2014  00:36:00      -67.485       26.691      -11.495       32.353       44.485       17.586     1046.727     1978.958      309.282        0.437        0.167       72.572       15.012        0.043      345.617       23.275      862.285
08/08/2014  00:37:00     -119.548      -21.433       -6.431       45.647       32.946       19.075     2083.622     1085.458      363.870        0.916        0.177      121.454       20.020        0.027      345.201       22.562      862.294
08/08/2014  00:38:00     -114.025      -14.995      -12.163       21.692       23.829       17.403      470.556      567.825      302.860        0.736        0.067      115.007        9.917        0.007      345.187       22.539      862.296
08/08/2014  00:39:00      -94.368        2.869       -8.672       25.124       23.359       15.082      631.201      545.651      227.453        0.520        0.070       94.411       10.041        0.011      345.219       22.593      862.286
08/08/2014  00:40:00      -91.965       18.562       -9.000       21.010       18.613       11.882      441.425      346.447      141.177        0.491        0.046       93.820       11.443        0.015      345.271       22.681      862.278
08/08/2014  00:41:00      -66.137      -26.289       -0.818       21.020       23.753       13.501      441.826      564.224      182.281        0.313        0.059       71.170       11.934        0.028      345.238       22.625      862.279
08/08/2014  00:42:00      -96.382      -74.688       -6.142       51.826       27.116       22.488     2685.888      735.281      505.724        0.942        0.196      121.934       19.382        0.025      345.176       22.519      862.280
08/08/2014  00:43:00      -26.075      -45.825        7.709       45.448       31.552       25.367     2065.543      995.543      643.471        0.327        0.185       52.724       23.331        0.196      345.086       22.365      862.282
08/08/2014  00:44:00       14.850        4.086       13.522       23.565       24.375       20.531      555.314      594.164      421.535        0.100        0.079       15.402        5.744        0.139      345.137       22.452      862.257
08/08/2014  00:45:00      -31.267       31.609       -5.492       30.237       18.060       16.071      914.304      326.152      258.281        0.175        0.075       44.461       19.723        0.197      345.178       22.520      862.248
08/08/2014  00:46:00      -14.528        9.231        2.184       17.584       15.342       12.845      309.190      235.366      164.992        0.051        0.035       17.213       11.138        0.419      345.117       22.418      862.259
08/08/2014  00:47:00     -100.188      -43.337       -9.092       30.522       31.586       12.359      931.620      997.675      152.738        0.704        0.104      109.160        5.298        0.002      345.157       22.487      862.265
08/08/2014  00:48:00     -123.700      -65.238      -11.410       26.068       19.799       14.491      679.531      391.985      210.003        1.048        0.064      139.849       12.443        0.008      345.059       22.320      862.270
08/08/2014  00:49:00      -98.474      -28.996       -5.166       41.163       37.340       20.649     1694.372     1394.292      426.383        0.704        0.176      102.655       21.973        0.046      345.129       22.440      862.264
08/08/2014  00:50:00      -96.334      -35.223       -1.892       19.647       34.811       19.592      386.015     1211.822      383.843        0.625        0.099      102.572       17.198        0.028      345.164       22.498      862.265
08/08/2014  00:51:00      -87.578      -36.565       -6.344       26.044       19.181       12.631      678.312      367.911      159.540        0.513        0.060       94.904        7.826        0.007      345.152       22.479      862.261
08/08/2014  00:52:00      -67.364      -53.929       -3.748       22.852       24.643       15.566      522.234      607.278      242.312        0.442        0.069       86.292        8.455        0.010      345.114       22.414      862.256
08/08/2014  00:53:00      -74.614      -63.394       -6.464       32.443       26.090       19.732     1052.559      680.701      389.353        0.587        0.106       97.909       10.788        0.012      345.062       22.324      862.251
08/08/2014  00:54:00      -88.633      -36.006       -0.242       25.483       31.483       15.427      649.399      991.179      237.989        0.552        0.094       95.668       13.032        0.019      345.016       22.247      862.260
08/08/2014  00:55:00      -73.848      -46.668        1.131       29.342       21.743       14.026      860.932      472.760      196.738        0.458        0.077       87.358       15.363        0.031      344.971       22.170      862.264
08/08/2014  00:56:00      -26.945      -37.904        6.624       30.463       22.403       20.281      928.004      501.877      411.300        0.202        0.092       46.505       17.763        0.146      345.010       22.236      862.254
08/08/2014  00:57:00      -35.167      -97.211       -0.390       16.181       25.622       15.448      261.828      656.504      238.644        0.592        0.058      103.376       10.046        0.009      345.094       22.382      862.244
08/08/2014  00:58:00      -14.415      -55.842        1.722       20.302       34.878       18.527      412.185     1216.453      343.256        0.265        0.099       57.673       18.427        0.102      345.114       22.414      862.242
08/08/2014  00:59:00      -51.167      -21.002        2.012       29.605       20.754       13.147      876.479      430.732      172.850        0.227        0.074       55.309       14.613        0.070      345.093       22.379      862.249
08/08/2014  01:00:00      -85.612      -48.669        1.032       34.410       31.245       18.040     1184.047      976.224      325.448        0.609        0.124       98.479       14.236        0.021      345.040       22.289      862.255
08/08/2014  01:01:00      -91.221      -49.960        6.707       48.218       34.308       21.680     2324.968     1177.014      470.026        0.742        0.199      104.006       16.941        0.027      345.008       22.233      862.260
08/08/2014  01:02:00      -71.970      -62.709       -4.287       41.124       28.928       20.428     1691.177      836.833      417.310        0.604        0.147       95.457       14.136        0.022      345.031       22.271      862.269
08/08/2014  01:03:00     -101.814      -69.722        5.610       30.337       27.901       24.955      920.313      778.445      622.763        0.879        0.116      123.399       20.603        0.028      345.024       22.260      862.290
08/08/2014  01:04:00      -74.914      -67.363        4.924       45.089       33.663       23.706     2032.994     1133.220      561.973        0.695        0.186      100.746       25.511        0.064      345.046       22.297      862.299
08/08/2014  01:05:00      -91.866      -62.688        0.780       38.857       42.973       24.263     1509.875     1846.701      588.715        0.816        0.197      111.216       16.773        0.023      345.129       22.440      862.300
08/08/2014  01:06:00      -53.329      -43.686        3.478       38.988       32.224       20.138     1520.035     1038.355      405.521        0.386        0.148       68.938       16.871        0.060      345.070       22.339      862.291
08/08/2014  01:07:00     -109.115      -35.586       -7.186       37.945       30.192       18.481     1439.860      911.583      341.553        0.796        0.135      114.771       15.890        0.019      345.073       22.343      862.293
08/08/2014  01:08:00     -120.137      -11.110       -7.842       29.996       25.023       19.370      899.765      626.134      375.187        0.826        0.095      120.650       15.658        0.017      345.097       22.386      862.306
08/08/2014  01:09:00      -66.302      -11.569       -0.179       30.373       28.752       18.835      922.534      826.688      354.763        0.332        0.105       67.304       18.068        0.072      344.925       22.089      862.302
08/08/2014  01:10:00      -97.801       14.430       -3.886       31.072       19.577       13.155      965.486      383.248      173.054        0.565        0.076       98.859       14.045        0.020      344.903       22.053      862.299
08/08/2014  01:11:00      -83.627      -12.728        1.612       40.612       25.397       22.272     1649.357      644.982      496.044        0.497        0.140       84.590       19.822        0.055      344.810       21.893      862.300
08/08/2014  01:12:00     -105.789      -25.830       -4.642       28.527       24.591       16.210      813.788      604.701      262.752        0.678        0.084      108.897       14.769        0.018      344.794       21.866      862.314
08/08/2014  01:13:00      -97.704      -44.642        2.032       29.144       19.386       15.593      849.383      375.834      243.129        0.651        0.073      107.419       12.275        0.013      344.863       21.983      862.321
08/08/2014  01:14:00      -98.630      -56.404        6.024       49.415       37.897       24.278     2441.843     1436.177      589.439        0.871        0.223      113.619       23.908        0.044      344.910       22.064      862.319
08/08/2014  01:15:00      -73.119      -52.634       -2.530       24.214       37.728       18.146      586.324     1423.414      329.285        0.523        0.117       90.093       13.625        0.023      344.910       22.064      862.325
08/08/2014  01:16:00      -40.379      -26.635        6.652       30.706       23.077       17.345      942.876      532.543      300.838        0.208        0.089       48.373       15.558        0.103      344.890       22.029      862.314
08/08/2014  01:17:00      -35.773      -33.666        2.074       25.779       20.403       12.822      664.550      416.300      164.395        0.183        0.062       49.123       12.302        0.063      344.918       22.077      862.300
08/08/2014  01:18:00       -8.728      -22.986        6.688       23.529       14.703       13.836      553.606      216.165      191.423        0.081        0.048       24.587       12.503        0.259      344.894       22.036      862.278
08/08/2014  01:19:00      -27.069      -28.268       -3.912       25.544       17.197        9.239      652.492      295.730       85.359        0.129        0.052       39.139        9.110        0.054      344.933       22.103      862.265
08/08/2014  01:20:00      -77.251      -23.023      -10.957       12.190       12.147       10.435      148.603      147.539      108.889        0.351        0.020       80.608        6.977        0.007      344.901       22.050      862.259
08/08/2014  01:21:00      -36.226      -28.179       -4.151       21.924       15.080       10.884      480.662      227.410      118.469        0.147        0.041       45.895        9.238        0.041      344.733       21.762      862.265
08/08/2014  01:22:00      -22.968      -80.190       -8.668       14.866       11.913        8.017      220.996      141.929       64.267        0.373        0.021       83.414        4.765        0.003      344.805       21.883      862.263
08/08/2014  01:23:00      -15.051      -73.495        2.308       21.430       21.637       22.901      459.239      468.162      524.477        0.354        0.073       75.021       15.025        0.040      344.833       21.933      862.273
08/08/2014  01:24:00      -24.681      -40.035        0.004       36.514       25.015       16.216     1333.271      625.731      262.957        0.222        0.111       47.032        9.775        0.043      344.800       21.877      862.289
08/08/2014  01:25:00      -84.842      -31.434        7.457       39.426       39.653       26.493     1554.440     1572.398      701.864        0.603        0.191       90.478       27.568        0.093      344.734       21.763      862.296
08/08/2014  01:26:00      -88.273      -41.033        6.978       61.582       54.284       26.011     3792.398     2946.739      676.553        0.847        0.371       97.344       30.248        0.097      344.626       21.578      862.297
08/08/2014  01:27:00      -29.331      -36.388       12.934       43.419       23.558       17.229     1885.213      554.971      296.843        0.254        0.137       46.738       22.982        0.242      344.623       21.572      862.292
08/08/2014  01:28:00      -42.156     -100.233       -0.070       40.353       38.817       25.251     1628.347     1506.777      637.636        0.780        0.189      108.737       24.936        0.053      344.761       21.808      862.275
08/08/2014  01:29:00      -32.639      -70.501        4.978       31.407       39.114       22.196      986.427     1529.935      492.675        0.453        0.150       77.690       12.326        0.025      344.726       21.748      862.280
08/08/2014  01:30:00      -71.897      -50.586       -3.857       36.849       43.960       23.571     1357.867     1932.505      555.578        0.579        0.192       87.910       21.318        0.059      344.682       21.673      862.276
08/08/2014  01:31:00      -86.614      -64.276       -0.920       51.604       42.690       21.634     2663.015     1822.400      468.047        0.829        0.248      107.858       16.148        0.022      344.644       21.608      862.270
08/08/2014  01:32:00      -72.810      -34.487       -1.192       24.864       24.946       18.848      618.194      622.294      355.250        0.404        0.080       80.565       18.169        0.051      344.617       21.561      862.266
08/08/2014  01:33:00      -49.288      -60.206        1.783       32.335       21.589       22.019     1045.552      466.079      484.828        0.403        0.100       77.808       12.773        0.027      344.689       21.687      862.267
08/08/2014  01:34:00      -81.238      -11.317      -10.805       16.312       13.344        9.980      266.082      178.056       99.602        0.369        0.027       82.022        7.601        0.009      344.629       21.584      862.258
08/08/2014  01:35:00      -57.844      -17.946       -1.785       10.268       14.428       10.803      105.442      208.162      116.708        0.205        0.022       60.564        4.506        0.006      344.645       21.612      862.253
08/08/2014  01:36:00      -76.663      -31.533       -6.435       16.719       17.666        8.556      279.531      312.084       73.200        0.379        0.033       82.895        6.581        0.006      344.598       21.531      862.243
08/08/2014  01:37:00      -91.667      -31.095       -1.392       20.782       18.970       12.431      431.906      359.875      154.540        0.516        0.047       96.797       10.016        0.011      344.569       21.481      862.246
08/08/2014  01:38:00      -66.548      -41.838        0.429       32.895       19.485       15.250     1082.075      379.658      232.563        0.394        0.085       78.607       12.658        0.026      344.528       21.414      862.248
08/08/2014  01:39:00      -44.519      -26.134        3.629       33.186       17.920       14.798     1101.305      321.131      218.984        0.216        0.082       51.623       10.701        0.043      344.504       21.369      862.251
08/08/2014  01:40:00      -37.576      -31.239        3.670       38.317       20.121       18.728     1468.176      404.842      350.742        0.231        0.111       48.866       17.820        0.133      344.523       21.403      862.253
08/08/2014  01:41:00       -6.974      -35.344       -3.589       21.540       25.274       11.139      463.963      638.757      124.083        0.127        0.061       36.026        8.569        0.057      344.604       21.541      862.254
08/08/2014  01:42:00      -18.031      -13.347        0.426       21.012       12.826        8.789      441.501      164.508       77.242        0.059        0.034       22.433        4.398        0.038      344.547       21.444      862.266
08/08/2014  01:43:00      -71.707        6.133        0.758       13.063       13.921       12.958      170.644      193.801      167.921        0.286        0.027       71.969        7.124        0.010      344.488       21.342      862.283
08/08/2014  01:44:00      -63.469       25.046       -2.995       11.325       12.814        7.691      128.247      164.191       59.148        0.251        0.018       68.232        5.705        0.007      344.378       21.155      862.283
08/08/2014  01:45:00      -52.803       31.677      -10.383       13.664       17.922        8.973      186.716      321.184       80.512        0.224        0.029       61.576        6.502        0.011      344.320       21.055      862.287
08/08/2014  01:46:00      -69.542       23.079       -1.053       18.666       13.229       12.816      348.414      175.002      164.250        0.303        0.034       73.271       10.272        0.020      344.323       21.062      862.290
08/08/2014  01:47:00      -78.305       -0.966       -1.292       21.351       29.273       11.990      455.863      856.888      143.755        0.380        0.073       78.311        9.664        0.015      344.353       21.111      862.298
08/08/2014  01:48:00      -33.538      -31.785        4.430       41.563       25.786       16.106     1727.492      664.931      259.402        0.240        0.133       46.207       22.466        0.236      344.327       21.068      862.301
08/08/2014  01:49:00      -85.088      -62.389        2.016       30.762       21.788       13.306      946.294      474.732      177.039        0.637        0.080      105.510       10.858        0.011      344.377       21.154      862.294
08/08/2014  01:50:00     -105.519      -65.354       -5.419       26.047       15.100       13.238      678.465      228.013      175.235        0.826        0.054      124.119        4.526        0.001      344.352       21.109      862.278
08/08/2014  01:51:00      -88.796      -60.419        3.310       35.216       26.562       24.920     1240.174      705.566      621.011        0.706        0.128      107.402       19.791        0.034      344.355       21.117      862.277
08/08/2014  01:52:00     -110.214      -55.345        6.524       54.417       38.421       21.157     2961.156     1476.147      447.610        1.007        0.244      123.330       23.291        0.036      344.332       21.074      862.269
08/08/2014  01:53:00     -106.987      -72.172        3.052       35.757       28.462       20.839     1278.548      810.077      434.270        0.959        0.126      129.054       13.968        0.012      344.354       21.112      862.258
08/08/2014  01:54:00      -58.784      -50.869        6.423       31.845       35.084       18.981     1014.133     1230.889      360.282        0.434        0.130       77.738       16.123        0.043      344.340       21.091      862.257
08/08/2014  01:55:00      -89.695      -33.590       -3.216       37.530       18.153       18.644     1408.506      329.531      347.600        0.563        0.104       95.778       21.951        0.053      344.298       21.017      862.266
08/08/2014  01:56:00      -82.758      -56.495       -0.497       36.372       25.728       17.072     1322.924      661.915      291.437        0.616        0.114      100.203       15.786        0.025      344.382       21.162      862.272
08/08/2014  01:57:00      -79.195      -37.006       -0.366       31.955       22.082       14.056     1021.132      487.610      197.559        0.467        0.085       87.415       15.941        0.033      344.375       21.150      862.260
08/08/2014  01:58:00      -74.968      -39.813       -8.577       41.503       25.921       20.215     1722.528      671.875      408.627        0.504        0.140       84.884       17.252        0.041      344.398       21.189      862.243
08/08/2014  01:59:00      -77.548      -43.721       -0.162       44.447       32.009       25.039     1975.540     1024.604      626.949        0.578        0.181       89.024        8.746        0.010      344.373       21.145      862.235
08/08/2014  02:00:00      -61.003      -33.376        1.617       44.796       22.288       19.508     2006.680      496.751      380.567        0.386        0.144       69.537       23.114        0.110      344.395       21.182      862.241
08/08/2014  02:01:00      -76.962       -2.385        0.999       27.779       25.673       20.015      771.682      659.100      400.591        0.388        0.092       76.999       14.941        0.038      344.341       21.092      862.235
08/08/2014  02:02:00      -79.341      -20.477        1.722       35.717       27.461       16.880     1275.706      754.085      284.946        0.452        0.116       81.941       15.303        0.035      344.282       20.990      862.223
08/08/2014  02:03:00      -80.022       -3.483       -1.835       21.599       20.043       15.018      466.512      401.727      225.533        0.376        0.055       80.098       12.175        0.023      344.141       20.749      862.216
08/08/2014  02:04:00      -80.877      -10.084        4.813       48.181       27.260       22.302     2321.404      743.123      497.378        0.511        0.178       81.503       24.902        0.093      344.185       20.826      862.212
08/08/2014  02:05:00     -113.104      -10.325       -7.404       49.786       33.458       21.139     2478.616     1119.419      446.875        0.850        0.202      113.575       17.800        0.025      344.163       20.786      862.200
08/08/2014  02:06:00     -142.155       -5.541       -9.069       34.445       33.902       25.072     1186.433     1149.324      628.590        1.164        0.148      142.263       20.212        0.020      344.095       20.670      862.189
08/08/2014  02:07:00     -149.214       -8.174      -11.782       43.835       31.645       20.933     1921.475     1001.401      438.200        1.292        0.168      149.438       23.493        0.025      344.134       20.736      862.187
08/08/2014  02:08:00     -110.810      -13.448       -7.604       38.190       30.411       22.013     1458.462      924.812      484.563        0.769        0.143      111.623       16.842        0.023      344.074       20.636      862.179
08/08/2014  02:09:00      -73.720      -27.878       12.526       49.047       44.204       24.140     2405.613     1953.951      582.748        0.565        0.247       78.815       25.187        0.102      344.050       20.595      862.168
08/08/2014  02:10:00      -51.629      -36.156       -0.690       49.331       37.287       22.679     2433.586     1390.288      514.327        0.415        0.217       63.030       20.537        0.106      344.060       20.613      862.166
08/08/2014  02:11:00      -32.808       -6.532        2.766       46.052       28.767       22.432     2120.819      827.557      503.186        0.229        0.173       33.452       15.593        0.217      343.991       20.492      862.183
08/08/2014  02:12:00      -46.458      -28.494      -12.734       40.306       29.416       17.500     1624.554      865.316      306.266        0.296        0.140       54.500        8.925        0.027      343.860       20.269      862.178
08/08/2014  02:13:00      -68.857      -43.611        0.458       59.756       33.360       24.495     3570.742     1112.898      600.012        0.596        0.264       81.506       30.113        0.137      343.848       20.249      862.173
08/08/2014  02:14:00      -63.919      -38.825        4.158       53.367       30.122       23.270     2848.047      907.343      541.513        0.495        0.215       74.787       29.044        0.151      343.805       20.175      862.172
08/08/2014  02:15:00      -76.453      -72.154       -3.982       40.300       26.181       19.930     1624.078      685.444      397.222        0.689        0.135      105.125       17.886        0.029      343.918       20.368      862.179
08/08/2014  02:16:00     -115.774      -51.256       -3.651       36.611       23.700       16.288     1340.362      561.712      265.315        0.911        0.108      126.613       18.386        0.021      343.948       20.421      862.191
08/08/2014  02:17:00      -61.483      -12.855        3.805       32.480       14.255       15.251     1054.920      203.204      232.607        0.273        0.075       62.813       19.278        0.094      343.892       20.323      862.190
08/08/2014  02:18:00      -90.736      -34.870        0.656       39.251       24.642       19.063     1540.612      607.244      363.382        0.598        0.126       97.206       21.213        0.048      343.949       20.421      862.195
08/08/2014  02:19:00     -115.264      -51.690        0.777       30.705       30.801       19.624      942.817      948.721      385.103        0.912        0.114      126.324       18.992        0.023      343.985       20.483      862.200
08/08/2014  02:20:00      -96.650      -85.719       -0.331       51.339       39.190       22.750     2635.660     1535.861      517.569        1.069        0.234      129.186       22.781        0.031      344.053       20.598      862.203
08/08/2014  02:21:00      -73.126      -54.515       10.338       53.834       32.948       27.097     2898.059     1085.578      734.243        0.657        0.236       91.210       27.604        0.092      344.094       20.669      862.201
08/08/2014  02:22:00      -37.078      -49.773       12.218       41.053       38.082       24.226     1685.319     1450.259      586.905        0.386        0.186       62.065       27.476        0.196      344.166       20.792      862.205
08/08/2014  02:23:00      -76.841      -85.529       -0.412       42.218       39.734       23.176     1782.393     1578.758      537.125        0.856        0.195      114.977       21.400        0.035      344.287       20.999      862.212
08/08/2014  02:24:00      -30.274      -46.980        6.254       24.781       28.461       16.083      614.087      810.009      258.659        0.242        0.084       55.889       10.246        0.034      344.285       20.995      862.216
08/08/2014  02:25:00      -60.250      -42.021        4.990       58.298       21.927       20.999     3398.606      480.807      440.958        0.487        0.216       73.457       26.188        0.127      344.284       20.993      862.223
08/08/2014  02:26:00      -66.681      -30.292        4.075       35.135       40.969       18.544     1234.489     1678.445      343.880        0.432        0.163       73.239       13.045        0.032      344.228       20.898      862.212
08/08/2014  02:27:00     -100.289      -46.615       -0.549       33.331       27.110       13.943     1110.972      734.944      194.399        0.714        0.102      110.593        9.447        0.007      344.205       20.858      862.213
08/08/2014  02:28:00     -100.673      -47.799       -6.774       43.167       52.125       22.332     1863.394     2716.968      498.710        0.877        0.254      111.444       18.112        0.026      344.153       20.769      862.218
08/08/2014  02:29:00     -114.325      -30.192        7.123       40.058       35.125       20.531     1604.682     1233.796      421.517        0.865        0.163      118.244       18.688        0.025      344.109       20.696      862.220
08/08/2014  02:30:00     -141.438      -69.097        3.417       39.550       37.462       21.725     1564.167     1403.407      471.960        1.411        0.172      157.414       15.515        0.010      344.170       20.799      862.220
08/08/2014  02:31:00     -126.364      -28.742        1.815       52.699       42.462       30.579     2777.205     1803.011      935.058        1.116        0.276      129.592       25.923        0.040      344.165       20.788      862.221
08/08/2014  02:32:00     -163.940      -62.954        4.286       60.431       38.875       24.523     3651.934     1511.259      601.368        1.831        0.288      175.612       23.579        0.018      344.184       20.821      862.226
08/08/2014  02:33:00     -151.762      -69.051        6.722       60.779       52.947       31.272     3694.065     2803.369      977.964        1.766        0.374      166.733       33.721        0.041      344.252       20.937      862.231
08/08/2014  02:34:00     -142.906      -59.487        2.017       43.160       38.012       28.521     1862.768     1444.940      813.462        1.404        0.206      154.793       24.117        0.024      344.209       20.865      862.219
08/08/2014  02:35:00     -124.900      -51.387        1.395       38.521       31.223       21.058     1483.851      974.897      443.426        1.057        0.145      135.058       19.933        0.022      344.188       20.829      862.202
08/08/2014  02:36:00     -120.603      -65.995        2.706       47.394       36.918       19.061     2246.195     1362.953      363.326        1.144        0.199      137.478       20.609        0.022      344.148       20.762      862.199
08/08/2014  02:37:00      -99.896      -78.484        1.818       47.853       38.050       27.710     2289.919     1447.772      767.825        1.032        0.225      127.039       26.597        0.044      344.125       20.724      862.196
08/08/2014  02:38:00      -71.811      -84.872        7.896       71.133       60.515       35.356     5059.931     3662.121     1250.065        1.120        0.499      111.176       40.040        0.130      344.146       20.757      862.183
08/08/2014  02:39:00     -134.823      -71.576       -4.380       57.458       59.550       31.949     3301.478     3546.249     1020.768        1.559        0.393      152.644       29.267        0.037      344.212       20.871      862.170
08/08/2014  02:40:00     -115.868      -40.459        0.493       43.999       48.565       27.391     1935.880     2358.533      750.252        1.005        0.252      122.729       24.891        0.041      344.164       20.788      862.166
08/08/2014  02:41:00      -67.565      -22.996        2.891       41.763       24.560       17.810     1744.150      603.202      317.185        0.388        0.133       71.371       16.762        0.055      344.064       20.617      862.174
08/08/2014  02:42:00      -70.301      -33.338        3.766       45.920       21.923       18.220     2108.653      480.618      331.977        0.449        0.146       77.805       20.848        0.072      344.116       20.706      862.167
08/08/2014  02:43:00      -32.292       -9.477        1.491       29.754       22.738       12.464      885.318      517.014      155.345        0.135        0.078       33.654       12.571        0.140      343.987       20.487      862.157
08/08/2014  02:44:00      -41.152       10.299       -0.734       25.529       16.056       14.826      651.735      257.780      219.805        0.146        0.056       42.421       12.893        0.092      343.856       20.263      862.156
08/08/2014  02:45:00      -68.870      -18.949       -2.898       23.040       27.408       13.190      530.864      751.174      173.989        0.328        0.073       71.430       15.136        0.045      343.922       20.375      862.158
08/08/2014  02:46:00      -17.693      -31.498        8.336       31.401       18.846       17.398      985.998      355.184      302.675        0.151        0.082       36.127       14.534        0.162      343.902       20.341      862.164
08/08/2014  02:47:00      -55.947      -28.247        3.534       39.109       22.532       11.720     1529.484      507.704      137.352        0.306        0.109       62.674        9.327        0.022      343.929       20.387      862.174
08/08/2014  02:48:00      -80.437      -43.893       -0.428       23.607       25.606       14.559      557.267      655.681      211.975        0.491        0.071       91.634       12.464        0.019      343.929       20.386      862.169
08/08/2014  02:49:00      -97.367      -62.745        0.121       28.623       28.022       17.107      819.303      785.255      292.666        0.766        0.095      115.833       13.737        0.014      343.962       20.443      862.166
08/08/2014  02:50:00      -85.784      -57.124        0.464       48.336       24.010       25.248     2336.413      576.490      637.476        0.709        0.178      103.064       29.463        0.082      344.032       20.562      862.163
08/08/2014  02:51:00      -94.910      -58.195        1.531       53.367       40.744       24.931     2848.019     1660.082      621.532        0.876        0.256      111.330       27.342        0.060      343.943       20.410      862.166
08/08/2014  02:52:00     -115.739      -59.867       -0.314       29.758       24.281       17.284      885.518      589.589      298.724        0.938        0.089      130.306       16.125        0.015      343.942       20.410      862.162
08/08/2014  02:53:00     -122.292      -55.906       -4.097       15.783       19.763       14.149      249.098      390.561      200.197        0.947        0.042      134.464        9.029        0.005      344.071       20.630      862.150
08/08/2014  02:54:00      -74.017      -30.497        5.423       44.303       32.549       18.581     1962.747     1059.426      345.261        0.490        0.168       80.054       17.563        0.048      343.972       20.460      862.141
08/08/2014  02:55:00     -107.847        8.085       -7.181       39.093       29.852       19.532     1528.261      891.161      381.493        0.727        0.140      108.149       20.260        0.035      343.818       20.197      862.147
08/08/2014  02:56:00     -120.593      -17.864       -9.516       46.048       25.679       12.337     2120.375      659.411      152.193        0.894        0.147      121.909       16.646        0.019      343.827       20.211      862.147
08/08/2014  02:57:00      -99.486      -32.291        1.916       32.652       27.977       15.685     1066.154      782.705      246.014        0.652        0.105      104.595       15.804        0.023      343.720       20.031      862.145
08/08/2014  02:58:00      -90.787      -31.493        7.823       37.705       32.175       19.361     1421.688     1035.226      374.861        0.606        0.142       96.094       20.745        0.047      343.769       20.114      862.143
08/08/2014  02:59:00      -76.443      -48.040        4.237       38.829       28.310       16.751     1507.692      801.435      280.581        0.538        0.129       90.285       15.269        0.029      343.791       20.151      862.141
08/08/2014  03:00:00     -103.937       -2.695       -7.432       25.611       35.701       18.647      655.930     1274.574      347.720        0.657        0.114      103.972       10.985        0.011      343.627       19.871      862.140
08/08/2014  03:01:00     -132.485       26.658      -10.405       26.539       24.990       16.731      704.342      624.479      279.913        0.999        0.080      135.141       13.395        0.010      343.646       19.902      862.139
08/08/2014  03:02:00      -96.346      -10.480       -2.198       54.021       15.924       16.930     2918.294      253.577      286.613        0.643        0.173       96.915       26.516        0.075      343.680       19.962      862.142
08/08/2014  03:03:00      -79.154      -28.847       -4.288       22.121       17.833        9.772      489.353      318.016       95.498        0.401        0.045       84.247        9.192        0.012      343.617       19.853      862.137
08/08/2014  03:04:00      -81.383      -18.048       -8.332       11.199       12.065        7.404      125.411      145.567       54.815        0.367        0.016       83.361        3.987        0.002      343.638       19.890      862.126
08/08/2014  03:05:00      -74.111      -20.014       -2.958       15.120       11.470        8.728      228.608      131.553       76.178        0.317        0.022       76.766        8.865        0.013      343.702       19.999      862.120
08/08/2014  03:06:00      -66.388      -24.392        3.035       19.329       15.628        9.769      373.626      244.229       95.439        0.286        0.036       70.727        8.741        0.015      343.737       20.059      862.116
08/08/2014  03:07:00      -40.209      -29.827        3.459       29.480       19.740       12.310      869.051      389.679      151.526        0.196        0.071       50.064       12.155        0.059      343.789       20.149      862.119
08/08/2014  03:08:00        3.923      -25.207       -1.560       17.101       14.180       11.943      292.448      201.074      142.641        0.064        0.032       25.510        9.565        0.141      343.838       20.232      862.109
08/08/2014  03:09:00      -23.790      -34.144       -1.054       20.230       20.662       12.129      409.243      426.935      147.111        0.136        0.049       41.615        7.450        0.032      343.865       20.277      862.093
08/08/2014  03:10:00      -44.183      -20.451        9.251       42.701       22.967       12.229     1823.334      527.463      149.542        0.248        0.125       48.686       13.595        0.078      343.798       20.164      862.080
08/08/2014  03:11:00      -64.602      -31.574        0.416       28.500       14.282       12.549      812.278      203.974      157.486        0.317        0.059       71.905       14.352        0.040      343.756       20.092      862.082
08/08/2014  03:12:00      -44.843      -29.962        1.919       24.364       16.693       12.683      593.625      278.645      160.866        0.197        0.052       53.931        9.947        0.034      343.654       19.917      862.069
08/08/2014  03:13:00      -90.076      -63.863       -3.005       19.626       14.807       13.443      385.199      219.238      180.718        0.649        0.039      110.419        9.709        0.008      343.843       20.239      862.059
08/08/2014  03:14:00     -102.537      -64.737        4.730       32.576       26.038       17.791     1061.225      677.990      316.523        0.839        0.103      121.263       17.653        0.021      343.887       20.317      862.047
08/08/2014  03:15:00      -90.027      -60.985        0.627       32.857       21.753       21.125     1079.582      473.186      446.250        0.691        0.100      108.739       18.569        0.029      343.966       20.451      862.052
08/08/2014  03:16:00     -123.565      -64.373        4.010       29.015       26.137       17.758      841.886      683.131      315.333        1.063        0.092      139.327       15.502        0.012      343.977       20.469      862.047
08/08/2014  03:17:00      -83.707      -59.176        0.376       51.506       28.724       20.870     2652.876      825.088      435.542        0.721        0.196      102.512       21.645        0.045      343.953       20.428      862.047
08/08/2014  03:18:00      -71.566      -57.354        2.214       41.652       39.932       22.552     1734.903     1594.583      508.613        0.613        0.192       91.712       21.697        0.056      343.869       20.285      862.041
08/08/2014  03:19:00      -50.847      -34.872        5.945       39.393       27.714       18.559     1551.784      768.079      344.444        0.325        0.133       61.656       19.349        0.098      343.795       20.160      862.039
08/08/2014  03:20:00      -49.092      -23.257        4.285       39.320       25.373       20.174     1546.067      643.789      406.975        0.278        0.130       54.322       18.286        0.113      343.747       20.077      862.041
08/08/2014  03:21:00      -68.886      -44.754        2.540       39.252       32.258       18.316     1540.709     1040.577      335.481        0.484        0.146       82.147       12.848        0.024      343.705       20.006      862.051
08/08/2014  03:22:00      -79.577      -47.846        3.151       32.257       24.375       18.314     1040.482      594.130      335.392        0.530        0.099       92.854       14.482        0.024      343.664       19.934      862.057
08/08/2014  03:23:00      -32.613      -26.977       11.373       38.158       25.112       15.273     1456.009      630.596      233.251        0.212        0.116       42.325       17.680        0.174      343.603       19.831      862.063
08/08/2014  03:24:00      -35.930      -34.930        6.012       34.822       25.070       18.538     1212.583      628.496      343.666        0.237        0.109       50.111       19.176        0.146      343.584       19.798      862.061
08/08/2014  03:25:00      -61.035      -39.655        3.768       58.951       30.305       22.477     3475.169      918.422      505.224        0.510        0.245       72.786       29.773        0.167      343.585       19.800      862.062
08/08/2014  03:26:00      -34.452      -27.501        5.325       38.287       22.938       17.807     1465.863      526.161      317.099        0.214        0.115       44.082       19.466        0.195      343.593       19.813      862.076
08/08/2014  03:27:00      -57.563      -36.912       -2.718       26.089       18.207       18.160      680.636      331.486      329.787        0.301        0.067       68.382       11.692        0.029      343.621       19.861      862.095
08/08/2014  03:28:00      -68.984      -19.996       -0.302       21.362       22.191       13.624      456.315      492.458      185.626        0.315        0.057       71.824       12.936        0.032      343.613       19.848      862.103
08/08/2014  03:29:00      -41.300      -23.344        7.528       31.484       25.109       12.872      991.232      630.481      165.694        0.205        0.089       47.440       14.066        0.088      343.510       19.673      862.113
08/08/2014  03:30:00      -63.039        1.171       -0.815       19.912       17.269       12.900      396.505      298.228      166.414        0.242        0.043       63.050       10.311        0.027      343.414       19.508      862.115
08/08/2014  03:31:00      -62.229       -4.653       -5.074       20.150       18.226       13.028      406.035      332.188      169.730        0.241        0.045       62.402        9.873        0.025      343.279       19.277      862.113
08/08/2014  03:32:00      -56.359       -8.414        0.748       31.155       21.997       17.020      970.622      483.851      289.678        0.250        0.087       56.984       16.482        0.084      343.237       19.208      862.111
08/08/2014  03:33:00      -67.225      -15.887        3.091       24.687       20.771       17.921      609.431      431.432      321.170        0.307        0.068       69.077       15.193        0.048      343.277       19.275      862.103
08/08/2014  03:34:00      -78.969      -26.933        0.457       26.975       28.980       18.523      727.669      839.838      343.117        0.444        0.096       83.435       18.814        0.051      343.311       19.334      862.111
08/08/2014  03:35:00      -55.973      -15.319        6.706       32.568       29.555       15.679     1060.670      873.510      245.824        0.280        0.109       58.031       15.192        0.069      343.298       19.312      862.099
08/08/2014  03:36:00      -70.849      -34.339        5.656       27.586       23.684       15.311      761.007      560.947      234.412        0.389        0.078       78.732       11.904        0.023      343.403       19.489      862.093
08/08/2014  03:37:00      -96.082      -47.409        3.998       26.362       30.158       17.011      694.976      909.534      289.358        0.669        0.095      107.142       14.698        0.019      343.405       19.493      862.076
08/08/2014  03:38:00      -63.120      -50.958        5.827       36.810       27.717       22.151     1354.984      768.232      490.687        0.461        0.131       81.122       18.006        0.049      343.449       19.568      862.072
08/08/2014  03:39:00      -67.363      -44.741        4.435       43.071       31.536       21.882     1855.134      994.503      478.842        0.494        0.166       80.867       21.604        0.071      343.398       19.480      862.068
08/08/2014  03:40:00      -70.287      -30.242        1.130       38.571       20.361       14.419     1487.711      414.590      207.914        0.398        0.106       76.517       15.908        0.043      343.355       19.409      862.068
08/08/2014  03:41:00      -91.059      -36.366       -5.347       20.652       21.908       13.797      426.514      479.955      190.367        0.537        0.055       98.052        7.036        0.005      343.314       19.337      862.059
08/08/2014  03:42:00      -88.341      -37.820       -1.282       29.651       24.825       15.847      879.172      616.271      251.139        0.549        0.087       96.097       11.266        0.014      343.308       19.329      862.048
08/08/2014  03:43:00      -80.447      -37.567        1.072       32.648       31.093       19.056     1065.859      966.791      363.146        0.514        0.120       88.786       18.808        0.045      343.366       19.428      862.051
08/08/2014  03:44:00      -92.470      -25.717       -3.468       27.077       21.795       16.818      733.182      475.020      282.854        0.536        0.075       95.980       14.290        0.022      343.233       19.200      862.054
08/08/2014  03:45:00      -86.455      -51.720        2.155       28.750       22.269       15.428      826.536      495.897      238.025        0.586        0.078      100.744       13.082        0.017      343.400       19.486      862.060
08/08/2014  03:46:00      -54.690      -20.578       -0.687       39.262       22.891       16.918     1541.529      523.992      286.233        0.288        0.118       58.433       20.393        0.122      343.298       19.312      862.065
08/08/2014  03:47:00      -57.515        2.648       -2.771       17.517       16.448       12.973      306.851      270.534      168.296        0.203        0.037       57.576        9.039        0.025      343.389       19.467      862.059
08/08/2014  03:48:00      -61.424       -6.923       -5.475       13.308       13.295       10.128      177.106      176.744      102.583        0.215        0.023       61.813        4.208        0.005      343.337       19.378      862.063
08/08/2014  03:49:00      -84.048      -33.797        0.402       19.351       19.202       11.842      374.446      368.719      140.231        0.454        0.044       90.589       10.128        0.012      343.365       19.425      862.063
08/08/2014  03:50:00      -85.710      -35.452       -6.677       12.895       13.879       10.122      166.287      192.629      102.446        0.455        0.023       92.753        6.714        0.005      343.347       19.395      862.079
08/08/2014  03:51:00      -95.952      -42.773       -5.066       20.619       16.573       12.370      425.132      274.678      153.025        0.596        0.043      105.053       12.592        0.014      343.334       19.374      862.083
08/08/2014  03:52:00      -99.930      -45.323       -0.531       20.701       22.677       15.028      428.547      514.260      225.845        0.660        0.058      109.728       10.253        0.009      343.352       19.405      862.082
08/08/2014  03:53:00      -84.382      -46.294       -4.378       14.645       16.994       11.500      214.464      288.811      132.251        0.496        0.032       96.247        9.417        0.010      343.352       19.404      862.079
08/08/2014  03:54:00      -91.754      -38.928       -3.965       17.379       15.294       13.687      302.022      233.895      187.333        0.534        0.036       99.671        4.095        0.002      343.344       19.390      862.065
08/08/2014  03:55:00      -89.572      -26.933        1.006       29.205       22.881       15.618      852.945      523.524      243.932        0.518        0.081       93.533       16.517        0.031      343.327       19.360      862.065
08/08/2014  03:56:00      -94.978      -28.949        1.735       28.560       17.057       11.649      815.678      290.940      135.708        0.555        0.062       99.292        8.278        0.007      343.326       19.358      862.066
08/08/2014  03:57:00     -100.279      -14.400        0.366       31.012       16.796       13.973      961.720      282.122      195.244        0.585        0.072      101.308       13.383        0.017      343.277       19.276      862.059
08/08/2014  03:58:00      -71.956      -16.878       -2.414       38.096       16.569       15.750     1451.304      274.538      248.070        0.372        0.099       73.909       18.893        0.065      343.145       19.050      862.051
08/08/2014  03:59:00     -107.199       -4.939       -6.054       33.823       25.091       14.740     1143.975      629.539      217.279        0.677        0.100      107.313       12.739        0.014      343.197       19.139      862.053
08/08/2014  04:00:00      -78.409       -4.298       -4.499       33.116       27.129       17.674     1096.677      735.956      312.357        0.417        0.107       78.527       11.438        0.021      343.175       19.103      862.048
08/08/2014  04:01:00      -60.187      -20.986       -6.895       25.146       24.371       15.949      632.343      593.943      254.359        0.280        0.074       63.741       12.897        0.041      343.210       19.161      862.038
08/08/2014  04:02:00      -61.643      -33.913        0.094       35.219       20.337       16.092     1240.361      413.586      258.938        0.343        0.096       70.356       15.195        0.047      343.161       19.077      862.028
08/08/2014  04:03:00      -32.574      -31.679        6.323       45.243       28.420       21.220     2046.970      807.695      450.300        0.270        0.165       45.438       27.771        0.374      343.121       19.009      862.025
08/08/2014  04:04:00      -68.562      -47.323        2.060       27.900       22.379       15.910      778.386      500.832      253.139        0.424        0.077       83.308       13.223        0.025      343.109       18.990      862.026
08/08/2014  04:05:00      -31.179      -26.633        6.945       33.884       20.060       18.115     1148.103      402.392      328.158        0.180        0.094       41.006       10.401        0.064      343.183       19.115      862.030
08/08/2014  04:06:00      -34.657      -28.943        1.493       30.794       20.825       18.000      948.272      433.674      324.016        0.187        0.085       45.153        9.768        0.047      343.285       19.290      862.037
08/08/2014  04:07:00     -101.307      -81.919      -12.531       26.635       35.368       20.831      709.410     1250.877      433.948        0.976        0.120      130.284       12.818        0.010      343.418       19.516      862.035
08/08/2014  04:08:00      -97.484      -60.036        2.308       41.580       26.729       23.383     1728.930      714.422      546.775        0.805        0.150      114.488       23.466        0.042      343.339       19.380      862.040
08/08/2014  04:09:00     -107.296      -51.981        6.780       40.177       21.226       16.827     1614.169      450.525      283.155        0.830        0.117      119.224        9.490        0.006      343.271       19.264      862.048
08/08/2014  04:10:00     -103.655      -57.713       -1.603       41.238       30.348       23.239     1700.593      920.997      540.048        0.862        0.158      118.639       22.443        0.036      343.257       19.242      862.054
08/08/2014  04:11:00     -123.002      -67.690        1.779       36.800       31.559       22.433     1354.246      996.001      503.230        1.128        0.143      140.397       16.680        0.014      343.377       19.444      862.051
08/08/2014  04:12:00     -114.908      -59.635       -1.192       28.517       27.682       19.874      813.221      766.311      394.980        0.937        0.099      129.461       17.134        0.018      343.319       19.347      862.047
08/08/2014  04:13:00      -93.087      -56.837        7.622       42.736       32.570       20.838     1826.376     1060.796      434.222        0.764        0.166      109.068       21.754        0.040      343.335       19.373      862.049
08/08/2014  04:14:00      -58.891      -37.940        5.201       36.053       20.435       19.684     1299.804      417.581      387.446        0.352        0.105       70.054       18.763        0.072      343.346       19.392      862.058
08/08/2014  04:15:00      -74.368      -40.365        1.517       31.323       24.236       19.829      981.137      587.374      393.193        0.456        0.098       84.616       17.055        0.041      343.338       19.381      862.063
08/08/2014  04:16:00      -95.175      -68.466       -3.796       33.683       36.155       20.756     1134.514     1307.165      430.832        0.832        0.144      117.243       14.441        0.015      343.312       19.335      862.059
08/08/2014  04:17:00      -75.295      -39.235        0.813       45.890       28.605       19.564     2105.887      818.262      382.758        0.526        0.165       84.904       25.901        0.093      343.270       19.264      862.056
08/08/2014  04:18:00      -82.350      -53.766       -1.865       42.075       18.650       20.693     1770.307      347.814      428.203        0.611        0.127       98.348       18.351        0.035      343.240       19.213      862.062
08/08/2014  04:19:00      -95.009      -19.044       -3.349       31.774       22.365       21.095     1009.558      500.180      445.001        0.568        0.098       96.899       20.064        0.043      343.141       19.043      862.058
08/08/2014  04:20:00      -93.955      -31.714       -0.368       35.131       29.791       18.991     1234.198      887.502      360.670        0.616        0.124       99.163       17.857        0.032      343.121       19.010      862.036
08/08/2014  04:21:00     -106.335      -35.810        4.599       36.790       33.902       23.520     1353.529     1149.351      553.170        0.783        0.153      112.203       22.128        0.039      343.091       18.959      862.012
08/08/2014  04:22:00     -109.988      -29.426        4.261       49.406       31.811       18.980     2440.986     1011.921      360.244        0.840        0.191      113.857       21.478        0.036      342.940       18.704      861.998
08/08/2014  04:23:00     -128.395      -31.593       -7.052       36.817       33.457       23.909     1355.524     1119.359      571.638        1.029        0.152      132.225       16.609        0.016      342.970       18.753      861.989
08/08/2014  04:24:00     -130.888       -7.341      -11.230       33.347       31.935       18.498     1112.043     1019.866      342.179        0.989        0.124      131.093       12.693        0.009      342.973       18.758      861.985
08/08/2014  04:25:00     -108.978        4.128        2.745       53.063       26.679       20.493     2815.650      711.769      419.949        0.792        0.197      109.056       25.888        0.056      342.976       18.763      861.973
08/08/2014  04:26:00     -154.289        5.710      -17.024       28.111       21.430       15.830      790.250      459.251      250.590        1.281        0.075      154.395        6.252        0.002      343.052       18.892      861.956
08/08/2014  04:27:00     -133.704       21.198       -5.236       34.820       21.172       17.320     1212.438      448.234      299.970        1.016        0.098      135.374       17.177        0.016      343.085       18.947      861.944
08/08/2014  04:28:00     -130.846       26.078      -10.445       21.406       20.418       15.388      458.201      416.892      236.777        0.951        0.056      133.419        7.509        0.003      343.106       18.984      861.953
08/08/2014  04:29:00     -111.027       14.565       -8.466       20.380       16.892       18.125      415.354      285.340      328.520        0.682        0.051      111.979       14.033        0.016      343.122       19.012      861.954
08/08/2014  04:30:00      -85.090        0.050      -11.219       23.195       22.280       13.597      537.987      496.412      184.869        0.429        0.061       85.090       13.487        0.025      343.085       18.949      861.949
08/08/2014  04:31:00     -128.465       21.437      -10.991       37.800       32.464       17.541     1428.865     1053.910      307.700        0.994        0.140      130.241       15.113        0.013      343.049       18.887      861.939
08/08/2014  04:32:00     -127.414      -15.400      -18.686       39.496       19.978       16.344     1559.916      399.116      267.118        0.952        0.111      128.341       18.330        0.020      343.073       18.930      861.946
08/08/2014  04:33:00      -88.974       -0.155      -10.208       40.996       32.086       17.809     1680.692     1029.492      317.161        0.552        0.151       88.974       19.841        0.050      342.952       18.721      861.947
08/08/2014  04:34:00     -121.925      -26.015       -8.063       20.023       33.757       21.231      400.931     1139.506      450.744        0.880        0.100      124.669       16.127        0.017      342.842       18.535      861.946
08/08/2014  04:35:00     -115.897      -20.373       -8.547       32.865       25.916       20.656     1080.122      671.630      426.687        0.805        0.109      117.674       17.389        0.022      342.745       18.368      861.953
08/08/2014  04:36:00     -124.394       -7.259       -8.168       49.084       31.627       27.325     2409.200     1000.269      746.649        0.987        0.208      124.606       28.149        0.051      342.770       18.412      861.965
08/08/2014  04:37:00     -147.561       23.669      -10.597       40.244       31.607       17.528     1619.562      998.992      307.234        1.269        0.146      149.447       11.321        0.006      342.951       18.720      861.982
08/08/2014  04:38:00     -134.499        4.178       -9.853       41.528       31.051       17.987     1724.609      964.147      323.541        1.061        0.151      134.564       16.988        0.016      343.032       18.858      861.974
08/08/2014  04:39:00     -101.235       17.926      -11.508       28.353       26.782       20.803      803.874      717.289      432.777        0.633        0.098      102.810       15.046        0.021      342.979       18.768      861.978
08/08/2014  04:40:00     -105.205       39.059      -11.798       40.749       21.079       25.591     1660.507      444.343      654.905        0.775        0.138      112.221       20.300        0.033      343.063       18.911      861.982
08/08/2014  04:41:00      -63.204       17.097       -1.980       49.685       21.987       18.634     2468.607      483.447      347.220        0.379        0.165       65.475       19.554        0.089      343.014       18.827      861.988
08/08/2014  04:42:00     -122.914      -50.369       -3.780       36.246       37.133       18.732     1313.738     1378.842      350.894        1.035        0.152      132.834       18.394        0.019      342.831       18.517      861.990
08/08/2014  04:43:00     -122.250      -27.495       -8.720       20.874       34.389       14.317      435.718     1182.629      204.978        0.880        0.091      125.304       10.041        0.006      342.719       18.325      861.990
08/08/2014  04:44:00     -114.155       -8.880       -8.482       17.424       19.972       12.277      303.596      398.891      150.716        0.702        0.043      114.500        6.237        0.003      342.741       18.363      861.986
08/08/2014  04:45:00      -88.207      -34.729        1.286       23.305       17.726       15.360      543.117      314.227      235.945        0.504        0.055       94.797        9.773        0.011      342.761       18.397      861.996
08/08/2014  04:46:00      -82.374      -43.032        2.615       19.051       17.684       13.765      362.927      312.723      189.471        0.475        0.043       92.937       10.718        0.013      342.920       18.668      861.987
08/08/2014  04:47:00      -60.878      -46.934       -2.756       16.786       16.564        6.872      281.762      274.374       47.225        0.326        0.030       76.869        6.135        0.006      343.059       18.905      861.971
08/08/2014  04:48:00      -59.192      -29.325        2.598       48.417       19.771       15.628     2344.215      390.895      244.244        0.367        0.149       66.057       18.887        0.082      342.808       18.477      861.962
08/08/2014  04:49:00      -36.271      -27.776        6.416       43.004       26.730       16.308     1849.338      714.513      265.947        0.248        0.141       45.685       21.305        0.217      342.816       18.489      861.950
08/08/2014  04:50:00      -21.229      -23.685        0.779       23.258       22.568       16.042      540.933      509.319      257.338        0.116        0.065       31.806       17.349        0.298      342.867       18.577      861.928
08/08/2014  04:51:00      -35.490       -7.448       -3.202       17.109        9.624       12.848      292.715       92.630      165.080        0.094        0.028       36.263       11.232        0.096      342.929       18.681      861.902
08/08/2014  04:52:00      -52.752      -39.116       -1.794       33.865       11.768       12.122     1146.830      138.482      146.945        0.287        0.072       65.672       10.457        0.025      342.930       18.686      861.900
08/08/2014  04:53:00      -91.739      -21.196       -1.315       26.050       21.822       13.996      678.627      476.179      195.881        0.511        0.068       94.156       12.899        0.019      342.831       18.516      861.909
08/08/2014  04:54:00      -66.901      -43.286        4.409       36.112       19.917       18.923     1304.066      396.678      358.073        0.421        0.103       79.683       16.422        0.042      342.802       18.466      861.905
08/08/2014  04:55:00      -72.391      -92.400       -3.775       47.686       54.123       22.631     2273.921     2929.268      512.140        0.975        0.286      117.381       19.460        0.027      342.895       18.624      861.916
08/08/2014  04:56:00      -71.175      -64.717       -4.184       35.256       42.088       23.373     1242.987     1771.365      546.304        0.642        0.178       96.198        6.743        0.005      342.885       18.609      861.925
08/08/2014  04:57:00      -62.948      -55.722       10.397       36.779       32.853       24.311     1352.668     1079.295      591.011        0.510        0.151       84.068       17.358        0.043      342.866       18.577      861.937
08/08/2014  04:58:00      -72.723      -62.172       -0.609       49.778       25.714       21.644     2477.855      661.194      468.484        0.638        0.180       95.677       24.797        0.067      342.904       18.641      861.942
08/08/2014  04:59:00      -55.173      -94.025        1.390       34.617       37.311       22.457     1198.320     1392.108      504.334        0.749        0.155      109.017       20.801        0.036      342.940       18.702      861.936
08/08/2014  05:00:00      -83.828     -128.216       -1.070       39.236       50.488       26.998     1539.488     2549.011      728.919        1.414        0.241      153.188       24.653        0.026      342.918       18.665      861.934
08/08/2014  05:01:00      -80.794      -88.632       10.331       61.343       39.666       31.722     3762.917     1573.421     1006.277        1.042        0.317      119.931       32.327        0.073      342.895       18.624      861.929
08/08/2014  05:02:00      -67.443      -55.125        7.956       51.060       45.427       30.051     2607.080     2063.634      903.043        0.661        0.279       87.106       23.000        0.070      342.849       18.547      861.926
08/08/2014  05:03:00      -54.915     -122.918        0.358       40.749       58.868       26.408     1660.512     3465.420      697.381        1.197        0.291      134.627       31.446        0.055      342.874       18.588      861.937
08/08/2014  05:04:00      -84.033      -94.261       -7.945       45.936       55.147       24.754     2110.122     3041.239      612.751        1.089        0.288      126.280       21.400        0.029      342.872       18.585      861.936
08/08/2014  05:05:00      -79.218      -98.342       -4.114       51.658       45.004       25.847     2668.573     2025.374      668.061        1.066        0.268      126.280       24.558        0.038      342.840       18.530      861.933
08/08/2014  05:06:00      -73.822      -89.455       -5.085       46.490       39.794       29.351     2161.324     1583.536      861.492        0.904        0.230      115.983       19.703        0.029      342.805       18.471      861.936
08/08/2014  05:07:00      -86.950     -107.769      -10.929       36.399       51.453       18.036     1324.855     2647.433      325.311        1.179        0.215      138.472       13.709        0.010      342.796       18.454      861.936
08/08/2014  05:08:00      -64.075      -87.248        6.225       37.021       40.680       19.743     1370.541     1654.839      389.802        0.759        0.171      108.249       21.637        0.040      342.788       18.442      861.953
08/08/2014  05:09:00      -91.006      -95.971        0.858       45.686       52.044       35.378     2087.199     2708.557     1251.576        1.177        0.302      132.259       30.994        0.055      342.752       18.383      861.960
08/08/2014  05:10:00      -42.173      -15.043       12.494       49.936       32.221       22.278     2493.564     1038.162      496.328        0.309        0.201       44.775       26.341        0.346      342.708       18.305      861.957
08/08/2014  05:11:00      -47.125      -43.349       -3.523       32.680       38.572       17.969     1067.998     1487.806      322.880        0.349        0.144       64.030        7.755        0.015      342.798       18.460      861.948
08/08/2014  05:12:00     -107.952      -46.777       -3.455       38.922       30.178       23.829     1514.956      910.704      567.842        0.842        0.150      117.650       18.644        0.025      342.735       18.352      861.933
08/08/2014  05:13:00     -101.059      -51.275       -4.962       41.085       38.414       20.014     1687.990     1475.597      400.549        0.821        0.178      113.323       13.722        0.015      342.726       18.338      861.938
08/08/2014  05:14:00     -117.697      -43.325        2.551       48.356       38.421       26.367     2338.294     1476.206      695.228        1.012        0.225      125.418       23.521        0.035      342.662       18.227      861.936
08/08/2014  05:15:00      -68.082      -41.721        1.296       45.557       39.341       20.447     2075.464     1547.700      418.077        0.521        0.202       79.849       24.861        0.097      342.659       18.223      861.930
08/08/2014  05:16:00      -83.456      -27.704        0.493       30.451       35.420       21.710      927.243     1254.575      471.344        0.519        0.133       87.934       18.106        0.042      342.653       18.214      861.925
08/08/2014  05:17:00      -88.660      -27.883        3.085       36.424       34.573       19.716     1326.713     1195.301      388.707        0.578        0.146       92.941       18.031        0.038      342.540       18.021      861.926
08/08/2014  05:18:00      -60.709      -39.290        3.590       49.062       29.129       17.225     2407.039      848.490      296.706        0.440        0.178       72.314        9.873        0.019      342.535       18.013      861.931
08/08/2014  05:19:00      -76.276      -40.889       -1.401       46.588       33.637       17.097     2170.406     1131.440      292.293        0.554        0.180       86.544       18.475        0.046      342.572       18.075      861.946
08/08/2014  05:20:00      -78.836      -37.099       -0.027       37.239       29.225       18.861     1386.760      854.125      355.725        0.509        0.130       87.129       17.873        0.042      342.491       17.938      861.948
08/08/2014  05:21:00      -47.443      -14.338        3.128       28.756       24.932       15.713      826.917      621.600      246.906        0.208        0.085       49.562       11.467        0.054      342.488       17.934      861.948
08/08/2014  05:22:00      -64.420      -36.669        5.341       28.911       23.610       19.040      835.854      557.412      362.536        0.364        0.088       74.125       16.391        0.049      342.512       17.973      861.955
08/08/2014  05:23:00      -11.647      -27.203       12.710       41.193       17.972       18.570     1696.871      322.988      344.833        0.170        0.118       29.591       10.769        0.132      342.542       18.026      861.967
08/08/2014  05:24:00       -4.687      -37.575       -1.111       23.995       13.633        9.397      575.745      185.847       88.307        0.114        0.042       37.866        5.377        0.020      342.637       18.186      861.969
08/08/2014  05:25:00      -23.420      -55.971        0.867       19.420       25.040       18.263      377.154      627.008      333.541        0.251        0.067       60.673       14.017        0.053      342.654       18.215      861.981
08/08/2014  05:26:00      -74.813      -46.492       -3.793       12.137       20.314       10.584      147.295      412.654      112.017        0.422        0.034       88.082        5.400        0.004      342.584       18.101      862.002
08/08/2014  05:27:00      -72.107        1.961        4.612       15.573       14.444       13.464      242.509      208.618      181.273        0.293        0.032       72.133        7.160        0.010      342.616       18.147      862.010
08/08/2014  05:28:00      -58.855      -21.436       -5.158       27.235       19.993       13.423      741.750      399.730      180.169        0.264        0.066       62.637       11.796        0.035      342.615       18.147      862.034
08/08/2014  05:29:00      -75.126      -39.648       -7.437       18.377       15.874       14.167      337.716      251.983      200.702        0.403        0.040       84.946        8.140        0.009      342.607       18.135      862.038
08/08/2014  05:30:00      -32.331      -39.852       -2.487       26.502       21.847       16.925      702.362      477.282      286.456        0.205        0.073       51.317       11.899        0.054      342.683       18.263      862.041
08/08/2014  05:31:00      -93.886      -51.813       -3.578       21.469       17.308       14.689      460.925      299.563      215.771        0.624        0.049      107.234        9.991        0.009      342.633       18.180      862.054
08/08/2014  05:32:00      -74.067      -62.622       -9.886       15.684       12.923       10.647      245.991      166.992      113.367        0.502        0.026       96.992        3.312        0.001      342.677       18.253      862.060
08/08/2014  05:33:00      -64.399      -33.749       -8.581       27.660       15.920       12.915      765.093      253.452      166.792        0.327        0.059       72.706       12.385        0.029      342.626       18.167      862.066
08/08/2014  05:34:00      -35.053      -12.808        3.145       21.678       16.768        9.210      469.922      281.150       84.817        0.112        0.042       37.320       10.634        0.081      342.557       18.051      862.080
08/08/2014  05:35:00      -52.873      -33.014       -3.169       21.117       15.773        9.487      445.924      248.782       90.000        0.234        0.039       62.333       10.277        0.027      342.579       18.088      862.089
08/08/2014  05:36:00      -12.234      -17.287        7.606       23.423       18.609       12.331      548.654      346.310      152.051        0.078        0.052       21.178        6.449        0.093      342.565       18.064      862.089
08/08/2014  05:37:00      -64.869      -16.751       -1.392       20.372       12.142        7.614      415.023      147.429       57.971        0.256        0.031       66.997        8.407        0.016      342.588       18.104      862.087
08/08/2014  05:38:00      -42.009       -8.763       -4.852        9.237        6.333        7.777       85.319       40.109       60.479        0.103        0.009       42.913        5.286        0.015      342.613       18.145      862.084
08/08/2014  05:39:00      -45.433      -22.383       -1.437       23.104       14.114       10.527      533.778      199.197      110.819        0.171        0.042       50.647       10.037        0.039      342.588       18.104      862.094
08/08/2014  05:40:00      -50.400       -2.312       -2.434       17.214       16.536       10.806      296.330      273.423      116.770        0.162        0.034       50.453        5.668        0.013      342.562       18.057      862.108
08/08/2014  05:41:00      -56.397        1.521       -4.489       19.997       11.603        8.318      399.891      134.633       69.194        0.190        0.030       56.418        9.229        0.027      342.490       17.937      862.104
08/08/2014  05:42:00      -79.652      -13.831       -3.080       29.324       20.082       14.737      859.913      403.290      217.182        0.401        0.074       80.844       13.816        0.029      342.451       17.869      862.110
08/08/2014  05:43:00      -66.313      -16.512        2.894       25.120       24.064       13.720      631.036      579.059      188.240        0.304        0.070       68.338       11.822        0.030      342.378       17.746      862.114
08/08/2014  05:44:00      -70.981      -25.924        1.452       29.489       28.162       14.945      869.600      793.085      223.354        0.380        0.094       75.566       14.202        0.035      342.426       17.826      862.107
08/08/2014  05:45:00      -72.134      -16.782       -0.029       25.411       25.555       16.987      645.741      653.066      288.548        0.354        0.079       74.060       14.282        0.037      342.391       17.768      862.104
08/08/2014  05:46:00      -32.576       -8.072        5.847       17.775       16.534       12.276      315.960      273.375      150.706        0.095        0.037       33.561        8.692        0.067      342.301       17.614      862.100
08/08/2014  05:47:00      -64.326       -1.974       -7.578       24.881       13.315       10.476      619.060      177.292      109.746        0.255        0.045       64.357        9.209        0.020      342.384       17.755      862.101
08/08/2014  05:48:00      -53.346      -21.011       -4.089       24.714       13.495       12.610      610.764      182.108      159.009        0.213        0.048       57.335       15.045        0.069      342.384       17.757      862.109
08/08/2014  05:49:00      -65.409      -26.918      -12.273        9.410        9.799        6.609       88.539       96.018       43.685        0.269        0.011       70.731        4.206        0.004      342.475       17.911      862.101
08/08/2014  05:50:00      -38.349      -26.774       -8.620       16.945        9.731        9.424      287.145       94.690       88.818        0.137        0.024       46.770        5.387        0.013      342.547       18.031      862.097
08/08/2014  05:51:00      -26.603      -19.499       -2.954       13.611        9.518       13.297      185.250       90.596      176.817        0.077        0.023       32.984        5.534        0.028      342.598       18.122      862.100
08/08/2014  05:52:00      -24.118      -26.530       -1.122       24.086        8.477        8.249      580.130       71.865       68.049        0.100        0.036       35.854        9.189        0.066      342.701       18.295      862.103
08/08/2014  05:53:00      -61.631      -28.232        0.643       14.717       13.271       10.922      216.596      176.130      119.292        0.255        0.026       67.790        6.895        0.010      342.657       18.219      862.111
08/08/2014  05:54:00      -43.891      -20.515        0.714       29.425       12.684       10.133      865.839      160.873      102.677        0.174        0.056       48.449        7.203        0.022      342.577       18.085      862.113
08/08/2014  05:55:00      -40.683      -14.998       -1.762       19.999        9.345        9.938      399.948       87.320       98.770        0.123        0.029       43.360        4.351        0.010      342.569       18.072      862.124
08/08/2014  05:56:00      -41.422      -21.583        0.217       19.330       12.384        8.028      373.668      153.375       64.452        0.139        0.030       46.708        7.684        0.027      342.576       18.084      862.137
08/08/2014  05:57:00      -20.395      -32.447       -4.476       15.024       10.932       10.180      225.721      119.516      103.642        0.097        0.022       38.324       10.623        0.077      342.740       18.359      862.151
08/08/2014  05:58:00      -37.338       -6.236        3.182       21.269       13.456        8.108      452.350      181.070       65.739        0.107        0.035       37.855        5.245        0.019      342.621       18.159      862.169
08/08/2014  05:59:00      -73.834        1.027       -1.800       11.448        8.266        7.012      131.065       68.322       49.169        0.285        0.012       73.841        4.796        0.004      342.571       18.075      862.182
08/08/2014  06:00:00      -71.749      -10.477       -5.843       21.627       16.785       10.426      467.719      281.752      108.709        0.307        0.043       72.510        6.603        0.008      342.525       17.996      862.190
08/08/2014  06:01:00      -92.335        7.968       -7.781       24.033       11.706       11.573      577.606      137.031      133.932        0.475        0.042       92.678       12.421        0.018      342.408       17.796      862.209
08/08/2014  06:02:00      -73.256       10.985      -13.994       27.078       10.187        9.836      733.238      103.767       96.739        0.331        0.047       74.075        5.856        0.006      342.391       17.768      862.223
08/08/2014  06:03:00      -45.958       14.996       -2.081       13.245        6.153        6.999      175.425       37.855       48.985        0.130        0.013       48.343        7.231        0.022      342.590       18.106      862.234
08/08/2014  06:04:00      -31.860       26.111       -5.946       12.014       11.463        5.882      144.347      131.395       34.602        0.102        0.016       41.193        3.923        0.009      342.757       18.389      862.245
08/08/2014  06:05:00      -13.587       14.705       -3.274        7.009       19.404        9.605       49.132      376.511       92.250        0.046        0.026       20.021       10.739        0.288      342.616       18.151      862.253
08/08/2014  06:06:00      -18.332        5.638        0.014       10.392        7.802        7.366      107.983       60.868       54.258        0.030        0.011       19.180        6.238        0.106      342.649       18.209      862.262
08/08/2014  06:07:00       -5.052      -10.762       -1.695        8.655        5.702        5.288       74.902       32.516       27.959        0.014        0.007       11.889        4.060        0.117      342.537       18.017      862.269
08/08/2014  06:08:00       -0.056       -0.376        3.059        4.049        2.753        4.078       16.390        7.581       16.632        0.003        0.002        0.380        1.390       13.370      342.490       17.936      862.270
08/08/2014  06:09:00        6.847        5.641        3.258        6.429        5.780        4.798       41.333       33.410       23.017        0.009        0.005        8.872        2.749        0.096      342.525       17.996      862.270
08/08/2014  06:10:00        4.994        6.078        4.355        5.030        5.246        3.465       25.306       27.518       12.003        0.007        0.003        7.866        1.661        0.045      342.594       18.113      862.270
08/08/2014  06:11:00       -2.956        8.299        1.497        4.140        5.983        4.752       17.136       35.793       22.581        0.008        0.004        8.810        3.074        0.122      342.624       18.167      862.271
08/08/2014  06:12:00        6.457       15.531        3.502        4.151        4.789        4.404       17.232       22.931       19.392        0.018        0.003       16.820        3.246        0.037      342.655       18.214      862.275
08/08/2014  06:13:00        5.319       14.595        2.878        4.531        3.508        5.624       20.533       12.309       31.632        0.016        0.003       15.534        4.030        0.067      342.631       18.171      862.272
08/08/2014  06:14:00        1.468        2.179       -1.615        2.773        4.896        1.725        7.688       23.975        2.977        0.002        0.002        2.628        1.143        0.189      342.584       18.096      862.273
08/08/2014  06:15:00        2.398        4.163        4.278        4.746        3.416        4.312       22.525       11.669       18.594        0.005        0.003        4.804        2.473        0.265      342.590       18.105      862.272
08/08/2014  06:16:00        0.140        4.563        3.500        4.107        5.315        2.526       16.872       28.252        6.380        0.004        0.003        4.565        2.064        0.204      342.594       18.111      862.281
08/08/2014  06:17:00      -20.431       -7.768        0.869       11.261        6.995        6.841      126.817       48.923       46.795        0.035        0.011       21.858        4.524        0.043      342.529       18.004      862.287
08/08/2014  06:18:00      -46.263      -18.408       -3.746        9.656        9.944        7.201       93.240       98.877       51.848        0.137        0.012       49.791        3.898        0.006      342.464       17.891      862.292
08/08/2014  06:19:00      -42.968      -24.766       -0.306       15.590       11.155        9.349      243.046      124.437       87.412        0.146        0.023       49.595        8.914        0.032      342.484       17.928      862.297
08/08/2014  06:20:00      -37.944      -15.375        4.433       22.832       18.251       14.161      521.306      333.089      200.529        0.138        0.053       40.941       12.471        0.093      342.534       18.011      862.293
08/08/2014  06:21:00      -15.725      -11.725        7.473       16.765       10.547       13.985      281.081      111.234      195.578        0.051        0.029       19.615        8.256        0.177      342.492       17.939      862.292
08/08/2014  06:22:00      -22.737      -14.380       -1.085       18.763       10.096        9.309      352.058      101.936       86.649        0.063        0.027       26.903        6.992        0.068      342.531       18.006      862.301
08/08/2014  06:23:00      -47.975      -42.390       -4.580       20.968       20.580       10.318      439.652      423.526      106.466        0.254        0.048       64.020        8.939        0.019      342.590       18.105      862.314
08/08/2014  06:24:00      -51.322      -34.752        4.009       22.791       13.154       13.707      519.415      173.020      187.892        0.237        0.044       61.981       11.443        0.034      342.618       18.154      862.328
08/08/2014  06:25:00      -53.930      -47.046        3.708       29.579       18.080       15.779      874.922      326.874      248.986        0.329        0.073       71.567       14.892        0.043      342.637       18.186      862.341
08/08/2014  06:26:00      -38.543      -25.073       11.800       29.253       29.696       19.374      855.757      881.836      375.361        0.218        0.106       45.981       17.139        0.139      342.629       18.172      862.352
08/08/2014  06:27:00      -67.693      -49.702        2.479       39.951       27.098       19.570     1596.081      734.291      382.999        0.489        0.136       83.980       20.211        0.058      342.640       18.192      862.363
08/08/2014  06:28:00      -65.293      -55.194        5.284       41.296       33.950       20.710     1705.361     1152.626      428.918        0.531        0.164       85.496       18.433        0.046      342.624       18.164      862.375
08/08/2014  06:29:00      -69.023      -58.864        0.909       37.418       30.227       20.272     1400.087      913.677      410.934        0.548        0.136       90.715       17.794        0.038      342.595       18.114      862.388
08/08/2014  06:30:00      -58.552      -49.754        1.521       27.861       23.883       14.740      776.219      570.379      217.257        0.373        0.078       76.836        9.218        0.014      342.615       18.148      862.396
08/08/2014  06:31:00      -32.220      -16.451        2.696       25.729       16.270       12.591      661.956      264.719      158.545        0.120        0.054       36.177       11.230        0.096      342.604       18.130      862.389
08/08/2014  06:32:00       -2.007      -28.224       10.972       15.682       16.118       11.643      245.931      259.786      135.571        0.078        0.032       28.295        4.896        0.030      342.693       18.281      862.384
08/08/2014  06:33:00      -11.613      -19.214        9.153       20.550       15.034       14.296      422.295      226.035      204.386        0.072        0.043       22.451       13.018        0.336      342.677       18.254      862.377
08/08/2014  06:34:00      -33.024      -34.573        5.860       38.985       26.887       15.303     1519.819      722.905      234.175        0.240        0.124       47.810       17.459        0.133      342.664       18.230      862.376
08/08/2014  06:35:00      -36.185      -45.868        6.174       38.839       22.336       18.320     1508.492      498.918      335.629        0.290        0.117       58.423       12.423        0.045      342.645       18.198      862.370
08/08/2014  06:36:00      -31.885      -22.977        3.947       29.874       23.232       18.226      892.459      539.730      332.175        0.166        0.088       39.301       14.913        0.144      342.635       18.183      862.360
08/08/2014  06:37:00       -0.093      -40.088        1.083       26.902       24.092       15.940      723.737      580.448      254.093        0.158        0.078       40.088       10.710        0.071      342.644       18.197      862.362
08/08/2014  06:38:00      -15.208      -20.838        7.311       16.239       24.495       11.176      263.697      599.994      124.904        0.085        0.049       25.797        4.483        0.030      342.626       18.168      862.362
08/08/2014  06:39:00      -25.002      -14.953        3.985       17.122       15.326       12.760      293.155      234.885      162.810        0.078        0.035       29.132        8.352        0.082      342.584       18.096      862.363
08/08/2014  06:40:00      -51.271      -17.396        5.979       24.527       15.103       11.667      601.587      228.103      136.125        0.197        0.048       54.142        9.017        0.028      342.563       18.059      862.365
08/08/2014  06:41:00      -36.253      -26.621       -0.954       21.852       12.332        9.170      477.502      152.087       84.093        0.137        0.036       44.977        9.097        0.041      342.596       18.116      862.361
08/08/2014  06:42:00      -60.397      -11.126       -9.139       12.455       10.085        7.282      155.121      101.709       53.029        0.208        0.015       61.413        5.468        0.008      342.538       18.019      862.354
08/08/2014  06:43:00      -56.174      -28.356       -6.539       11.716        8.780        8.123      137.269       77.095       65.981        0.214        0.014       62.926        5.234        0.007      342.614       18.145      862.342
08/08/2014  06:44:00      -66.232       -9.470       -2.187       16.651       19.946       12.011      277.243      397.835      144.270        0.265        0.041       66.906        9.295        0.019      342.524       17.994      862.333
08/08/2014  06:45:00      -76.126        0.113       -2.473       20.158       13.590       14.238      406.351      184.701      202.720        0.330        0.040       76.127       14.001        0.034      342.420       17.817      862.329
08/08/2014  06:46:00      -80.217       -5.687      -12.935       15.112        9.869        7.196      228.361       97.401       51.777        0.351        0.019       80.419        2.874        0.001      342.481       17.921      862.334
08/08/2014  06:47:00      -68.067       -6.796       -8.505       12.019       14.659        7.029      144.455      214.888       49.412        0.258        0.020       68.405        3.466        0.003      342.496       17.949      862.342
08/08/2014  06:48:00      -57.665      -19.007        2.913       20.443       17.910        9.526      417.920      320.775       90.749        0.226        0.041       60.717        9.129        0.023      342.512       17.975      862.350
08/08/2014  06:49:00      -19.318      -14.634        3.897       20.270       21.381       10.878      410.854      457.166      118.324        0.079        0.049       24.235        9.713        0.161      342.639       18.190      862.352
08/08/2014  06:50:00      -13.969       -9.596        6.850       20.134       11.677        9.051      405.359      136.348       81.915        0.048        0.031       16.948       10.964        0.419      342.633       18.180      862.373
08/08/2014  06:51:00       -6.657       -3.790        7.638       17.401        9.033        8.819      302.787       81.588       77.781        0.029        0.023        7.660        8.975        1.373      342.784       18.437      862.391
08/08/2014  06:52:00      -62.598      -35.572        3.646       30.895       25.902       15.868      954.525      670.935      251.787        0.354        0.094       71.999       14.415        0.040      342.608       18.135      862.407
08/08/2014  06:53:00      -50.941      -47.330        8.070       31.201       28.843       19.159      973.487      831.932      367.083        0.354        0.109       69.535       15.567        0.050      342.654       18.215      862.413
08/08/2014  06:54:00      -49.884      -30.516        3.477       36.224       22.460       12.992     1312.197      504.454      168.780        0.271        0.099       58.477       14.212        0.059      342.724       18.333      862.436
08/08/2014  06:55:00      -74.472      -37.309        1.799       35.618       19.742       20.363     1268.629      389.737      414.656        0.451        0.104       83.295       19.118        0.053      342.699       18.289      862.447
08/08/2014  06:56:00      -31.008      -27.911        5.214       28.369       40.564       15.112      804.792     1645.446      228.366        0.222        0.134       41.720       13.560        0.106      342.762       18.397      862.449
08/08/2014  06:57:00      -92.936       18.966       -1.460       32.132       12.988       16.755     1032.488      168.685      280.730        0.524        0.074       94.852       19.872        0.044      342.582       18.092      862.447
08/08/2014  06:58:00      -91.937        3.091       -7.928       21.042       14.217       14.962      442.774      202.126      223.863        0.470        0.043       91.989       10.413        0.013      342.501       17.954      862.448
08/08/2014  06:59:00      -75.555       -1.123        2.084       32.685       20.129       15.504     1068.316      405.160      240.373        0.371        0.086       75.563       19.781        0.069      342.514       17.978      862.443
08/08/2014  07:00:00      -54.311       -4.046        1.266       21.857       21.165       13.071      477.709      447.940      170.858        0.203        0.055       54.461        8.849        0.026      342.532       18.007      862.440
08/08/2014  07:01:00      -68.324      -23.746       -5.098       19.364       19.495       13.668      374.959      380.060      186.823        0.310        0.047       72.332        9.230        0.016      342.616       18.150      862.453
08/08/2014  07:02:00      -61.116      -27.158       -0.332       17.014       18.530       11.776      289.465      343.343      138.682        0.262        0.039       66.879        8.466        0.016      342.680       18.257      862.459
08/08/2014  07:03:00      -56.333      -15.854       -2.838       21.319       12.483        8.882      454.481      155.819       78.897        0.206        0.034       58.522        9.595        0.027      342.668       18.238      862.455
08/08/2014  07:04:00      -42.810        1.561       -0.342       19.931       14.471       10.602      397.229      209.419      112.398        0.128        0.036       42.838       12.462        0.085      342.735       18.353      862.468
08/08/2014  07:05:00      -69.638        9.067       -2.394       17.514       12.870       11.054      306.737      165.642      122.192        0.277        0.030       70.225        8.581        0.015      342.691       18.277      862.478
08/08/2014  07:06:00      -43.728       -3.549        0.410       19.236       14.039       10.510      370.015      197.082      110.454        0.130        0.034       43.871        9.620        0.048      342.714       18.318      862.478
08/08/2014  07:07:00      -27.869       -2.925        1.740       13.205       13.574       11.033      174.359      184.257      121.720        0.063        0.024       28.022        5.367        0.037      342.835       18.522      862.484
08/08/2014  07:08:00      -48.788        4.146      -11.216       12.181       15.611        9.617      148.388      243.689       92.478        0.150        0.024       48.963        5.835        0.014      342.778       18.425      862.481
08/08/2014  07:09:00      -45.965      -28.690       -7.627       10.544       12.570       10.399      111.180      157.999      108.136        0.169        0.019       54.184        5.039        0.009      342.833       18.520      862.475
08/08/2014  07:10:00      -52.458      -17.278        0.146       16.489       15.219       13.525      271.892      231.619      182.937        0.187        0.034       55.231        8.454        0.023      342.827       18.509      862.481
08/08/2014  07:11:00      -52.679      -28.746       -9.403       18.276       14.867       12.839      334.015      221.029      164.836        0.220        0.036       60.011        6.795        0.013      342.853       18.556      862.480
08/08/2014  07:12:00      -69.821      -34.566       -6.955       16.628       20.332       13.432      276.476      413.401      180.420        0.349        0.044       77.909        6.714        0.007      342.837       18.526      862.483
08/08/2014  07:13:00      -73.704      -16.818       -6.156       11.080       14.707        8.756      122.771      216.289       76.661        0.308        0.021       75.598        4.241        0.003      342.825       18.507      862.487
08/08/2014  07:14:00      -62.502      -28.514       -3.055       15.693       17.308       12.825      246.286      299.575      164.478        0.272        0.036       68.699       10.301        0.022      342.873       18.588      862.469
08/08/2014  07:15:00      -49.590      -19.147       -5.242       24.300       18.312       10.156      590.489      335.348      103.138        0.194        0.051       53.158        7.403        0.019      342.897       18.628      862.471
08/08/2014  07:16:00      -36.112      -32.006       -2.539       21.892       16.552       17.200      479.272      273.962      295.833        0.169        0.052       48.254       12.681        0.069      342.939       18.698      862.470
08/08/2014  07:17:00      -41.513      -28.030        0.858       24.630       13.307       11.508      606.656      177.065      132.424        0.171        0.046       50.090       15.602        0.097      343.013       18.827      862.477
08/08/2014  07:18:00      -39.093      -17.290       -4.712       17.685       22.379       11.074      312.753      500.815      122.631        0.139        0.047       42.746        8.108        0.036      342.959       18.736      862.482
08/08/2014  07:19:00      -31.209      -11.396        1.224       20.362        9.589        9.549      414.607       91.940       91.182        0.085        0.030       33.225        8.170        0.060      343.051       18.892      862.484
08/08/2014  07:20:00      -37.132      -10.142       -3.019       21.923       10.742        8.890      480.620      115.389       79.035        0.108        0.034       38.492        9.661        0.063      343.035       18.863      862.495
08/08/2014  07:21:00      -54.465      -16.571       -8.471        9.153        8.066        6.689       83.779       65.066       44.746        0.175        0.010       56.930        4.452        0.006      343.067       18.919      862.491
08/08/2014  07:22:00      -55.800      -19.110       -8.700        5.790        5.732        5.138       33.518       32.859       26.397        0.182        0.005       58.981        2.175        0.001      343.096       18.966      862.502
08/08/2014  07:23:00      -51.098      -28.204       -2.431        6.920        7.729        7.040       47.892       59.734       49.559        0.178        0.008       58.365        2.925        0.003      343.131       19.026      862.509
08/08/2014  07:24:00      -39.627      -23.538        4.635       25.123       14.483       13.904      631.166      209.765      193.319        0.159        0.052       46.090        9.200        0.040      343.227       19.190      862.520
08/08/2014  07:25:00      -41.341      -47.467        4.606       25.926       23.034       18.278      672.165      530.548      334.071        0.276        0.077       62.946       13.940        0.049      343.250       19.230      862.529
08/08/2014  07:26:00      -63.181      -60.973       -3.441       16.230       17.125       12.301      263.406      293.264      151.319        0.421        0.035       87.804        9.578        0.012      343.204       19.152      862.536
08/08/2014  07:27:00      -71.792      -40.556       -4.161       10.131       10.245        7.298      102.632      104.969       53.261        0.354        0.013       82.455        3.824        0.002      343.310       19.330      862.528
08/08/2014  07:28:00      -48.242      -47.558       -3.986       15.402       12.948        7.401      237.229      167.645       54.781        0.253        0.023       67.742        5.583        0.007      343.294       19.302      862.532
08/08/2014  07:29:00      -35.681      -27.454       -0.215       11.331       10.964        7.542      128.382      120.201       56.884        0.117        0.015       45.021        4.344        0.009      343.317       19.344      862.531
08/08/2014  07:30:00      -48.894      -16.704        0.012       13.074       15.730        9.041      170.940      247.424       81.736        0.158        0.025       51.668        6.049        0.014      343.335       19.373      862.535
08/08/2014  07:31:00      -55.659      -25.741       -1.031       10.615       11.076        6.077      112.682      122.668       36.930        0.202        0.014       61.323        4.077        0.004      343.378       19.448      862.534
08/08/2014  07:32:00      -17.143      -20.457        3.535       19.937       11.810        9.159      397.465      139.483       83.892        0.067        0.031       26.691        7.253        0.074      343.465       19.596      862.547
08/08/2014  07:33:00      -32.853      -36.703        1.833       17.652       19.843        8.358      311.576      393.754       69.861        0.160        0.039       49.259        7.875        0.026      343.496       19.647      862.556
08/08/2014  07:34:00      -27.988      -17.127        5.099       18.297       12.788        9.898      334.773      163.543       97.965        0.085        0.030       32.813        9.967        0.092      343.530       19.706      862.562
08/08/2014  07:35:00      -16.937      -49.142        1.032       20.336       16.099       11.820      413.555      259.166      139.702        0.176        0.041       51.979       11.420        0.048      343.508       19.669      862.572
08/08/2014  07:36:00      -23.801      -41.916       -1.508       12.360       15.604        9.635      152.781      243.492       92.825        0.141        0.024       48.202        5.614        0.014      343.549       19.736      862.582
08/08/2014  07:37:00      -35.334      -71.752      -17.826       12.025        9.396        7.617      144.609       88.292       58.012        0.350        0.015       79.980        3.421        0.002      343.573       19.780      862.583
08/08/2014  07:38:00      -48.681      -82.033      -12.043       27.991       28.108       16.214      783.512      790.076      262.902        0.554        0.092       95.390       12.075        0.016      343.549       19.739      862.598
08/08/2014  07:39:00      -52.147     -124.273       -5.555       23.993       29.884       20.130      575.643      893.037      405.197        1.003        0.094      134.770       21.933        0.026      343.530       19.703      862.606
08/08/2014  07:40:00      -63.410      -86.025        0.977       27.980       35.634       23.032      782.872     1269.790      530.473        0.700        0.129      106.870       20.308        0.036      343.545       19.731      862.613
08/08/2014  07:41:00      -78.515      -73.174       -1.905       29.740       28.329       20.575      884.448      802.552      423.332        0.682        0.106      107.327       18.146        0.029      343.528       19.705      862.622
08/08/2014  07:42:00      -37.920      -87.734        2.930       20.167       24.079       20.011      406.711      579.775      400.429        0.527        0.069       95.578       14.279        0.022      343.579       19.791      862.625
08/08/2014  07:43:00       13.301      -52.503        6.858       22.685       33.555       16.596      514.601     1125.943      275.430        0.245        0.096       54.162        7.334        0.018      343.778       20.129      862.622
08/08/2014  07:44:00      -15.544      -70.396        5.974       29.651       38.884       16.177      879.155     1511.963      261.709        0.394        0.133       72.092       12.056        0.028      343.730       20.049      862.617
08/08/2014  07:45:00      -68.425      -94.383       -6.243       23.454       27.190       17.296      550.099      739.281      299.167        0.761        0.079      116.576        9.072        0.006      343.633       19.882      862.618
08/08/2014  07:46:00      -36.609      -56.915      -11.401       23.074       24.826       15.890      532.394      616.336      252.500        0.306        0.070       67.672       10.527        0.024      343.754       20.088      862.605
08/08/2014  07:47:00      -39.059       -2.109        3.310       17.585       12.652       14.413      309.217      160.065      207.741        0.111        0.034       39.116        9.253        0.056      343.739       20.062      862.616
08/08/2014  07:48:00      -11.914      -16.511       -5.721       10.458        9.312        8.182      109.360       86.719       66.947        0.036        0.013       20.360        5.354        0.069      343.805       20.176      862.613
08/08/2014  07:49:00      -18.041      -19.575        0.537       11.251       11.791        8.642      126.592      139.033       74.680        0.052        0.017       26.620        8.180        0.094      343.881       20.305      862.615
08/08/2014  07:50:00      -15.793      -14.760       14.172       27.768       17.521       17.459      771.087      306.983      304.814        0.103        0.069       21.616       18.632        0.743      344.071       20.629      862.620
08/08/2014  07:51:00      -39.532      -42.665       12.067       31.225       23.040       20.302      975.008      530.845      412.169        0.272        0.096       58.164       15.874        0.074      343.832       20.225      862.606
08/08/2014  07:52:00      -30.065      -40.690        4.686        9.293       17.662        9.841       86.359      311.940       96.839        0.154        0.025       50.593        8.712        0.030      343.885       20.312      862.598
08/08/2014  07:53:00      -27.852       14.975        1.664        7.681       10.472        9.729       59.002      109.652       94.658        0.063        0.013       31.622        7.873        0.062      343.992       20.493      862.589
08/08/2014  07:54:00      -15.593      -20.329       13.583       26.433       27.565       21.744      698.704      759.823      472.791        0.139        0.097       25.621       18.834        0.540      344.190       20.833      862.595
08/08/2014  07:55:00       -8.273      -52.104       -2.766       19.367       20.747       18.631      375.076      430.430      347.112        0.197        0.058       52.756       10.321        0.038      344.180       20.817      862.596
08/08/2014  07:56:00      -25.319      -63.389      -10.823       25.886       25.698       17.790      670.100      660.394      316.467        0.321        0.082       68.258        8.493        0.015      344.138       20.746      862.613
08/08/2014  07:57:00      -17.000      -21.533       30.779       20.193       25.205       17.396      407.775      635.285      302.617        0.152        0.067       27.435       12.350        0.203      344.447       21.273      862.608
08/08/2014  07:58:00      -25.649      -22.169       26.227       22.988       38.348       18.852      528.438     1470.569      355.385        0.210        0.118       33.902       11.528        0.116      344.389       21.175      862.613
08/08/2014  07:59:00      -15.405        8.556       -6.130       15.883       12.514       13.158      252.272      156.595      173.143        0.046        0.029       17.622        9.005        0.261      344.240       20.919      862.609
08/08/2014  08:00:00      -34.788      -39.518       -4.991       31.651       35.002       17.221     1001.758     1225.125      296.574        0.266        0.126       52.649       15.540        0.087      344.106       20.690      862.614
08/08/2014  08:01:00      -77.818      -38.946        4.201       27.897       33.742       16.474      778.260     1138.520      271.390        0.489        0.109       87.020       16.002        0.034      344.088       20.658      862.612
08/08/2014  08:02:00      -58.795      -13.421        3.181       20.289       22.100       13.360      411.630      488.401      178.497        0.236        0.054       60.307       10.738        0.032      344.100       20.680      862.621
08/08/2014  08:03:00      -12.962       16.180       12.031       21.763       23.288       16.075      473.616      542.327      258.409        0.092        0.064       20.732       12.112        0.341      344.627       21.580      862.622
08/08/2014  08:04:00       -0.573       30.284       20.256       22.328       21.639       28.267      498.530      468.254      799.040        0.155        0.088       30.289       16.576        0.299      344.576       21.493      862.613
08/08/2014  08:05:00       -7.371        1.713       37.021       17.518       26.886       24.479      306.866      722.845      599.210        0.153        0.081        7.567       22.035        8.479      344.938       22.112      862.621
08/08/2014  08:06:00      -33.095      -22.321       -2.665       25.395       17.460       12.685      644.919      304.846      160.908        0.136        0.056       39.919       12.806        0.103      344.159       20.781      862.625
08/08/2014  08:07:00      -23.498       -0.819       10.968       24.239       12.691       15.299      587.514      161.072      234.057        0.083        0.049       23.512       14.033        0.356      344.571       21.485      862.634
08/08/2014  08:08:00      -29.476      -23.665        1.803       24.652       18.142       16.707      607.727      329.139      279.139        0.132        0.061       37.800       12.666        0.112      344.341       21.092      862.639
08/08/2014  08:09:00      -32.910       -4.986        6.490       15.320       17.188       10.517      234.693      295.416      110.598        0.090        0.032       33.285        8.270        0.062      344.177       20.810      862.650
08/08/2014  08:10:00      -34.877       -2.478       -0.649       11.456       12.867        9.034      131.240      165.556       81.619        0.080        0.019       34.965        3.848        0.012      344.162       20.785      862.656
08/08/2014  08:11:00      -10.374       -4.527       15.073       24.486       19.012       21.321      599.570      361.471      454.592        0.089        0.071       11.319       19.018        2.823      344.779       21.841      862.653
08/08/2014  08:12:00      -15.256       -8.076       14.834       25.522       19.053       18.819      651.380      363.024      354.153        0.094        0.068       17.262       16.073        0.867      344.903       22.053      862.659
08/08/2014  08:13:00      -76.639      -12.195       -3.388       31.823       20.307       21.526     1012.720      412.384      463.372        0.396        0.094       77.603       17.990        0.054      344.304       21.028      862.657
08/08/2014  08:14:00      -38.564       12.392        6.589       29.398       15.826       15.911      864.255      250.460      253.167        0.153        0.068       40.507       13.386        0.109      344.461       21.297      862.662
08/08/2014  08:15:00      -39.165      -14.872       -0.790       19.599       14.010        8.997      384.138      196.271       80.943        0.121        0.033       41.894        6.225        0.022      344.316       21.050      862.657
08/08/2014  08:16:00      -22.756       -5.396        4.195       12.402        9.182        9.958      153.811       84.314       99.163        0.045        0.017       23.387        8.629        0.136      344.383       21.163      862.663
08/08/2014  08:17:00      -38.266      -11.994        5.521       27.510       21.664       17.988      756.802      469.338      323.551        0.159        0.077       40.102       17.437        0.189      344.512       21.384      862.659
08/08/2014  08:18:00      -48.903      -71.973       -2.133       38.089       48.183       23.153     1450.783     2321.575      536.057        0.594        0.215       87.014       22.039        0.064      344.312       21.042      862.663
08/08/2014  08:19:00      -61.212      -93.860       -7.453       45.986       29.819       21.369     2114.697      889.167      456.638        0.804        0.173      112.056       17.455        0.024      344.222       20.889      862.662
08/08/2014  08:20:00      -71.576      -54.144       -0.894       28.963       32.649       19.225      838.842     1065.984      369.591        0.516        0.114       89.747       16.194        0.033      344.200       20.849      862.653
08/08/2014  08:21:00      -54.721      -18.491       -4.057       19.880       24.345       11.581      395.198      592.685      134.124        0.224        0.056       57.761        6.149        0.011      344.198       20.847      862.648
08/08/2014  08:22:00      -47.571      -29.255        0.122       23.103       20.817       12.182      533.758      433.355      148.399        0.212        0.056       55.846        7.701        0.019      344.231       20.904      862.645
08/08/2014  08:23:00      -24.845      -36.327       -4.898       26.530       29.222       16.038      703.856      853.932      257.224        0.189        0.091       44.011       13.254        0.091      344.411       21.211      862.643
08/08/2014  08:24:00      -10.477      -68.730       -2.129       29.746       16.474       14.317      884.849      271.396      204.974        0.310        0.068       69.524       16.449        0.056      344.223       20.892      862.650
08/08/2014  08:25:00      -32.543      -26.570       -1.180       22.797       17.301       11.999      519.718      299.313      143.983        0.136        0.048       42.012        7.463        0.032      344.330       21.072      862.647
08/08/2014  08:26:00      -12.555      -49.017       -0.777        9.234       17.679        9.403       85.275      312.543       88.413        0.152        0.024       50.599        8.768        0.030      344.389       21.173      862.650
08/08/2014  08:27:00      -54.783       -5.993       -2.243       25.674       22.960       14.438      659.161      527.168      208.456        0.222        0.070       55.110       11.681        0.045      344.394       21.181      862.650
08/08/2014  08:28:00      -32.010       -8.281        7.987       30.032       21.644       16.780      901.922      468.473      281.571        0.140        0.083       33.064       16.127        0.238      344.848       21.960      862.659
08/08/2014  08:29:00      -12.674       -2.689       12.961       16.703       17.203       15.963      278.983      295.948      254.810        0.058        0.041       12.956       11.010        0.722      344.882       22.017      862.674
08/08/2014  08:30:00      -12.672        6.132       10.469       19.064       14.781       13.322      363.448      218.478      177.478        0.053        0.038       14.078       10.865        0.596      344.909       22.062      862.682
08/08/2014  08:31:00       -8.342       10.846       17.928       17.454       13.112       14.198      304.654      171.931      201.582        0.059        0.034       13.683       10.282        0.565      345.120       22.425      862.693
08/08/2014  08:32:00        1.754       35.367        7.525       18.591       22.731       24.573      345.607      516.718      603.811        0.139        0.073       35.410       11.276        0.101      344.904       22.054      862.695
08/08/2014  08:33:00       -1.837       37.113       38.848       19.322       36.939       16.969      373.323     1364.507      287.950        0.246        0.101       37.158        8.826        0.056      345.049       22.303      862.701
08/08/2014  08:34:00      -34.173       23.823       20.823       28.932       30.852       22.300      837.069      951.862      497.300        0.223        0.114       41.658       16.723        0.161      344.938       22.112      862.704
08/08/2014  08:35:00      -14.320       32.282       76.788       21.244       36.474       23.020      451.306     1330.368      529.927        0.473        0.116       35.315       21.328        0.365      345.277       22.693      862.702
08/08/2014  08:36:00      -13.444       -6.430       33.078       23.152       29.004       27.286      536.011      841.242      744.541        0.172        0.106       14.903       23.869        2.565      345.275       22.691      862.704
08/08/2014  08:37:00      -19.507      -19.111       -0.406       21.964       18.010       12.706      482.413      324.342      161.454        0.086        0.048       27.309       13.906        0.259      344.821       21.912      862.696
08/08/2014  08:38:00       -1.772       -2.600       31.661       15.806       18.904       21.202      249.820      357.349      449.517        0.103        0.053        3.146       13.881       19.467      345.804       23.597      862.694
08/08/2014  08:39:00        2.390       23.032       57.416       25.468       57.703       37.871      648.619     3329.677     1434.183        0.462        0.271       23.156       39.541        2.916      345.405       22.913      862.681
08/08/2014  08:40:00       13.789       29.245       58.889       30.991       42.810       21.626      960.469     1832.732      467.700        0.389        0.163       32.333       24.335        0.566      345.345       22.810      862.681
08/08/2014  08:41:00       16.355       -2.384       28.435       32.120       61.824       41.049     1031.687     3822.158     1684.990        0.381        0.327       16.528       44.441        7.230      345.078       22.354      862.675
08/08/2014  08:42:00       56.730        9.030       36.235       48.471       45.424       35.109     2349.403     2063.349     1232.625        0.513        0.282       57.444       33.149        0.333      344.940       22.116      862.662
08/08/2014  08:43:00       80.604       29.218       22.996       37.130       50.826       33.628     1378.658     2583.307     1130.870        0.649        0.255       85.736       34.880        0.166      344.596       21.528      862.663
08/08/2014  08:44:00        3.258        5.790       14.636       26.748       31.370       23.662      715.435      984.072      559.890        0.126        0.113        6.643       16.262        5.992      345.223       22.600      862.650
08/08/2014  08:45:00       18.413        1.741       47.410       29.070       52.576       30.773      845.059     2764.220      946.982        0.357        0.228       18.495       32.197        3.030      345.477       23.037      862.644
08/08/2014  08:46:00        9.701       10.916       20.784       32.007       61.640       34.702     1024.423     3799.503     1204.203        0.334        0.301       14.604       31.618        4.687      345.208       22.574      862.633
08/08/2014  08:47:00       -2.699      -14.218       45.265       27.006       37.286       25.588      729.307     1390.270      654.748        0.252        0.139       14.472       11.273        0.607      345.589       23.228      862.620
08/08/2014  08:48:00      -23.836      -25.376        6.377       27.776       29.452       21.631      771.530      867.437      467.891        0.168        0.105       34.815       14.086        0.164      345.033       22.271      862.623
08/08/2014  08:49:00       39.972      -31.043       19.975       48.504       55.779       38.888     2352.619     3111.351     1512.278        0.497        0.349       50.611       37.274        0.542      345.431       22.958      862.614
08/08/2014  08:50:00       20.067       -1.361       35.762       33.107       38.011       29.003     1096.100     1444.860      841.176        0.253        0.169       20.113       26.186        1.695      345.321       22.769      862.616
08/08/2014  08:51:00        0.306      -14.724       16.454       25.934       26.621       32.342      672.591      708.678     1045.977        0.146        0.121       14.727       23.823        2.617      345.441       22.974      862.612
08/08/2014  08:52:00       31.774      -68.211        7.554       38.511       40.518       29.488     1483.071     1641.695      869.545        0.486        0.200       75.249       26.862        0.127      345.288       22.711      862.613
08/08/2014  08:53:00        9.491      -41.393       35.515       38.938       59.375       30.645     1516.161     3525.371      939.087        0.452        0.299       42.467       20.476        0.232      345.465       23.014      862.606
08/08/2014  08:54:00       27.428       -2.413       41.076       42.894       41.720       40.263     1839.915     1740.543     1621.122        0.382        0.260       27.534       33.771        1.504      345.609       23.263      862.604
08/08/2014  08:55:00       45.444       10.927       38.429       37.374       31.770       26.090     1396.791     1009.338      680.683        0.337        0.154       46.740       18.476        0.156      345.368       22.849      862.611
08/08/2014  08:56:00       71.003       -4.785       25.825       22.761       25.337       27.909      518.048      641.971      778.893        0.383        0.097       71.164       21.710        0.093      344.842       21.948      862.608
08/08/2014  08:57:00       22.920        9.197        7.259       29.333       46.721       30.261      860.439     2182.895      915.707        0.231        0.198       24.697       12.928        0.274      345.134       22.447      862.597
08/08/2014  08:58:00        4.840       39.580       54.657       22.645       42.489       25.810      512.791     1805.294      666.178        0.378        0.149       39.875       22.378        0.315      345.479       23.039      862.583
08/08/2014  08:59:00       24.728       43.298       59.544       32.318       21.996       25.865     1044.436      483.820      669.015        0.411        0.110       49.861       14.247        0.082      345.120       22.425      862.579
08/08/2014  09:00:00       39.143       24.182       12.497       21.242       23.709       19.827      451.234      562.093      393.111        0.184        0.070       46.010       18.402        0.160      345.055       22.312      862.562
08/08/2014  09:01:00       26.212       46.727      -19.587       18.930       36.206       26.598      358.339     1310.843      707.427        0.281        0.119       53.577       23.290        0.189      345.050       22.305      862.554
08/08/2014  09:02:00       -6.039       27.358      -20.189       24.707       24.008       11.639      610.416      576.368      135.458        0.126        0.066       28.016        9.285        0.110      345.083       22.362      862.543
08/08/2014  09:03:00      -26.014       47.377      -16.321       32.435       24.860       13.091     1052.055      618.020      171.365        0.251        0.092       54.050       10.136        0.035      344.972       22.169      862.536
08/08/2014  09:04:00      -22.618      -14.155       12.900       37.578       27.825       13.697     1412.087      774.242      187.606        0.163        0.119       26.682       13.599        0.260      345.064       22.329      862.530
08/08/2014  09:05:00      -77.455       17.057      -14.512       14.346       19.772       12.989      205.821      390.916      168.723        0.363        0.038       79.310        4.985        0.004      344.847       21.957      862.526
08/08/2014  09:06:00      -68.304      -11.302       -4.551       17.483       12.157        9.660      305.639      147.795       93.313        0.268        0.027       69.232        5.081        0.005      344.891       22.033      862.516
08/08/2014  09:07:00      -45.084      -23.783        0.959       24.215       19.221       13.772      586.352      369.434      189.661        0.187        0.057       50.973        7.578        0.022      344.965       22.159      862.506
08/08/2014  09:08:00      -31.358      -38.169        2.446       35.529       32.745       23.554     1262.337     1072.258      554.775        0.267        0.144       49.399       19.438        0.155      345.318       22.763      862.488
08/08/2014  09:09:00      -18.757      -19.019       18.895       23.808       26.867       25.026      566.841      721.811      626.324        0.149        0.096       26.712        8.253        0.095      345.634       23.304      862.476
08/08/2014  09:10:00      -27.589      -31.657       12.139       33.886       28.161       21.111     1148.288      793.063      445.676        0.215        0.119       41.992       13.530        0.104      345.479       23.040      862.465
08/08/2014  09:11:00      -27.232      -17.159        0.302       16.552       19.230       12.183      273.971      369.788      148.421        0.091        0.040       32.187        6.418        0.040      345.384       22.878      862.455
08/08/2014  09:12:00      -15.564        8.705       24.378       17.289       14.070       17.900      298.922      197.976      320.408        0.086        0.041       17.833       16.138        0.819      346.231       24.332      862.449
08/08/2014  09:13:00        6.406       33.760       40.184       24.885       34.918       19.532      619.271     1219.250      381.517        0.251        0.111       34.362       17.840        0.270      346.270       24.398      862.453
08/08/2014  09:14:00       32.276       35.017       24.525       36.100       21.696       26.755     1303.201      470.708      715.825        0.268        0.124       47.623       16.971        0.127      345.763       23.527      862.448
08/08/2014  09:15:00        9.922       11.512       15.848       31.237       21.076       18.921      975.725      444.198      357.991        0.113        0.089       15.197       22.303        2.154      345.636       23.307      862.452
08/08/2014  09:16:00      -37.306      -21.507       -1.814       26.431       22.419       24.798      698.622      502.595      614.947        0.184        0.091       43.061       21.243        0.243      345.646       23.327      862.446
08/08/2014  09:17:00       -5.726        3.795        2.405       13.897       19.344       16.974      193.115      374.185      288.118        0.045        0.043        6.870        9.865        2.062      345.991       23.917      862.443
08/08/2014  09:18:00      -10.232        7.484        0.719       12.780       11.021       13.382      163.318      121.455      179.078        0.031        0.023       12.677        8.953        0.499      346.056       24.030      862.437
08/08/2014  09:19:00      -38.365      -26.944        1.131       14.855       22.352        9.306      220.673      499.603       86.596        0.150        0.040       46.882        8.982        0.037      345.490       23.057      862.433
08/08/2014  09:20:00      -19.745        1.396       18.866       38.233       48.687       35.379     1461.731     2370.436     1251.655        0.291        0.254       19.794       39.649        4.012      345.881       23.729      862.426
08/08/2014  09:21:00       64.931       58.984       40.465       40.762       22.972       24.086     1661.578      527.735      580.127        0.605        0.138       87.721       22.683        0.067      345.710       23.434      862.427
08/08/2014  09:22:00       51.009       56.020       24.943       30.117       33.649       32.016      907.046     1132.275     1025.004        0.471        0.153       75.764       19.804        0.068      345.934       23.819      862.408
08/08/2014  09:23:00      -15.005        2.731       28.896       29.092       34.490       28.024      846.340     1189.591      785.363        0.194        0.141       15.252       17.543        1.323      346.368       24.567      862.404
08/08/2014  09:24:00       65.285       65.748       12.280       40.420       37.805       32.303     1633.778     1429.191     1043.515        0.642        0.205       92.655       21.548        0.054      345.789       23.570      862.395
08/08/2014  09:25:00       28.005       44.472       32.853       42.853       42.667       38.067     1836.337     1820.510     1449.094        0.447        0.255       52.555       18.821        0.128      346.010       23.950      862.391
08/08/2014  09:26:00       74.365       66.875       46.969       55.924       41.306       46.867     3127.442     1706.166     2196.505        0.962        0.352      100.012       40.934        0.168      345.785       23.563      862.385
08/08/2014  09:27:00       27.680      116.198        1.176       38.137       47.574       25.608     1454.427     2263.242      655.790        0.932        0.219      119.449       19.829        0.028      345.587       23.224      862.390
08/08/2014  09:28:00       -8.640       21.997       22.136       29.119       35.389       26.362      847.935     1252.361      694.959        0.192        0.140       23.633       14.732        0.389      346.388       24.600      862.386
08/08/2014  09:29:00        0.104       12.712       25.263       32.566       26.029       24.597     1060.532      677.484      604.996        0.157        0.117       12.712       10.326        0.660      346.395       24.612      862.385
08/08/2014  09:30:00       59.149       50.426       -0.562       29.713       30.269       30.248      882.877      916.241      914.944        0.438        0.136       77.726       23.661        0.093      345.997       23.927      862.380
08/08/2014  09:31:00       44.637       51.816       -6.750       30.875       38.259       21.393      953.280     1463.774      457.672        0.380        0.144       68.392       13.264        0.038      345.804       23.596      862.382
08/08/2014  09:32:00       -3.599      -21.397        4.768       28.976       47.304       30.022      839.631     2237.674      901.332        0.224        0.199       21.697       15.582        0.516      346.440       24.691      862.383
08/08/2014  09:33:00        6.019       -5.011       46.198       20.959       28.410       19.542      439.263      807.149      381.878        0.191        0.081        7.832       19.181        5.998      346.639       25.033      862.387
08/08/2014  09:34:00      -13.594       -0.713       31.384       18.430       18.783       21.339      339.674      352.804      455.362        0.116        0.057       13.612       16.289        1.432      346.448       24.702      862.389
08/08/2014  09:35:00       -9.136       12.995       29.739       16.471       15.081       13.558      271.294      227.425      183.821        0.091        0.034       15.885        5.705        0.129      346.636       25.027      862.375
08/08/2014  09:36:00        3.598       27.538       35.493       45.533       36.384       35.740     2073.252     1323.803     1277.350        0.335        0.234       27.772       20.739        0.558      346.307       24.461      862.383
08/08/2014  09:37:00       60.606       35.097       26.976       48.287       45.437       38.010     2331.650     2064.494     1444.753        0.574        0.292       70.035       26.038        0.138      346.131       24.160      862.373
08/08/2014  09:38:00       -8.652        4.872       50.624       19.815       38.491       25.601      392.615     1481.567      655.394        0.259        0.126        9.929       22.013        4.915      346.938       25.546      862.369
08/08/2014  09:39:00       40.066       62.900       64.293       41.006       31.683       19.022     1681.468     1003.832      361.835        0.637        0.152       74.577       13.618        0.033      346.214       24.302      862.373
08/08/2014  09:40:00       20.105       60.583       54.562       29.249       34.907       26.446      855.529     1218.487      699.379        0.491        0.139       63.832       10.720        0.028      346.319       24.481      862.379
08/08/2014  09:41:00       -5.775       10.001       25.691       45.134       41.679       27.850     2037.038     1737.117      775.633        0.267        0.227       11.549       23.385        4.100      346.735       25.197      862.380
08/08/2014  09:42:00       -9.268        7.472       36.540       37.671       67.429       28.286     1419.119     4546.665      800.124        0.412        0.338       11.905       21.910        3.387      346.609       24.979      862.369
08/08/2014  09:43:00       -8.961      -17.943       19.413       32.230       29.277       23.046     1038.749      857.148      531.123        0.160        0.121       20.056       20.714        1.067      346.738       25.201      862.371
08/08/2014  09:44:00      -42.387      -32.886        5.150       20.697       26.001       16.909      428.348      676.043      285.929        0.215        0.070       53.649       10.273        0.037      346.019       23.965      862.366
08/08/2014  09:45:00      -29.059      -43.049       -0.673       39.007       29.930       24.235     1521.541      895.792      587.335        0.285        0.150       51.939       17.367        0.112      346.066       24.046      862.365
08/08/2014  09:46:00      -60.530       -7.221       -0.673       25.681       26.614       15.580      659.490      708.317      242.734        0.266        0.081       60.959       13.137        0.046      345.995       23.925      862.363
08/08/2014  09:47:00      -24.330       25.741       24.911       27.082       23.414       21.107      733.446      548.199      445.511        0.180        0.086       35.419       17.862        0.254      346.916       25.510      862.365
08/08/2014  09:48:00      -18.277        5.818       21.264       40.318       36.990       45.576     1625.523     1368.279     2077.131        0.294        0.254       19.181       34.122        3.165      346.703       25.142      862.352
08/08/2014  09:49:00        6.476       16.227       69.658       33.255       52.768       33.235     1105.886     2784.459     1104.578        0.508        0.250       17.472       38.149        4.767      346.901       25.482      862.358
08/08/2014  09:50:00        6.820      -18.622       48.993       22.886       40.034       22.123      523.784     1602.694      489.443        0.270        0.131       19.832       16.774        0.715      346.940       25.549      862.363
08/08/2014  09:51:00      -10.458       18.763       40.352       21.070       26.784       18.079      443.959      717.375      326.859        0.179        0.074       21.481        7.425        0.119      346.870       25.430      862.369
08/08/2014  09:52:00      -31.684       42.652       48.432       21.018       26.626       25.223      441.746      708.939      636.210        0.348        0.089       53.133       18.051        0.115      347.007       25.666      862.375
08/08/2014  09:53:00      -22.405       22.531       44.802       20.811       23.165       29.630      433.082      536.625      877.924        0.243        0.092       31.775       19.117        0.362      347.004       25.659      862.385
08/08/2014  09:54:00      -13.881       -2.427       27.266       39.246       38.483       29.210     1540.247     1480.952      853.243        0.241        0.194       14.091       13.455        0.912      346.883       25.453      862.389
08/08/2014  09:55:00        4.355      -52.523       -3.271       22.297       58.656       26.452      497.140     3440.555      699.715        0.371        0.232       52.703       17.763        0.114      346.307       24.462      862.395
08/08/2014  09:56:00       20.590       52.280       60.265       38.171       35.110       28.176     1457.016     1232.720      793.867        0.514        0.174       56.189       22.920        0.166      346.718       25.167      862.390
08/08/2014  09:57:00       34.335       39.949       61.437       34.048       31.546       26.664     1159.290      995.138      710.993        0.471        0.143       52.677       14.836        0.079      346.558       24.892      862.378
08/08/2014  09:58:00       26.533       20.918       21.536       28.405       29.044       18.488      806.827      843.550      341.799        0.180        0.100       33.787       13.631        0.163      346.840       25.379      862.375
08/08/2014  09:59:00       -0.980        1.230       25.406       30.369       52.638       26.737      922.287     2770.725      714.872        0.253        0.220        1.572       11.982       58.099      346.863       25.417      862.360
08/08/2014  10:00:00       -8.796      -18.712       18.947       32.131       24.350       22.416     1032.432      592.927      502.497        0.146        0.106       20.676       16.030        0.601      347.052       25.743      862.364
08/08/2014  10:01:00      -39.732      -11.567       20.290       37.967       40.484       25.476     1441.520     1638.939      649.007        0.293        0.186       41.382       29.328        0.502      346.722       25.173      862.359
08/08/2014  10:02:00      -63.851      -16.446       15.164       66.170       47.854       39.202     4378.424     2289.960     1536.774        0.639        0.410       65.935       43.079        0.427      346.667       25.080      862.364
08/08/2014  10:03:00      -37.946      -95.925        1.967       47.867       64.316       28.197     2291.280     4136.591      795.092        0.893        0.361      103.158       31.351        0.092      346.610       24.981      862.343
08/08/2014  10:04:00      -64.476     -112.325       -7.550       37.149       29.942       21.405     1380.050      896.536      458.192        0.978        0.137      129.515       16.709        0.017      346.105       24.112      862.352
08/08/2014  10:05:00      -52.622     -119.134       -5.099       19.970       40.449       15.333      398.796     1636.155      235.113        0.963        0.114      130.239       15.799        0.015      346.063       24.040      862.342
08/08/2014  10:06:00      -48.179      -35.843       13.667       32.910       58.015       21.106     1083.071     3365.760      445.472        0.434        0.245       60.050       23.683        0.156      346.675       25.093      862.330
08/08/2014  10:07:00      -48.767      -26.398       18.863       53.741       39.250       27.398     2888.079     1540.525      750.641        0.430        0.259       55.454       29.337        0.280      346.961       25.587      862.313
08/08/2014  10:08:00      -76.383      -57.372        1.397       39.906       33.083       18.706     1592.497     1094.495      349.927        0.608        0.152       95.529        5.674        0.004      346.261       24.382      862.314
08/08/2014  10:09:00      -42.789      -22.603       10.761       29.740       42.309       25.364      884.459     1790.047      643.348        0.289        0.166       48.392       25.534        0.278      346.767       25.251      862.301
08/08/2014  10:10:00      -94.803      -57.152        4.628       47.788       34.492       26.692     2283.712     1189.678      712.471        0.823        0.209      110.698       27.897        0.064      346.425       24.665      862.306
08/08/2014  10:11:00      -36.021      -51.514       10.812       34.791       46.577       21.561     1210.423     2169.463      464.868        0.396        0.192       62.859       23.034        0.134      346.538       24.858      862.299
08/08/2014  10:12:00      -19.999      -82.472        2.755       33.733       49.415       24.509     1137.922     2441.854      600.676        0.569        0.209       84.863       24.723        0.085      346.512       24.812      862.304
08/08/2014  10:13:00      -52.893      -77.111        3.584       33.651       30.472       22.727     1132.375      928.571      516.526        0.567        0.129       93.509       20.673        0.049      346.419       24.653      862.303
08/08/2014  10:14:00      -55.484      -68.603       -4.538       26.033       19.834       11.487      677.716      393.372      131.950        0.450        0.060       88.231       10.068        0.013      346.242       24.349      862.313
08/08/2014  10:15:00      -56.406      -27.620      -12.891       26.902       27.201       12.663      723.741      739.906      160.361        0.287        0.081       62.805        9.255        0.022      346.394       24.610      862.312
08/08/2014  10:16:00      -32.986      -42.302       15.653       32.447       38.636       27.224     1052.798     1492.766      741.155        0.320        0.164       53.642       28.579        0.284      346.827       25.356      862.323
08/08/2014  10:17:00      -27.196      -40.008        7.824       37.832       35.495       26.617     1431.256     1259.879      708.451        0.290        0.170       48.376       25.426        0.276      346.967       25.598      862.311
08/08/2014  10:18:00      -89.185      -34.549        3.742       48.580       26.251       20.683     2360.050      689.123      427.793        0.632        0.174       95.643       26.390        0.076      346.669       25.084      862.324
08/08/2014  10:19:00      -89.948      -48.710       -9.538       25.293       28.534       13.628      639.745      814.202      185.721        0.610        0.082      102.290        7.089        0.005      346.407       24.633      862.327
08/08/2014  10:20:00      -32.243      -31.009      -15.477       44.519       21.777       14.625     1981.964      474.220      213.900        0.245        0.134       44.735        8.641        0.037      346.438       24.683      862.333
08/08/2014  10:21:00      -72.430      -18.406       -7.976       51.591       29.059       26.388     2661.663      844.402      696.327        0.492        0.210       74.732       24.405        0.107      346.508       24.806      862.324
08/08/2014  10:22:00      -87.500       22.819       -9.060       29.951       23.221       17.259      897.035      539.207      297.859        0.500        0.087       90.427       11.422        0.016      346.481       24.759      862.323
08/08/2014  10:23:00     -113.029        5.886      -17.237       22.711       25.145       14.190      515.776      632.264      201.348        0.723        0.067      113.182        9.073        0.006      346.412       24.642      862.322
08/08/2014  10:24:00      -73.479       -9.037      -13.123       16.822       17.473       12.275      282.994      305.319      150.665        0.320        0.037       74.033        7.897        0.011      346.424       24.662      862.320
08/08/2014  10:25:00      -43.864       36.300      -11.856       15.414       13.416       15.572      237.606      179.997      242.488        0.202        0.033       56.936       10.062        0.031      346.518       24.825      862.318
08/08/2014  10:26:00      -50.309      -20.027       -5.180       30.517       24.743       17.872      931.287      612.218      319.417        0.241        0.093       54.149       16.069        0.088      346.780       25.273      862.303
08/08/2014  10:27:00     -102.224      -34.540       -4.420       35.319       26.309       18.197     1247.430      692.150      331.148        0.697        0.114      107.901       16.760        0.024      346.607       24.976      862.303
08/08/2014  10:28:00      -74.497      -27.802      -18.584       35.301       31.801       16.388     1246.177     1011.289      268.550        0.460        0.126       79.516        9.743        0.015      346.544       24.868      862.285
08/08/2014  10:29:00      -39.411        3.494       -8.982       13.023       12.132        9.924      169.588      147.180       98.489        0.103        0.021       39.566        6.506        0.027      346.655       25.060      862.280
08/08/2014  10:30:00      -20.096        4.157      -11.071       10.704        8.255        7.014      114.567       68.141       49.202        0.039        0.012       20.521        7.807        0.145      346.828       25.357      862.266
08/08/2014  10:31:00      -11.733       15.548       15.720       25.092       20.904       24.217      629.594      436.990      586.462        0.114        0.083       19.478        3.859        0.039      347.323       26.210      862.267
08/08/2014  10:32:00       13.357       29.043       30.564       22.711       28.020       22.921      515.768      785.128      525.387        0.189        0.091       31.968       19.766        0.382      347.702       26.864      862.251
08/08/2014  10:33:00       -2.798       -9.995       10.863       18.085       15.174       22.588      327.077      230.259      510.197        0.065        0.053       10.379       13.533        1.700      347.863       27.142      862.254
08/08/2014  10:34:00      -17.787       10.803       18.592       24.047       14.744       18.266      578.276      217.386      333.645        0.095        0.056       20.810        9.744        0.219      347.813       27.056      862.248
08/08/2014  10:35:00      -51.010      -18.492        0.057       21.046       26.939       15.244      442.932      725.723      232.390        0.217        0.070       54.258        6.834        0.016      346.923       25.520      862.248
08/08/2014  10:36:00      -61.977      -23.573        4.996       34.879       34.216       24.648     1216.519     1170.732      607.529        0.371        0.150       66.309       19.686        0.088      347.166       25.938      862.235
08/08/2014  10:37:00      -65.803      -41.002       11.243       48.079       35.519       25.776     2311.546     1261.624      664.423        0.519        0.212       77.531       15.599        0.040      347.192       25.984      862.234
08/08/2014  10:38:00      -34.487      -26.694       -1.457       30.548       19.802       14.466      933.155      392.114      209.254        0.172        0.077       43.611        9.449        0.047      346.973       25.606      862.235
08/08/2014  10:39:00      -47.539       -6.568       17.599       34.606       25.968       19.011     1197.566      674.361      361.413        0.242        0.112       47.990       17.513        0.133      347.561       26.621      862.231
08/08/2014  10:40:00      -50.104      -28.500       12.021       38.933       29.953       25.123     1515.787      897.177      631.170        0.326        0.152       57.643       27.939        0.235      347.351       26.256      862.232
08/08/2014  10:41:00       13.530     -106.393       -2.958       37.544       52.035       38.374     1409.532     2707.632     1472.575        0.855        0.279      107.250       24.090        0.050      347.524       26.556      862.225
08/08/2014  10:42:00      -27.273      -50.159        4.949       32.533       37.031       20.355     1058.407     1371.332      414.323        0.306        0.142       57.094        8.606        0.023      347.369       26.288      862.230
08/08/2014  10:43:00      -71.221      -33.068        1.129       27.193       31.640       25.353      739.464     1001.065      642.785        0.427        0.119       78.523       16.583        0.045      346.956       25.575      862.227
08/08/2014  10:44:00      -14.986        3.981       17.146       19.274       18.624       18.292      371.475      346.835      334.605        0.079        0.053       15.505       11.014        0.505      347.814       27.058      862.226
08/08/2014  10:45:00      -17.200       -2.173       11.006       38.830       23.032       28.236     1507.767      530.450      797.294        0.163        0.142       17.337       26.851        2.399      347.506       26.525      862.215
08/08/2014  10:46:00       49.038      -77.544       24.956       72.498       92.911       46.907     5256.026     8632.452     2200.306        1.256        0.804       91.748       58.179        0.402      347.709       26.876      862.205
08/08/2014  10:47:00       76.607      -64.822       12.287       62.325       81.682       67.697     3884.458     6672.027     4582.939        1.268        0.757      100.352       60.989        0.369      347.780       26.997      862.190
08/08/2014  10:48:00       56.267      -35.620       26.136       49.838       75.955       41.929     2483.803     5769.213     1758.082        0.756        0.501       66.594       53.413        0.643      347.519       26.548      862.196
08/08/2014  10:49:00        5.823      -22.712       27.878       27.185       32.844       32.294      739.010     1078.730     1042.904        0.209        0.143       23.447       23.277        0.986      348.155       27.645      862.185
08/08/2014  10:50:00       21.011       -0.298       47.308       40.408       62.731       43.458     1632.791     3935.157     1888.624        0.507        0.373       21.013       37.132        3.122      348.255       27.819      862.175
08/08/2014  10:51:00       85.358       29.158        8.872       47.511       38.396       31.250     2257.296     1474.251      976.561        0.646        0.235       90.201       19.627        0.047      347.779       26.995      862.173
08/08/2014  10:52:00       76.401       36.264       55.778       58.452       60.071       55.080     3416.599     3608.472     3033.779        1.016        0.503       84.571       29.012        0.118      347.831       27.084      862.161
08/08/2014  10:53:00      102.836       83.746       42.557       47.351       49.542       51.452     2242.105     2454.366     2647.299        1.337        0.367      132.622       31.109        0.055      347.285       26.143      862.164
08/08/2014  10:54:00       34.486       38.714       21.257       38.667       39.753       28.584     1495.111     1580.301      817.060        0.352        0.195       51.846       16.265        0.098      347.707       26.872      862.151
08/08/2014  10:55:00       16.188      -13.890       29.915       48.847       53.071       27.103     2386.049     2816.535      734.558        0.364        0.297       21.330       20.357        0.911      348.151       27.639      862.149
08/08/2014  10:56:00       54.829       54.859       62.897       65.543       50.430       48.189     4295.924     2543.171     2322.160        0.956        0.458       77.561       38.221        0.243      348.306       27.905      862.146
08/08/2014  10:57:00       62.890       85.935       61.220       36.284       43.629       35.082     1316.501     1903.452     1230.749        0.977        0.223      106.489       15.191        0.020      347.475       26.471      862.158
08/08/2014  10:58:00       17.710       51.714        2.947       34.016       31.807       22.656     1157.119     1011.671      513.290        0.284        0.134       54.662       20.293        0.138      347.410       26.358      862.142
08/08/2014  10:59:00      -10.148       32.853       11.220       21.834       30.618       23.092      476.729      937.454      533.263        0.163        0.097       34.385       23.258        0.458      348.063       27.486      862.139
08/08/2014  11:00:00      -33.414       22.293       15.060       40.247       22.213       24.656     1619.792      493.397      607.920        0.228        0.136       40.168       22.908        0.325      347.728       26.909      862.127
08/08/2014  11:01:00      -29.912       19.879       11.898       21.250       18.632       24.962      451.550      347.139      623.079        0.143        0.071       35.916       12.366        0.119      347.816       27.060      862.120
08/08/2014  11:02:00       34.499       29.038       47.996       56.376       29.243       31.534     3178.301      855.167      994.410        0.468        0.251       45.093       33.979        0.568      348.345       27.973      862.117
08/08/2014  11:03:00      134.365       72.468       11.226       47.390       38.626       36.887     2245.820     1491.950     1360.651        1.426        0.255      152.662       17.986        0.014      347.562       26.621      862.100
08/08/2014  11:04:00       20.068       32.674       15.542       54.305       58.191       35.105     2948.994     3386.244     1232.388        0.464        0.378       38.344       27.927        0.530      348.134       27.609      862.099
08/08/2014  11:05:00      -36.053      -10.311       22.015       39.506       59.043       30.599     1560.720     3486.114      936.310        0.394        0.299       37.499       20.421        0.297      348.088       27.529      862.082
08/08/2014  11:06:00       32.852       66.433       34.792       53.320       46.796       37.891     2843.048     2189.902     1435.756        0.658        0.323       74.112       30.925        0.174      348.021       27.413      862.091
08/08/2014  11:07:00       10.786       35.961       25.358       37.553       57.000       38.214     1410.210     3249.042     1460.278        0.408        0.306       37.544       30.188        0.647      348.309       27.911      862.073
08/08/2014  11:08:00      -15.608       -3.747       18.510       42.171       27.604       27.013     1778.414      762.007      729.685        0.193        0.164       16.052       26.770        2.781      348.294       27.885      862.073
08/08/2014  11:09:00       -3.942      -34.348       10.501       13.825       22.360       17.902      191.136      499.966      320.493        0.116        0.051       34.573       13.365        0.149      348.056       27.473      862.065
08/08/2014  11:10:00        2.617       -8.092       11.644       23.810       33.698       26.129      566.912     1135.543      682.722        0.130        0.119        8.505       20.503        5.811      348.577       28.376      862.052
08/08/2014  11:11:00       -4.862       30.400       61.655       15.917       28.034       15.860      253.360      785.902      251.553        0.302        0.065       30.786       11.476        0.139      348.732       28.644      862.042
08/08/2014  11:12:00       61.807       55.559       49.745       45.359       28.840       40.933     2057.433      831.770     1675.546        0.697        0.228       83.108       33.725        0.165      348.075       27.506      862.035
08/08/2014  11:13:00      111.040       75.518       22.909       42.686       38.663       36.830     1822.068     1494.812     1356.412        1.161        0.234      134.286       20.965        0.024      347.634       26.745      862.033
08/08/2014  11:14:00       85.397       50.261       17.715       51.704       38.340       43.707     2673.271     1469.990     1910.320        0.809        0.303       99.090       25.853        0.068      347.858       27.130      862.016
08/08/2014  11:15:00       98.953       23.165       28.806       45.473       41.727       43.969     2067.837     1741.129     1933.303        0.845        0.287      101.628       28.585        0.079      347.758       26.960      862.025
08/08/2014  11:16:00       25.486       44.585        4.922       34.532       28.450       32.906     1192.450      809.384     1082.824        0.287        0.154       51.355       16.064        0.098      348.123       27.590      862.018
08/08/2014  11:17:00      -48.706        4.814       -7.059       53.622       32.316       22.885     2875.297     1044.354      523.730        0.344        0.222       48.943       16.642        0.116      348.125       27.592      862.024
08/08/2014  11:18:00      -19.316       11.395       40.730       39.612       46.458       30.772     1569.111     2158.384      946.907        0.342        0.234       22.427       17.834        0.632      348.754       28.682      862.003
08/08/2014  11:19:00        7.280      -39.232        5.603       46.763       66.786       36.337     2186.772     4460.362     1320.366        0.479        0.398       39.902       29.551        0.548      348.409       28.083      862.009
08/08/2014  11:20:00       43.420      -35.998       20.118       48.271       82.482       47.468     2330.074     6803.318     2253.178        0.748        0.569       56.402       50.670        0.807      348.381       28.036      861.994
08/08/2014  11:21:00       91.407     -122.613      -22.190       40.214       39.568       33.166     1617.128     1565.634     1099.963        1.408        0.214      152.935       23.668        0.024      347.913       27.226      861.987
08/08/2014  11:22:00       55.198      -82.850      -11.168       57.374       54.456       34.492     3291.759     2965.462     1189.716        0.874        0.372       99.554       27.940        0.079      347.940       27.273      861.984
08/08/2014  11:23:00      -23.597      -49.491       -4.876       37.157       43.755       33.680     1380.645     1914.477     1134.332        0.373        0.221       54.829        7.312        0.018      347.950       27.289      861.968
08/08/2014  11:24:00      -49.554      -40.641       13.269       62.428       40.240       26.756     3897.221     1619.254      715.885        0.526        0.312       64.088       29.798        0.216      348.269       27.842      861.964
08/08/2014  11:25:00       18.362      -82.248       10.550       42.560       80.527       48.516     1811.367     6484.672     2353.785        0.893        0.532       84.273       45.617        0.293      348.486       28.216      861.962
08/08/2014  11:26:00      -34.550      -82.687        5.513       78.650       49.714       32.697     6185.822     2471.471     1069.086        0.889        0.486       89.615       16.492        0.034      348.020       27.410      861.960
08/08/2014  11:27:00      -84.044      -68.012        9.301       64.754       50.737       38.854     4193.033     2574.258     1509.636        1.002        0.414      108.116       36.318        0.113      348.157       27.648      861.951
08/08/2014  11:28:00      -82.146      -56.975       -2.275       64.623       30.751       25.440     4176.100      945.605      647.187        0.788        0.288       99.970       12.930        0.017      348.053       27.469      861.949
08/08/2014  11:29:00       13.402      -97.947       -4.431       30.431       58.856       29.657      926.054     3463.980      879.514        0.753        0.263       98.860       25.760        0.068      348.352       27.985      861.938
08/08/2014  11:30:00      -32.225      -55.767       11.136       52.394       60.151       30.422     2745.123     3618.097      925.512        0.578        0.364       64.408       26.255        0.166      348.348       27.978      861.934
08/08/2014  11:31:00      -22.925        0.514       14.393       30.425       38.437       30.302      925.658     1477.384      918.186        0.203        0.166       22.931       15.831        0.477      348.648       28.497      861.926
08/08/2014  11:32:00      -56.031      -27.870        7.467       60.934       53.295       37.705     3712.900     2840.333     1421.632        0.597        0.399       62.580       38.229        0.373      348.497       28.237      861.923
08/08/2014  11:33:00      -13.529       14.962       28.363       25.364       23.933       31.368      643.358      572.770      983.953        0.171        0.110       20.171       20.855        1.069      349.185       29.429      861.926
08/08/2014  11:34:00       -9.541       -3.796        1.482       25.423       17.104       21.473      646.340      292.539      461.109        0.075        0.070       10.268       14.230        1.921      348.758       28.689      861.924
08/08/2014  11:35:00        3.608       28.782       38.824       23.079       28.990       21.712      532.633      840.392      471.422        0.210        0.092       29.007       16.220        0.313      349.345       29.708      861.914
08/08/2014  11:36:00       83.661       67.408       16.711       48.539       31.440       29.015     2356.058      988.488      841.855        0.800        0.209      107.438       12.111        0.013      348.718       28.620      861.904
08/08/2014  11:37:00       45.373       43.134        3.744       43.132       43.433       33.525     1860.366     1886.451     1123.954        0.440        0.244       62.604       22.745        0.132      348.707       28.600      861.885
08/08/2014  11:38:00       19.868      117.046        3.169       40.181       62.554       44.883     1614.527     3912.943     2014.494        1.082        0.377      118.720       41.722        0.124      348.720       28.624      861.882
08/08/2014  11:39:00       15.223       65.430        3.503       29.369       54.552       27.714      862.510     2975.899      768.085        0.456        0.230       67.178       25.617        0.145      348.568       28.360      861.872
08/08/2014  11:40:00       -4.190       47.394       15.573       22.568       46.618       28.211      509.299     2173.213      795.835        0.299        0.174       47.579       27.762        0.340      349.034       29.166      861.868
08/08/2014  11:41:00      -25.767      115.328       -1.598       34.729       68.006       32.375     1206.130     4624.751     1048.123        1.042        0.344      118.172       38.044        0.104      348.477       28.202      861.864
08/08/2014  11:42:00        2.808       17.976       19.283       29.690       41.103       28.311      881.490     1689.479      801.508        0.204        0.169       18.194       16.618        0.834      349.164       29.391      861.853
08/08/2014  11:43:00        2.019       58.987       18.064       38.674       42.116       34.655     1495.648     1773.750     1200.959        0.414        0.224       59.022       25.992        0.194      349.123       29.320      861.851
08/08/2014  11:44:00       31.516       24.543       27.032       34.319       42.177       23.879     1177.826     1778.867      570.204        0.293        0.176       39.945       23.566        0.348      348.808       28.774      861.842
08/08/2014  11:45:00       -5.971      -28.033       18.157       27.392       26.596       24.259      750.346      707.361      588.509        0.160        0.102       28.662       20.258        0.500      348.544       28.317      861.839
08/08/2014  11:46:00       21.823      -48.137       -4.570       26.256       28.987       25.623      689.386      840.230      656.549        0.250        0.109       52.852       19.678        0.139      348.205       27.731      861.830
08/08/2014  11:47:00        3.280       42.409      -22.035       37.790       39.475       22.239     1428.076     1558.262      494.578        0.289        0.174       42.535       21.923        0.266      348.179       27.685      861.825
08/08/2014  11:48:00      -21.640      -84.047        9.439       35.394       59.215       32.955     1252.736     3506.359     1086.015        0.673        0.292       86.788       21.689        0.062      348.657       28.513      861.809
08/08/2014  11:49:00      -22.954      -66.869       37.135       54.304       50.776       34.260     2948.967     2578.252     1173.778        0.654        0.335       70.699       23.913        0.114      348.943       29.008      861.802
08/08/2014  11:50:00       13.252      -29.479       28.460       42.666       51.318       42.441     1820.348     2633.574     1801.264        0.405        0.313       32.321       34.455        1.136      349.435       29.863      861.803
08/08/2014  11:51:00        8.049      -65.682       -4.605       40.061       43.458       32.296     1604.886     1888.618     1043.034        0.447        0.227       66.174       19.744        0.089      348.925       28.977      861.789
08/08/2014  11:52:00       18.372       24.155       37.655       32.798       37.339       22.078     1075.707     1394.164      487.444        0.265        0.148       30.348       14.135        0.217      349.638       30.213      861.788
08/08/2014  11:53:00      -22.332      106.785       -1.108       20.418       42.268       33.804      416.885     1786.572     1142.737        0.762        0.167      109.095       33.409        0.094      348.985       29.082      861.775
08/08/2014  11:54:00       51.750       52.885       13.181       40.607       35.066       29.990     1648.932     1229.594      899.396        0.471        0.189       73.993       23.055        0.097      348.864       28.872      861.770
08/08/2014  11:55:00        3.851       81.082       11.063       39.926       36.413       37.167     1594.062     1325.883     1381.421        0.551        0.215       81.173       28.409        0.122      349.039       29.175      861.761
08/08/2014  11:56:00       23.106       45.857       29.622       46.545       40.534       35.248     2166.414     1643.009     1242.453        0.428        0.253       51.350       29.697        0.334      349.128       29.327      861.750
08/08/2014  11:57:00      -55.794      -37.410        3.204       45.427       60.982       26.642     2063.632     3718.808      709.792        0.551        0.325       67.175       23.834        0.126      349.126       29.326      861.750
08/08/2014  11:58:00      -62.583      -51.661       11.295       67.783       46.320       37.064     4594.486     2145.506     1373.742        0.741        0.406       81.151       33.756        0.173      348.788       28.740      861.732
08/08/2014  11:59:00      -58.990      -42.428        7.076       49.237       31.415       29.414     2424.312      986.885      865.159        0.480        0.214       72.663       25.658        0.125      348.796       28.754      861.726
08/08/2014  12:00:00       -6.586      -22.831       -6.798       29.153       21.854       16.504      849.898      477.581      272.396        0.111        0.080       23.762        6.953        0.086      348.881       28.899      861.709
08/08/2014  12:01:00      -24.072        0.107       18.497       29.763       21.464       19.003      885.847      460.693      361.096        0.131        0.085       24.072       16.268        0.457      349.446       29.882      861.708
08/08/2014  12:02:00      -10.096      -20.857       16.092       28.775       23.599       16.601      828.015      556.925      275.580        0.123        0.083       23.172       14.099        0.370      349.093       29.270      861.703
08/08/2014  12:03:00       18.267       15.717       27.821       22.702       29.561       22.094      515.396      873.826      488.123        0.162        0.094       24.098       18.672        0.600      349.302       29.632      861.696
08/08/2014  12:04:00       49.801       66.052       26.760       43.612       50.150       41.705     1902.029     2515.058     1739.315        0.686        0.308       82.723       36.280        0.192      349.082       29.248      861.693
08/08/2014  12:05:00       69.087      106.057       10.875       60.436       54.554       49.052     3652.468     2976.170     2406.117        1.259        0.452      126.574       32.830        0.067      348.953       29.025      861.679
08/08/2014  12:06:00       63.019      122.155      -10.473       48.177       39.348       39.029     2321.020     1548.228     1523.269        1.220        0.270      137.453       24.486        0.032      348.521       28.278      861.673
08/08/2014  12:07:00       27.217       49.518       11.158       36.308       71.383       37.790     1318.244     5095.569     1428.094        0.558        0.392       56.505       16.584        0.086      348.753       28.679      861.650
08/08/2014  12:08:00        7.854       32.346       15.443       28.018       29.298       25.633      785.016      858.392      657.029        0.182        0.115       33.286       14.017        0.177      348.957       29.034      861.639
08/08/2014  12:09:00        9.499       14.476       21.854       20.724       33.422       24.438      429.472     1117.023      597.222        0.146        0.107       17.314       13.813        0.637      349.126       29.326      861.625
08/08/2014  12:10:00       89.914       54.585       33.311       60.968       33.893       34.963     3717.049     1148.741     1222.430        0.913        0.304      105.185       17.114        0.026      348.902       28.938      861.627
08/08/2014  12:11:00      154.663       96.128       34.417       99.221       60.823       56.504     9844.860     3699.434     3192.756        2.554        0.837      182.102       43.582        0.057      348.917       28.962      861.618
08/08/2014  12:12:00      182.910       68.731       49.989       98.890       80.358       63.023     9779.326     6457.415     3971.937        3.044        1.010      195.397       51.968        0.071      348.734       28.643      861.617
08/08/2014  12:13:00       81.199       57.457       24.029       76.937       55.707       42.263     5919.291     3103.222     1786.175        1.064        0.540       99.472       17.517        0.031      348.816       28.789      861.623
08/08/2014  12:14:00      163.383      116.611       19.620       57.929       51.384       35.411     3355.815     2640.352     1253.917        2.396        0.363      200.729       22.363        0.012      348.482       28.207      861.620
08/08/2014  12:15:00       64.448        8.726       30.418       67.185       61.756       44.863     4513.781     3813.799     2012.677        0.775        0.517       65.036       32.007        0.242      348.966       29.048      861.619
08/08/2014  12:16:00       75.019       45.463       44.124       79.928       80.029       65.773     6388.471     6404.696     4326.066        1.338        0.856       87.719       59.539        0.461      348.580       28.379      861.625
08/08/2014  12:17:00       32.833      -23.263       21.361       51.947       62.336       40.146     2698.490     3885.762     1611.661        0.513        0.410       40.239       38.596        0.920      348.654       28.508      861.613
08/08/2014  12:18:00       13.469      -18.664       23.545       29.830       49.563       40.712      889.839     2456.524     1657.433        0.304        0.250       23.017       36.599        2.528      349.006       29.118      861.602
08/08/2014  12:19:00       36.540       10.568       37.363       25.851       37.136       26.989      668.288     1379.095      728.386        0.281        0.139       38.038       21.792        0.328      349.221       29.490      861.595
08/08/2014  12:20:00       18.364        5.199       26.250       29.155       19.461       25.362      850.024      378.741      643.221        0.146        0.094       19.086        7.296        0.146      349.528       30.022      861.568
08/08/2014  12:21:00       11.447       61.865        6.038       32.040       37.395       32.120     1026.540     1398.419     1031.708        0.373        0.173       62.915       23.177        0.136      349.278       29.589      861.557
08/08/2014  12:22:00       21.801       98.798      -11.338       54.122       70.879       36.640     2929.242     5023.895     1342.507        0.983        0.465      101.175       35.953        0.126      349.269       29.573      861.543
08/08/2014  12:23:00       -4.052       78.199        0.679       25.105       72.947       28.911      630.263     5321.227      835.834        0.646        0.339       78.304       29.308        0.140      349.337       29.692      861.541
08/08/2014  12:24:00      -24.560       21.040       -4.766       20.687       22.328       25.700      427.963      498.559      660.497        0.133        0.079       32.340       15.586        0.232      349.239       29.521      861.533
08/08/2014  12:25:00      -58.344       73.008       -9.168       40.444       52.787       31.261     1635.682     2786.442      977.258        0.711        0.270       93.457       20.853        0.050      348.941       29.007      861.522
08/08/2014  12:26:00       -4.881       27.550       24.518       34.938       31.856       27.942     1220.629     1014.777      780.756        0.220        0.151       27.979       28.796        1.059      349.581       30.114      861.502
08/08/2014  12:27:00     -144.675       12.904      -14.155      118.480       41.567       41.637    14037.431     1727.779     1733.646        1.939        0.875      145.250       48.429        0.111      349.240       29.520      861.486
08/08/2014  12:28:00     -109.207       54.184       -6.630       73.039      102.338       43.368     5334.680    10473.109     1880.787        1.629        0.884      121.910       38.817        0.101      349.062       29.213      861.473
08/08/2014  12:29:00     -128.927      108.851      -25.779       45.769       55.817       33.670     2094.761     3115.500     1133.672        1.774        0.317      168.733       31.749        0.035      348.693       28.574      861.477
08/08/2014  12:30:00     -206.378       40.025      -32.054       35.651       49.759       31.453     1270.975     2475.977      989.307        2.498        0.237      210.223       14.312        0.005      348.334       27.949      861.473
08/08/2014  12:31:00      -80.276       21.529       -6.742       56.586       23.622       32.288     3201.942      557.989     1042.496        0.588        0.240       83.113       33.158        0.159      348.643       28.489      861.462
08/08/2014  12:32:00      -21.799      134.872       -0.440       30.671       73.099       35.560      940.680     5343.421     1264.479        1.311        0.377      136.622       40.507        0.088      349.033       29.166      861.458
08/08/2014  12:33:00      -13.696      132.435       -5.897       29.891       63.745       36.574      893.467     4063.441     1337.683        1.203        0.315      133.141       37.055        0.077      348.862       28.868      861.458
08/08/2014  12:34:00      -17.280       41.540       22.890       30.853       35.284       26.543      951.881     1244.963      704.549        0.272        0.145       44.991       24.845        0.305      349.606       30.159      861.448
08/08/2014  12:35:00     -145.754       46.328       -6.693      101.589       31.787       36.872    10320.401     1010.432     1359.534        1.806        0.635      152.940       50.584        0.109      348.881       28.897      861.438
08/08/2014  12:36:00     -109.226       40.588      -11.598       77.001       42.366       34.025     5929.168     1794.895     1157.672        1.130        0.444      116.523       41.964        0.130      348.583       28.384      861.449
08/08/2014  12:37:00      -31.419       98.278       20.455       39.248       68.555       39.385     1540.407     4699.772     1551.165        0.943        0.390      103.178       38.538        0.140      349.489       29.955      861.434
08/08/2014  12:38:00        9.299       29.349       28.803       41.926       51.315       40.741     1757.783     2633.203     1659.839        0.391        0.303       30.787       31.740        1.063      349.560       30.079      861.445
08/08/2014  12:39:00       -7.301       26.987       12.842       24.965       41.833       26.852      623.263     1749.991      721.023        0.202        0.155       27.957       18.786        0.452      349.578       30.111      861.448
08/08/2014  12:40:00      -36.289       27.319        3.807       35.542       56.067       23.154     1263.268     3143.480      536.096        0.351        0.247       45.423       29.949        0.435      349.028       29.158      861.434
08/08/2014  12:41:00      -19.555       57.593       -7.613       36.946       47.103       34.963     1364.990     2218.689     1222.425        0.428        0.240       60.823       24.168        0.158      349.220       29.490      861.447
08/08/2014  12:42:00       36.277       63.007       17.170       55.140       38.455       37.953     3040.402     1478.808     1440.399        0.577        0.298       72.705       19.056        0.069      349.134       29.339      861.435
08/08/2014  12:43:00      -47.054       96.048        3.313       42.287       56.623       32.590     1788.205     3206.136     1062.078        0.875        0.303      106.955       29.890        0.078      349.191       29.438      861.425
08/08/2014  12:44:00      -86.088       55.087      -24.874       14.564       26.883       18.299      212.119      722.719      334.849        0.617        0.063      102.204       14.290        0.020      348.404       28.075      861.418
08/08/2014  12:45:00      -78.176      -20.153        4.266       40.697       42.594       26.736     1656.281     1814.236      714.810        0.536        0.209       80.732       18.673        0.053      348.630       28.467      861.396
08/08/2014  12:46:00      -20.698       51.350       12.127       32.782       51.428       32.579     1074.653     2644.808     1061.393        0.400        0.239       55.365       37.004        0.447      349.629       30.198      861.371
08/08/2014  12:47:00      -30.899       35.967       -2.332       33.074       24.092       25.115     1093.893      580.409      630.786        0.228        0.115       47.417       11.444        0.058      349.162       29.389      861.360
08/08/2014  12:48:00      -54.736       64.511        2.834       39.521       42.230       30.289     1561.921     1783.349      917.449        0.571        0.213       84.603       25.592        0.092      349.446       29.880      861.354
08/08/2014  12:49:00      -64.763       96.538       -6.628       48.355       44.118       36.402     2338.195     1946.428     1325.123        0.958        0.280      116.249       29.396        0.064      349.214       29.479      861.340
08/08/2014  12:50:00      -67.448       68.937       -8.492       39.105       43.963       32.802     1529.198     1932.729     1075.958        0.695        0.227       96.444       33.416        0.120      349.145       29.359      861.338
08/08/2014  12:51:00      -41.030      -18.761       -1.341       37.029       33.889       22.962     1371.166     1148.492      527.236        0.254        0.152       45.116       10.479        0.054      349.249       29.539      861.331
08/08/2014  12:52:00       17.168        7.235       29.396       21.051       15.351       19.696      443.151      235.654      387.948        0.114        0.053       18.630       10.317        0.307      350.176       31.147      861.311
08/08/2014  12:53:00        3.722        3.760       19.069       20.971       16.409       17.929      439.764      269.250      321.456        0.071        0.052        5.291       12.284        5.390      350.399       31.536      861.299
08/08/2014  12:54:00      -45.826       59.610       22.238       54.824       40.328       28.544     3005.686     1626.347      814.739        0.580        0.272       75.189       34.587        0.212      349.684       30.294      861.288
08/08/2014  12:55:00      -96.000       32.705      -21.273       41.927       64.778       27.935     1757.899     4196.127      780.373        0.873        0.337      101.418       34.423        0.115      348.757       28.687      861.273
08/08/2014  12:56:00       -4.886       -8.694       19.834       37.128       78.006       36.159     1378.479     6084.932     1307.445        0.463        0.439        9.973       30.846        9.567      349.429       29.851      861.260
08/08/2014  12:57:00      -44.768       92.771       -0.794       56.919       74.262       44.445     3239.743     5514.856     1975.332        1.067        0.536      103.008       43.645        0.180      349.443       29.876      861.249
08/08/2014  12:58:00      -12.128      115.880       13.833       50.163       81.477       43.678     2516.364     6638.445     1907.796        1.241        0.553      116.513       43.771        0.141      349.676       30.278      861.229
08/08/2014  12:59:00       79.873      106.571        8.547       82.701       52.183       53.373     6839.430     2723.057     2848.646        1.511        0.621      133.180       40.737        0.094      349.473       29.927      861.224
08/08/2014  13:00:00       24.428      119.091        3.296       84.673       54.085       49.222     7169.448     2925.237     2422.829        1.365        0.626      121.570       49.451        0.165      349.107       29.291      861.226
08/08/2014  13:01:00       34.535      128.040        1.865       43.492       60.194       42.855     1891.594     3623.339     1836.571        1.247        0.368      132.615       43.363        0.107      349.242       29.526      861.223
08/08/2014  13:02:00      -53.254      145.826       -9.423       28.130       40.093       26.827      791.293     1607.471      719.686        1.365        0.156      155.246       19.414        0.016      348.961       29.039      861.207
08/08/2014  13:03:00      -58.006       47.232      -13.907       37.758       27.261       22.703     1425.634      743.140      515.408        0.424        0.134       74.804       16.990        0.052      349.060       29.211      861.211
08/08/2014  13:04:00      -12.087       -1.126       18.062       28.315       27.959       23.099      801.726      781.712      533.543        0.129        0.106       12.139       14.857        1.498      349.563       30.083      861.201
08/08/2014  13:05:00       59.441      -33.206       14.294       42.332       40.650       28.208     1792.033     1652.411      795.681        0.454        0.212       68.088       28.746        0.178      349.367       29.745      861.180
08/08/2014  13:06:00       46.987      -35.194       20.418       32.878       49.896       28.897     1080.933     2489.601      835.058        0.413        0.220       58.706       22.375        0.145      348.950       29.023      861.165
08/08/2014  13:07:00       20.003       10.952       31.012       24.119       24.509       22.069      581.721      600.669      487.057        0.158        0.083       22.805       11.247        0.243      349.650       30.234      861.159
08/08/2014  13:08:00       22.574       46.039       21.536       42.250       44.008       32.676     1785.054     1936.708     1067.742        0.394        0.239       51.275       18.964        0.137      349.762       30.428      861.138
08/08/2014  13:09:00       20.832       35.649       13.274       37.961       37.109       28.263     1441.057     1377.048      798.799        0.275        0.181       41.289       26.211        0.403      349.744       30.397      861.130
08/08/2014  13:10:00      -17.339       92.167        8.979       42.425       62.264       38.250     1799.896     3876.826     1463.035        0.801        0.357       93.784       33.469        0.127      349.696       30.313      861.126
08/08/2014  13:11:00     -122.086       44.001      -22.562       37.514       36.133       24.396     1407.292     1305.587      595.177        1.033        0.165      129.774       10.927        0.007      348.947       29.017      861.122
08/08/2014  13:12:00     -105.226       49.567        0.769       51.950       26.565       32.889     2698.825      705.677     1081.664        0.901        0.224      116.316       31.452        0.073      349.434       29.859      861.104
08/08/2014  13:13:00     -126.729       71.333       -3.979       61.014       34.682       43.960     3722.651     1202.861     1932.479        1.401        0.343      145.426       32.944        0.051      349.437       29.865      861.092
08/08/2014  13:14:00      -71.617       19.196       -6.787       30.876       35.958       27.613      953.321     1292.971      762.481        0.428        0.150       74.145        6.939        0.009      349.425       29.844      861.082
08/08/2014  13:15:00      -68.543       40.370       -3.712       41.981       45.463       33.221     1762.379     2066.918     1103.638        0.564        0.247       79.548       24.369        0.094      349.495       29.967      861.075
08/08/2014  13:16:00     -119.371       26.253       -9.526       45.075       26.731       23.181     2031.793      714.564      537.374        0.916        0.164      122.224       19.460        0.025      349.241       29.524      861.063
08/08/2014  13:17:00       61.445       34.499       53.266       63.986       34.423       30.842     4094.220     1184.929      951.240        0.702        0.312       70.468       14.187        0.041      349.605       30.157      861.050
08/08/2014  13:18:00       44.866       57.203       25.214       53.301       46.359       31.504     2841.027     2149.143      992.504        0.595        0.299       72.699       24.850        0.117      349.649       30.231      861.026
08/08/2014  13:19:00      120.967       75.241       36.056       72.118       63.397       46.734     5200.984     4019.157     2184.020        1.650        0.570      142.457       30.008        0.044      349.602       30.150      861.003
08/08/2014  13:20:00       81.876       76.431       34.790       97.590       60.500       50.836     9523.711     3660.297     2584.264        1.476        0.788      112.006       24.947        0.050      349.833       30.549      860.991
08/08/2014  13:21:00       80.825      104.162        7.492       61.387       62.043       45.761     3768.422     3849.358     2094.061        1.357        0.486      131.842       34.098        0.067      349.684       30.292      860.988
08/08/2014  13:22:00       59.052      110.045       -5.462       49.275       47.179       37.264     2428.070     2225.842     1388.635        1.083        0.302      124.888       26.950        0.047      349.543       30.049      860.985
08/08/2014  13:23:00       73.739       58.313       11.300       90.537       45.761       47.174     8196.920     2094.068     2225.386        1.074        0.626       94.010       25.291        0.072      349.842       30.567      860.972
08/08/2014  13:24:00      124.411       77.262       17.977       66.050       53.564       42.601     4362.659     2869.075     1814.852        1.541        0.452      146.449       39.102        0.071      349.591       30.131      860.953
08/08/2014  13:25:00      137.732      111.382       16.378       70.807       60.157       44.024     5013.577     3618.807     1938.146        2.111        0.529      177.133       31.730        0.032      349.414       29.821      860.934
08/08/2014  13:26:00       42.751      217.598      -24.348       54.080       88.947       43.423     2924.610     7911.621     1885.596        3.124        0.636      221.758       37.792        0.029      349.308       29.637      860.919
08/08/2014  13:27:00       48.606       91.941       11.549       59.262      103.068       42.900     3512.043    10623.091     1840.398        1.346        0.799      103.998       39.226        0.142      349.700       30.319      860.901
08/08/2014  13:28:00       32.581       -9.772       26.844       56.721       34.693       28.946     3217.230     1203.604      837.864        0.357        0.263       34.015       19.056        0.314      349.483       29.944      860.907
08/08/2014  13:29:00        1.861       14.666       18.088       23.147       43.239       27.383      535.765     1869.620      749.821        0.185        0.158       14.783       30.025        4.125      350.681       32.027      860.879
08/08/2014  13:30:00       24.391      102.722        2.302       42.977       62.654       43.682     1847.056     3925.517     1908.123        0.941        0.384      105.578       43.118        0.167      349.585       30.121      860.854
08/08/2014  13:31:00       -2.347       78.508        4.155       39.498       62.704       33.765     1560.078     3931.748     1140.077        0.641        0.332       78.543       34.021        0.188      349.879       30.631      860.842
08/08/2014  13:32:00       37.335       43.802       10.499       53.367       35.280       32.069     2848.056     1244.684     1028.448        0.427        0.256       57.555       23.423        0.166      349.929       30.720      860.828
08/08/2014  13:33:00      -10.819       26.981       22.398       41.267       42.394       34.080     1702.988     1797.285     1161.433        0.300        0.233       29.070       16.475        0.321      350.002       30.845      860.806
08/08/2014  13:34:00       27.890       51.428       35.124       66.488       53.368       52.560     4420.634     2848.153     2762.517        0.734        0.502       58.504       18.677        0.102      350.105       31.025      860.811
08/08/2014  13:35:00       19.266       27.256       20.854       30.652       35.174       31.955      939.550     1237.184     1021.102        0.237        0.160       33.378       17.117        0.263      349.795       30.486      860.807
08/08/2014  13:36:00       48.935       28.757       24.717       66.567       58.555       36.457     4431.111     3428.684     1329.101        0.651        0.459       56.759       31.826        0.314      349.610       30.165      860.790
08/08/2014  13:37:00       93.152       63.350       34.798       72.338       53.650       44.662     5232.857     2878.308     1994.704        1.200        0.505      112.652       12.774        0.013      349.758       30.422      860.773
08/08/2014  13:38:00        9.020       13.736       52.515       43.694       40.909       36.636     1909.144     1673.580     1342.203        0.398        0.246       16.433       26.004        2.504      350.289       31.344      860.760
08/08/2014  13:39:00       25.375       39.649       21.036       28.636       35.704       32.288      819.993     1274.741     1042.506        0.290        0.157       47.073       18.034        0.147      350.134       31.077      860.745
08/08/2014  13:40:00       87.368       70.721       14.564       47.621       45.161       43.276     2267.774     2039.509     1872.774        0.951        0.309      112.404       33.864        0.091      349.329       29.677      860.740
08/08/2014  13:41:00       77.228       18.289       37.900       47.733       22.088       32.121     2278.441      487.862     1031.753        0.577        0.190       79.364       20.765        0.068      349.617       30.176      860.741
08/08/2014  13:42:00      -27.379       -7.511        5.616       23.087       19.020       19.302      533.005      361.776      372.570        0.105        0.063       28.390       17.541        0.382      349.750       30.409      860.714
08/08/2014  13:43:00      -51.844      -44.228        4.107       44.280       40.199       25.109     1960.706     1615.997      630.487        0.443        0.210       68.146       27.766        0.166      349.649       30.232      860.686
08/08/2014  13:44:00      -12.407      -53.353       -4.982       16.944       20.231       11.756      287.114      409.278      138.208        0.193        0.042       54.777        8.616        0.025      349.272       29.581      860.664
08/08/2014  13:45:00       28.925      -13.593       18.342       29.247       16.866       27.840      855.409      284.459      775.074        0.164        0.096       31.960       17.062        0.285      350.005       30.852      860.649
08/08/2014  13:46:00       10.411      -53.978        9.872       26.350       38.813       22.646      694.305     1506.443      512.832        0.292        0.136       54.973       14.576        0.070      349.604       30.156      860.647
08/08/2014  13:47:00      -10.555      -59.559       -4.784       28.047       40.597       19.015      786.661     1648.132      361.566        0.324        0.140       60.488       14.002        0.054      349.539       30.043      860.627
08/08/2014  13:48:00       24.371       24.029       42.519       45.194       29.417       25.853     2042.535      865.332      668.360        0.328        0.179       34.225        3.326        0.009      350.287       31.342      860.618
08/08/2014  13:49:00       16.782       81.006        5.988       40.745       79.270       37.979     1660.156     6283.787     1442.436        0.813        0.469       82.726       37.123        0.201      349.723       30.362      860.602
08/08/2014  13:50:00      -11.633       -5.741        8.300       51.002       39.713       26.246     2601.225     1577.150      688.864        0.255        0.243       12.972       23.469        3.273      349.963       30.778      860.582
08/08/2014  13:51:00     -150.796      -37.887       -7.848       59.399       39.349       33.136     3528.275     1548.345     1097.972        1.520        0.309      155.483       26.201        0.028      349.756       30.418      860.570
08/08/2014  13:52:00     -157.167      -61.925      -16.390       67.935       60.886       27.637     4615.167     3707.138      763.809        1.894        0.454      168.926       25.586        0.023      349.803       30.499      860.553
08/08/2014  13:53:00     -237.292      -74.665       -7.766      113.711       85.890       49.442    12930.260     7377.171     2444.470        4.234        1.138      248.761       53.134        0.046      349.992       30.825      860.536
08/08/2014  13:54:00     -255.132      -21.723      -13.014      112.501       78.566       50.684    12656.565     6172.549     2568.894        4.356        1.070      256.055       63.563        0.062      349.922       30.704      860.521
08/08/2014  13:55:00     -232.547      -38.409       -7.660      125.529      109.523       59.169    15757.620    11995.186     3500.917        4.343        1.563      235.697       47.820        0.041      349.884       30.637      860.506
08/08/2014  13:56:00     -217.987     -107.086       -1.351      125.388      116.454       63.208    15722.102    13561.593     3995.281        4.613        1.664      242.869       59.774        0.061      350.158       31.112      860.487
08/08/2014  13:57:00     -340.197     -116.495       -7.256      148.921      131.339       67.183    22177.415    17249.919     4513.546        8.664        2.197      359.590       73.516        0.042      349.747       30.399      860.484
08/08/2014  13:58:00     -249.632      -54.804        2.200      128.884       99.334       54.538    16611.058     9867.203     2974.359        4.738        1.473      255.577       60.659        0.056      349.992       30.825      860.491
08/08/2014  13:59:00     -115.870       66.523        1.441       85.474       65.136       45.823     7305.852     4242.732     2099.710        1.575        0.682      133.608       39.993        0.090      349.897       30.662      860.470
08/08/2014  14:00:00      -64.033       36.482        6.519       62.513       34.061       36.198     3907.915     1160.180     1310.330        0.592        0.319       73.696       39.260        0.284      349.900       30.669      860.453
08/08/2014  14:01:00     -155.975     -145.520      -10.339      130.143      119.128       51.105    16937.325    14191.402     2611.733        3.967        1.687      213.317       51.019        0.057      349.645       30.222      860.450
08/08/2014  14:02:00     -225.777     -146.104       11.958      107.680      110.001       55.022    11594.881    12100.325     3027.386        4.959        1.336      268.927       52.808        0.039      349.598       30.141      860.440
08/08/2014  14:03:00      -90.351     -252.077        0.107       97.249      106.844       55.350     9457.417    11415.538     3063.577        4.782        1.197      267.780       48.343        0.033      349.547       30.051      860.450
08/08/2014  14:04:00     -227.439     -127.936       13.024      131.164       88.115       59.723    17204.042     7764.311     3566.863        4.839        1.427      260.952       58.284        0.050      349.640       30.213      860.440
08/08/2014  14:05:00     -169.451     -143.620      -10.129       65.270       49.676       34.681     4260.199     2467.665     1202.755        2.869        0.397      222.127       27.402        0.015      349.439       29.864      860.447
08/08/2014  14:06:00      -76.260      -83.892       -1.456       49.288       61.339       21.240     2429.331     3762.506      451.126        0.975        0.332      113.373        8.968        0.006      349.594       30.137      860.449
08/08/2014  14:07:00      -12.485      -72.741        8.574       54.125       65.407       30.695     2929.527     4278.067      942.155        0.683        0.407       73.804       37.618        0.260      349.647       30.229      860.438
08/08/2014  14:08:00       90.079       24.480       23.069       38.651       44.491       31.772     1493.930     1979.449     1009.477        0.686        0.224       93.346       15.809        0.029      349.539       30.042      860.396
08/08/2014  14:09:00      125.071      122.655       -1.851       59.481       42.440       41.749     3538.002     1801.122     1743.021        1.888        0.354      175.177       26.801        0.023      349.556       30.070      860.338
08/08/2014  14:10:00      157.769      177.404        3.392      112.494       78.294       63.116    12654.947     6129.984     3983.680        3.957        1.138      237.409       48.514        0.042      349.605       30.152      860.294
08/08/2014  14:11:00      -12.547      194.553      -25.127       35.282       64.320       28.035     1244.810     4137.066      785.976        2.240        0.308      194.957       26.586        0.019      349.441       29.869      860.276
08/08/2014  14:12:00      -25.223      139.603      -21.657       54.229       52.853       30.529     2940.792     2793.454      932.013        1.363        0.333      141.863       30.156        0.045      349.706       30.332      860.244
08/08/2014  14:13:00      108.964       54.892       24.212       59.965       32.848       39.229     3595.831     1079.013     1538.890        1.084        0.311      122.010       37.078        0.092      349.851       30.582      860.232
08/08/2014  14:14:00      141.233      114.119       50.363       60.949       57.280       40.506     3714.775     3280.975     1640.732        2.207        0.432      181.577       18.334        0.010      349.690       30.301      860.223
08/08/2014  14:15:00       52.327      132.738      117.461       67.292       56.894       48.432     4528.197     3236.919     2345.614        2.213        0.506      142.680       36.270        0.065      349.742       30.391      860.224
08/08/2014  14:16:00       37.245       37.224       62.549       67.067       53.362       32.675     4498.013     2847.472     1067.658        0.755        0.421       52.658       26.676        0.257      349.952       30.759      860.228
08/08/2014  14:17:00      -22.231     -133.399      -27.060       64.817       89.569       56.242     4201.257     8022.626     3163.205        1.720        0.769      135.239       57.944        0.184      350.195       31.179      860.213
08/08/2014  14:18:00       22.724     -128.087      -11.121       78.236       76.068       59.419     6120.878     5786.401     3530.651        1.624        0.772      130.087       41.016        0.099      349.959       30.769      860.212
08/08/2014  14:19:00      -25.493     -170.855      -21.644       70.253       69.435       59.605     4935.451     4821.237     3552.810        2.181        0.665      172.747       48.071        0.077      349.751       30.407      860.198
08/08/2014  14:20:00       19.461       22.069       51.632       43.023       46.207       32.522     1851.009     2135.086     1057.685        0.429        0.252       29.424       18.906        0.413      350.114       31.040      860.198
08/08/2014  14:21:00       46.487       36.985       39.362       48.769       28.761       31.930     2378.368      827.176     1019.503        0.465        0.211       59.405       22.065        0.138      349.670       30.268      860.181
08/08/2014  14:22:00       57.885       23.341        5.467       16.445       23.842       24.840      270.450      568.420      617.041        0.269        0.073       62.413       11.784        0.036      349.584       30.121      860.156
08/08/2014  14:23:00       43.181      -59.351        6.728       34.552       52.994       30.569     1193.810     2808.319      934.435        0.518        0.247       73.397       32.030        0.190      349.972       30.794      860.144
08/08/2014  14:24:00       38.829     -135.905       -1.037       42.566       42.136       26.447     1811.827     1775.442      699.468        1.213        0.214      141.343       19.372        0.019      350.038       30.907      860.139
08/08/2014  14:25:00        6.121      -44.540       -5.929       31.862       29.709       28.156     1015.179      882.613      792.737        0.237        0.135       44.958       20.001        0.198      350.368       31.481      860.152
08/08/2014  14:26:00      -71.259       -7.792       10.280       63.819       36.344       24.874     4072.872     1320.888      618.729        0.563        0.301       71.684       33.681        0.221      350.583       31.855      860.158
08/08/2014  14:27:00      -34.039       24.138       13.172       58.425       35.500       22.463     3413.457     1260.220      504.587        0.355        0.259       41.729       22.275        0.285      350.290       31.344      860.144
08/08/2014  14:28:00       18.897       25.759       13.849       45.299       28.121       27.529     2051.977      790.790      757.865        0.241        0.180       31.948       20.131        0.397      350.520       31.746      860.118
08/08/2014  14:29:00        3.512      -84.058       -8.080       45.932       41.513       32.719     2109.741     1723.354     1070.541        0.602        0.245       84.131       17.469        0.043      350.270       31.311      860.125
08/08/2014  14:30:00      -36.350      -45.813       10.191       52.037       36.088       31.850     2707.830     1302.341     1014.419        0.427        0.251       58.482       10.460        0.032      350.475       31.666      860.155
08/08/2014  14:31:00        3.117     -176.549      -19.154       87.041       88.312       49.446     7576.078     7798.991     2444.875        2.468        0.891      176.577       33.647        0.036      349.950       30.752      860.163
08/08/2014  14:32:00       15.867     -216.369      -35.547      125.082      103.587       57.241    15645.405    10730.213     3276.552        3.899        1.483      216.950       64.259        0.088      349.885       30.638      860.140
08/08/2014  14:33:00       56.859     -125.544       -7.220      110.044       76.314       50.223    12109.734     5823.764     2522.330        1.975        1.023      137.820       44.704        0.105      349.642       30.218      860.110
08/08/2014  14:34:00       38.647     -156.853      -24.178       70.940       76.162       51.560     5032.469     5800.690     2658.448        2.008        0.675      161.544       41.887        0.067      349.831       30.546      860.101
08/08/2014  14:35:00        9.761     -165.605       12.741      123.642      101.186       63.201    15287.309    10238.514     3994.317        2.860        1.476      165.892       52.514        0.100      349.724       30.359      860.094
08/08/2014  14:36:00       47.291     -119.178       -9.773       67.065       77.153       68.162     4497.730     5952.622     4646.101        1.581        0.755      128.218       55.402        0.187      349.779       30.456      860.068
08/08/2014  14:37:00      -28.168      -96.395       -2.838       79.235       78.460       43.717     6278.151     6155.982     1911.165        1.222        0.717      100.426       32.706        0.106      349.972       30.793      860.054
08/08/2014  14:38:00      -26.343        5.987       12.414       42.404       40.066       28.216     1798.096     1605.256      796.119        0.254        0.210       27.015       24.028        0.791      350.486       31.687      860.046
08/08/2014  14:39:00      -52.848     -106.530        2.036       46.231       68.332       28.499     2137.350     4669.330      812.216        1.088        0.381      118.918       31.655        0.071      350.133       31.074      860.054
08/08/2014  14:40:00     -138.703      -78.638      -12.120       66.235       87.880       29.426     4387.140     7722.944      865.880        1.927        0.649      159.444       19.451        0.015      350.046       30.920      860.051
08/08/2014  14:41:00     -258.217     -138.757       -3.255      119.834      120.529       63.879    14360.278    14527.274     4080.463        5.945        1.648      293.137       59.860        0.042      350.015       30.862      860.037
08/08/2014  14:42:00     -257.419      -23.049      -14.211      120.364       92.551       50.396    14487.507     8565.638     2539.795        4.629        1.280      258.449       39.830        0.024      350.297       31.354      859.985
08/08/2014  14:43:00     -417.692     -137.073      -21.574      136.634      133.862       71.883    18668.758    17918.912     5167.230       11.773        2.088      439.609       70.937        0.026      350.278       31.321      859.976
08/08/2014  14:44:00     -306.519      -41.341      -30.071      116.793      121.031       56.405    13640.523    14648.424     3181.479        6.401        1.574      309.294       50.054        0.026      350.217       31.216      859.983
08/08/2014  14:45:00     -179.935       -5.552        0.979      131.872      117.848       68.071    17390.261    13888.163     4633.656        3.415        1.796      180.021       71.978        0.160      350.424       31.576      859.969
08/08/2014  14:46:00     -253.489     -160.968      -15.113      114.559      113.508       52.649    13123.678    12884.143     2771.940        5.958        1.439      300.279       50.118        0.028      350.187       31.162      859.985
08/08/2014  14:47:00     -163.851      -45.850        7.990      134.112       89.708       52.044    17985.921     8047.581     2708.571        2.887        1.437      170.145       52.026        0.093      350.479       31.672      859.984
08/08/2014  14:48:00     -262.179     -143.435        9.188      192.089      132.680       78.195    36898.134    17604.012     6114.410        7.499        3.031      298.850       83.658        0.078      350.471       31.658      859.976
08/08/2014  14:49:00     -190.721     -106.339        3.254      161.904      101.393       76.167    26213.010    10280.631     5801.453        4.499        2.115      218.363       85.209        0.152      350.392       31.521      859.969
08/08/2014  14:50:00     -331.076     -218.639      -12.004      183.902      131.106       80.469    33819.796    17188.794     6475.183       10.751        2.874      396.755       92.375        0.054      350.210       31.202      859.969
08/08/2014  14:51:00     -327.197     -205.237      -10.560      184.865      136.788       73.063    34175.094    18710.949     5338.248       10.375        2.911      386.238       79.134        0.042      350.121       31.048      859.973
08/08/2014  14:52:00     -301.231     -195.207      -12.700      178.656      111.720       55.927    31917.902    12481.343     3127.800        8.826        2.376      358.951       64.082        0.032      349.975       30.795      859.978
08/08/2014  14:53:00     -215.360      -77.642       10.971      159.707      115.142       64.177    25506.364    13257.636     4118.688        4.770        2.144      228.929       76.548        0.112      350.401       31.536      859.970
08/08/2014  14:54:00     -179.143      -53.059        6.767      116.617       82.694       56.962    13599.474     6838.307     3244.718        2.931        1.184      186.835       56.992        0.093      350.408       31.548      859.963
08/08/2014  14:55:00     -231.073        0.549      -10.273       88.256       81.832       54.783     7789.108     6696.507     3001.179        3.549        0.874      231.074       44.876        0.038      350.193       31.173      859.940
08/08/2014  14:56:00     -190.462     -130.420        3.093      158.294      132.745       70.435    25057.104    17621.339     4961.067        5.046        2.382      230.836       81.901        0.126      350.250       31.275      859.928
08/08/2014  14:57:00     -306.215     -171.734       -8.687      205.160      127.022       80.873    42090.752    16134.627     6540.490        9.404        3.238      351.084      107.547        0.094      350.162       31.120      859.922
08/08/2014  14:58:00     -296.020     -179.727      -19.957      118.291      123.684       61.087    13992.788    15297.614     3731.575        7.667        1.651      346.309       59.767        0.030      350.031       30.890      859.919
08/08/2014  14:59:00     -132.990      -31.853       14.472      126.177       79.838       57.627    15920.567     6374.186     3320.865        2.226        1.281      136.751       54.228        0.157      350.514       31.735      859.885
08/08/2014  15:00:00     -346.733      -72.546       -5.641      205.466      143.376       63.672    42216.470    20556.591     4054.080        9.616        3.341      354.241       66.470        0.035      350.359       31.462      859.886
08/08/2014  15:01:00     -305.678      -67.676       -6.751      142.508       98.328       67.399    20308.556     9668.410     4542.628        6.629        1.726      313.080       70.600        0.051      350.289       31.339      859.873
08/08/2014  15:02:00     -189.745     -163.887        3.695      139.926      134.474       58.201    19579.264    18083.134     3387.375        5.195        2.052      250.723       61.891        0.061      350.318       31.392      859.862
08/08/2014  15:03:00     -303.926     -197.239       -9.247      171.462      173.590       78.735    29399.271    30133.395     6199.249        9.853        3.287      362.317       84.754        0.055      350.430       31.586      859.867
08/08/2014  15:04:00     -459.777      -95.458      -26.414      210.159      161.892       96.081    44166.990    26209.031     9231.538       15.039        3.980      469.582      102.219        0.047      350.193       31.173      859.844
08/08/2014  15:05:00     -214.438     -105.531       -9.768      129.820      153.609       67.551    16853.361    23595.649     4563.104        5.111        2.251      238.999       59.548        0.062      350.447       31.614      859.848
08/08/2014  15:06:00     -279.936      -64.342       21.302      186.728      143.646       92.570    34867.232    20634.268     8569.132        7.350        3.204      287.235      102.866        0.128      350.519       31.739      859.861
08/08/2014  15:07:00     -125.506     -200.775        5.712      144.546      138.397       70.838    20893.529    19153.758     5017.970        5.057        2.253      236.774       70.510        0.089      350.311       31.379      859.870
08/08/2014  15:08:00     -206.388     -101.770        7.536      117.700       82.803       47.779    13853.364     6856.342     2282.832        3.800        1.150      230.115       47.939        0.043      350.180       31.150      859.833
08/08/2014  15:09:00     -400.080     -374.177      -17.854      232.526      171.596      100.590    54068.534    29445.280    10118.261       19.699        4.682      547.789      117.325        0.046      350.083       30.981      859.775
08/08/2014  15:10:00     -196.265     -160.295        1.554      105.259       91.661       54.367    11079.396     8401.675     2955.770        4.332        1.122      253.406       39.012        0.024      350.328       31.408      859.789
08/08/2014  15:11:00     -146.365     -126.222       -1.300      132.548      107.679       59.738    17568.871    11594.875     3568.572        3.504        1.637      193.274       66.050        0.117      350.572       31.834      859.774
08/08/2014  15:12:00     -308.174     -261.461       -1.884      232.752      156.410      113.028    54173.307    24464.216    12775.298       12.736        4.571      404.145      124.815        0.095      350.323       31.398      859.784
08/08/2014  15:13:00     -251.580     -214.715       -0.415      170.851      131.675       90.804    29190.070    17338.310     8245.344        8.207        2.739      330.749       82.909        0.063      350.193       31.173      859.760
08/08/2014  15:14:00     -274.424     -226.046        9.202      188.878      135.634       80.653    35674.840    18396.630     6504.909        9.352        3.029      355.535       89.944        0.064      350.100       31.011      859.751
08/08/2014  15:15:00     -463.111     -214.723      -24.977      165.619      159.010       94.311    27429.756    25284.277     8894.507       16.139        3.080      510.468       80.118        0.025      350.104       31.019      859.730
08/08/2014  15:16:00     -288.870     -161.839       -5.209      205.375      149.327       83.506    42178.760    22298.493     6973.267        9.054        3.573      331.115       87.868        0.070      350.243       31.261      859.717
08/08/2014  15:17:00     -102.943      -63.209       11.124      106.807       99.812       62.108    11407.673     9962.510     3857.437        1.997        1.261      120.799       60.145        0.248      350.528       31.757      859.711
08/08/2014  15:18:00     -158.670       37.597       -2.740      116.329       79.613       52.860    13532.341     6338.225     2794.186        2.463        1.133      163.064       48.934        0.090      350.633       31.940      859.712
08/08/2014  15:19:00     -434.968       11.804      -46.602      110.529      162.025       66.340    12216.621    26252.143     4401.057       11.718        2.143      435.128       55.389        0.016      350.420       31.569      859.709
08/08/2014  15:20:00     -211.042      -88.233      -21.101      165.719      111.179       77.444    27462.742    12360.744     5997.552        4.929        2.291      228.744       75.782        0.110      350.301       31.363      859.669
08/08/2014  15:21:00     -153.086      -20.780       17.205      164.527      110.256       71.698    27069.133    12156.435     5140.627        3.426        2.218      154.490       90.623        0.344      350.414       31.559      859.664
08/08/2014  15:22:00     -287.010        7.250      -12.050      145.715      129.582       64.924    21232.749    16791.402     4215.133        6.240        2.112      287.101       70.564        0.060      350.409       31.547      859.661
08/08/2014  15:23:00     -276.813     -159.562        2.029      118.414      105.961       58.567    14021.904    11227.642     3430.037        6.538        1.434      319.508       54.393        0.029      350.529       31.755      859.656
08/08/2014  15:24:00     -295.037     -155.708       -1.174      175.361      149.315       86.011    30751.492    22294.959     7397.868        8.586        3.022      333.604       85.745        0.066      350.455       31.628      859.632
08/08/2014  15:25:00     -419.343     -287.576      -16.022      238.402      178.012      108.065    56835.671    31688.337    11678.141       17.948        5.010      508.476      122.097        0.058      350.272       31.310      859.632
08/08/2014  15:26:00     -478.953     -206.098       -8.927      211.051      163.558       90.942    44542.500    26751.109     8270.386       17.574        3.978      521.414      113.647        0.048      350.206       31.196      859.634
08/08/2014  15:27:00     -292.542     -196.342        2.084      218.151       99.366       81.570    47589.743     9873.579     6653.649        9.411        3.206      352.322       92.433        0.069      350.143       31.086      859.647
08/08/2014  15:28:00     -171.672      -82.959        0.215      124.736       83.376       50.385    15559.067     6951.557     2538.685        3.070        1.252      190.666       48.747        0.065      350.302       31.365      859.624
08/08/2014  15:29:00     -236.095     -156.981        5.355      129.960      115.418       65.500    16889.716    13321.209     4290.277        5.745        1.725      283.521       66.271        0.055      350.127       31.058      859.575
08/08/2014  15:30:00     -221.111     -161.409       -3.817      157.631       89.569       68.216    24847.513     8022.580     4653.399        5.623        1.876      273.757       69.105        0.064      350.367       31.478      859.591
08/08/2014  15:31:00     -370.212     -129.095        6.945      276.193      163.455       90.054    76282.565    26717.575     8109.798       13.242        5.555      392.074      125.770        0.103      350.424       31.576      859.596
08/08/2014  15:32:00     -357.625     -133.000        6.172      210.538      151.156       74.358    44326.273    22848.079     5529.122       10.915        3.635      381.556       86.732        0.052      350.218       31.216      859.603
08/08/2014  15:33:00     -297.124     -207.538       -7.461      148.957      150.789       68.406    22188.159    22737.281     4679.372        9.050        2.480      362.429       78.143        0.046      350.200       31.186      859.601
08/08/2014  15:34:00     -481.277      -78.675      -24.366      270.210      187.726       92.059    73013.250    35240.876     8474.890       17.755        5.836      487.665       99.031        0.041      350.139       31.079      859.600
08/08/2014  15:35:00     -386.663     -180.859      -12.195      207.203      117.814       65.178    42933.249    13880.126     4248.117       12.170        3.053      426.870       77.911        0.033      350.118       31.043      859.603
08/08/2014  15:36:00     -295.279     -143.321       -0.163      210.127      151.745       93.700    44153.409    23026.575     8779.780        9.183        3.798      328.223      103.348        0.099      350.310       31.375      859.598
08/08/2014  15:37:00     -468.869      -20.005       -8.139      181.759      137.607       85.466    33036.504    18935.592     7304.361       13.978        2.964      469.295       87.621        0.035      350.231       31.239      859.638
08/08/2014  15:38:00     -505.186     -235.137       -8.758      220.483      189.285       79.093    48612.680    35828.720     6255.749       20.062        4.535      557.228       98.163        0.031      349.997       30.832      859.631
08/08/2014  15:39:00     -266.038     -229.155      -16.870      193.346      140.583       81.547    37382.637    19763.534     6649.912        9.367        3.190      351.125       99.838        0.081      350.064       30.950      859.625
08/08/2014  15:40:00     -105.968      -69.660       -7.088      118.072       91.800       56.162    13940.924     8427.165     3154.202        2.082        1.276      126.814       49.233        0.151      350.439       31.603      859.616
08/08/2014  15:41:00     -392.424     -202.986      -13.465      216.605      130.473       75.398    46917.597    17023.156     5684.807       13.249        3.481      441.814       81.291        0.034      350.223       31.227      859.642
08/08/2014  15:42:00     -438.347     -179.086      -14.692      191.676      143.239       84.047    36739.736    20517.497     7063.931       14.437        3.216      473.519       93.452        0.039      350.105       31.020      859.655
08/08/2014  15:43:00     -412.074      -81.432      -41.231      219.305      160.012       81.802    48094.699    25603.738     6691.639       12.925        4.020      420.043       99.685        0.056      350.126       31.057      859.641
08/08/2014  15:44:00     -423.070     -151.920      -16.535      297.452      199.429      109.923    88477.881    39772.108    12083.041       17.131        7.017      449.520      145.026        0.104      350.134       31.070      859.567
08/08/2014  15:45:00     -483.199     -380.703        4.295      237.726      220.716      109.480    56513.808    48715.767    11985.862       24.780        5.861      615.155      120.047        0.038      350.019       30.870      859.571
08/08/2014  15:46:00     -570.882     -354.397      -15.399      210.995      202.663      101.961    44519.002    41072.443    10396.046       27.385        4.799      671.941      103.088        0.024      349.855       30.587      859.596
08/08/2014  15:47:00     -408.991     -297.986      -13.960      206.158      154.887       87.591    42501.198    23990.073     7672.195       16.520        3.708      506.033      102.814        0.041      349.920       30.698      859.623
08/08/2014  15:48:00     -279.474     -158.549        3.978      153.094      128.972       76.683    23437.675    16633.786     5880.338        7.460        2.298      321.315       83.385        0.067      349.998       30.835      859.624
08/08/2014  15:49:00     -429.965     -228.046      -14.879      188.879      137.836       83.628    35675.387    18998.790     6993.718       14.937        3.083      486.698       96.212        0.039      350.002       30.841      859.638
08/08/2014  15:50:00     -272.417     -168.643       -6.012      117.766      118.175       68.307    13868.932    13965.322     4665.850        6.759        1.625      320.393       65.892        0.042      350.167       31.128      859.645
08/08/2014  15:51:00     -351.764     -202.117      -13.356      263.976      173.967       92.466    69683.448    30264.669     8549.957       13.661        5.425      405.696      132.549        0.107      350.012       30.859      859.628
08/08/2014  15:52:00     -287.756     -204.687        2.101      215.758      165.144       94.822    46551.531    27272.409     8991.297       10.374        4.141      353.129      110.836        0.099      350.077       30.973      859.584
08/08/2014  15:53:00     -374.567     -125.237      -27.979      216.174      177.756       84.269    46731.165    31597.228     7101.200       12.108        4.271      394.949      104.817        0.070      350.086       30.987      859.556
08/08/2014  15:54:00     -278.041     -152.404        7.781      202.351      191.866       97.782    40946.001    36812.487     9561.319        9.394        4.366      317.071      115.883        0.134      350.354       31.453      859.558
08/08/2014  15:55:00     -267.867     -176.334       18.139      194.288      185.130      105.157    37747.988    34273.284    11058.055        9.311        4.154      320.697      123.710        0.149      350.188       31.164      859.562
08/08/2014  15:56:00     -301.104     -164.959       -3.051      236.381      202.582       97.818    55876.087    41039.311     9568.339       11.216        5.324      343.329      115.051        0.112      350.220       31.220      859.567
08/08/2014  15:57:00     -420.712     -105.543       -3.054      244.437      220.525      100.127    59749.443    48631.355    10025.357       15.325        5.920      433.749      116.834        0.073      350.190       31.167      859.570
08/08/2014  15:58:00     -458.097     -202.741      -17.374      191.327      123.374       79.229    36606.210    15221.236     6277.178       15.467        2.905      500.956       97.756        0.038      350.092       30.999      859.592
08/08/2014  15:59:00     -270.246     -136.135        9.968      155.361      125.218       83.239    24136.993    15679.522     6928.802        6.920        2.337      302.598       83.549        0.076      350.181       31.153      859.571
08/08/2014  16:00:00     -359.991     -230.706        3.713      154.842      168.392       80.507    23976.125    28355.802     6481.323       12.081        2.941      427.573       85.231        0.040      350.054       30.932      859.545
08/08/2014  16:01:00     -393.278     -195.862       -5.003      139.251      160.021       76.925    19390.739    25606.808     5917.498       12.197        2.546      439.351       75.786        0.030      350.098       31.007      859.537
08/08/2014  16:02:00     -233.457     -173.972       -1.532      161.315      134.738       89.083    26022.593    18154.444     7935.693        6.843        2.606      291.150       92.677        0.101      350.197       31.180      859.529
08/08/2014  16:03:00     -308.776     -181.713      -17.121      183.917       97.428       60.180    33825.603     9492.140     3621.619        8.779        2.347      358.277       52.060        0.021      350.116       31.037      859.498
08/08/2014  16:04:00     -289.031     -129.324       -5.946       97.474      134.359       60.160     9501.261    18052.233     3619.230        6.573        1.559      316.644       46.491        0.022      350.295       31.349      859.520
08/08/2014  16:05:00     -294.932      -91.066       21.086      242.722      142.596       86.932    58913.805    20333.698     7557.241        9.125        4.340      308.671       87.630        0.081      350.331       31.413      859.536
08/08/2014  16:06:00     -366.209     -249.580      -14.369      208.581      184.307       92.063    43505.836    33968.919     8475.560       14.126        4.298      443.170       90.225        0.041      350.095       31.003      859.534
08/08/2014  16:07:00     -435.041     -249.468       -7.413      175.323      160.901       78.990    30738.034    25888.976     6239.478       15.720        3.143      501.492       82.784        0.027      349.917       30.693      859.502
08/08/2014  16:08:00     -385.712     -232.326      -15.199      233.165      204.920      110.538    54365.950    41992.038    12218.602       15.576        5.429      450.277      121.494        0.073      350.017       30.867      859.471
08/08/2014  16:09:00     -480.000       11.839      -31.871      183.875      127.654       78.836    33809.864    16295.486     6215.142       14.393        2.816      480.146       89.398        0.035      350.037       30.903      859.514
08/08/2014  16:10:00     -282.044       -9.102       -6.680      139.703      116.005       68.651    19516.915    13457.190     4712.940        5.867        1.884      282.191       69.675        0.061      350.207       31.196      859.527
08/08/2014  16:11:00     -305.961     -121.408      -23.618       98.057      104.553       56.852     9615.120    10931.412     3232.177        6.634        1.189      329.168       47.689        0.021      350.159       31.113      859.506
08/08/2014  16:12:00     -411.998      -24.580      -35.099      210.552      160.915       85.189    44332.288    25893.479     7257.201       12.452        3.874      412.731       98.077        0.056      350.134       31.069      859.479
08/08/2014  16:13:00     -367.061      -44.292      -31.227      219.962      172.244       96.563    48383.258    29668.066     9324.509       11.251        4.369      369.724      107.416        0.084      350.141       31.083      859.484
08/08/2014  16:14:00     -439.716      -52.536      -33.843      156.757      167.722       80.224    24572.760    28130.649     6435.966       12.819        2.957      442.843       76.343        0.030      349.982       30.807      859.467
08/08/2014  16:15:00     -404.687     -106.602       -4.558      172.422      160.230       76.528    29729.347    25673.613     5856.493       11.820        3.063      418.492       84.838        0.041      350.129       31.061      859.466
08/08/2014  16:16:00     -555.078     -125.163      -41.394      122.610      120.959       65.317    15033.325    14631.085     4266.356       17.970        1.697      569.014       60.272        0.011      350.101       31.014      859.478
08/08/2014  16:17:00     -596.433      -91.642      -53.201      236.078      156.132       85.821    55732.754    24377.181     7365.275       22.720        4.374      603.433      107.602        0.032      349.985       30.812      859.457
08/08/2014  16:18:00     -484.345     -123.966      -30.305      169.633      175.766       77.515    28775.193    30893.832     6008.639       15.826        3.284      499.958       84.219        0.028      350.074       30.966      859.457
08/08/2014  16:19:00     -502.600     -101.795      -27.785      153.442      146.654       59.257    23544.308    21507.334     3511.376       15.614        2.428      512.805       63.509        0.015      349.968       30.782      859.490
08/08/2014  16:20:00     -367.118     -123.098        5.171      219.736      194.870      102.337    48284.004    37974.499    10472.926       12.332        4.837      387.206      116.357        0.090      350.106       31.023      859.459
08/08/2014  16:21:00     -242.107     -179.759       12.776      263.099      159.522       97.528    69220.971    25447.266     9511.792        9.762        5.209      301.545      120.519        0.160      350.207       31.198      859.470
08/08/2014  16:22:00     -316.054     -195.228        6.987      210.046      160.786       86.452    44119.508    25852.136     7473.984       10.773        3.872      371.489      111.149        0.090      350.245       31.265      859.463
08/08/2014  16:23:00     -612.655     -248.948      -26.446      232.619      177.552      104.048    54111.777    31524.687    10826.003       26.722        4.823      661.302      102.947        0.024      349.883       30.635      859.476
08/08/2014  16:24:00     -364.531     -236.876      -16.566      164.409      167.764       94.377    27030.435    28144.796     8907.004       12.666        3.204      434.733       97.103        0.050      349.977       30.799      859.504
08/08/2014  16:25:00     -294.121      -67.220       11.707      161.566      121.729       73.186    26103.446    14817.872     5356.158        6.871        2.314      301.705       71.961        0.057      350.132       31.066      859.509
08/08/2014  16:26:00     -215.932      -84.350       -4.205      140.278      141.886       67.927    19677.790    20131.612     4614.090        4.908        2.221      231.822       59.647        0.066      350.195       31.177      859.505
08/08/2014  16:27:00     -132.357      -44.223       12.967      118.812      104.947       80.729    14116.291    11013.869     6517.178        2.564        1.582      139.550       67.383        0.233      350.327       31.406      859.497
08/08/2014  16:28:00     -248.665     -117.378       -4.760      202.245      137.466       81.365    40902.946    18896.964     6620.340        7.101        3.321      274.976       94.786        0.119      350.063       30.947      859.488
08/08/2014  16:29:00     -543.471       25.730      -40.440      192.371      171.298       82.282    37006.711    29343.171     6770.401       18.537        3.656      544.080       96.613        0.032      349.869       30.611      859.461
08/08/2014  16:30:00     -358.272      -95.337       -7.686      192.664      124.556       79.764    37119.506    15514.201     6362.262        9.824        2.950      370.740       93.164        0.063      350.055       30.933      859.508
08/08/2014  16:31:00     -396.185     -156.261      -11.001      178.996      146.588       73.619    32039.633    21488.060     5419.703       12.021        2.947      425.888       89.021        0.044      350.050       30.925      859.495
08/08/2014  16:32:00     -261.509     -184.981       -5.289      168.537      132.300       75.562    28404.878    17503.272     5709.673        7.711        2.581      320.320       88.746        0.077      350.003       30.843      859.484
08/08/2014  16:33:00     -313.217     -149.395        2.452      149.864      166.982       79.938    22459.199    27882.969     6390.080        8.857        2.837      347.022       98.133        0.080      350.021       30.873      859.421
08/08/2014  16:34:00     -315.610      -73.893      -10.080      178.851      136.598       67.595    31987.534    18658.961     4569.128        8.018        2.761      324.144       63.104        0.038      350.218       31.215      859.472
08/08/2014  16:35:00     -277.897      -80.400       -3.215      174.224      145.543       83.561    30353.953    21182.792     6982.425        7.110        2.926      289.293       82.279        0.081      350.223       31.225      859.498
08/08/2014  16:36:00     -453.387     -178.032       -1.043      235.449      192.311      102.646    55436.419    36983.410    10536.193       17.009        5.148      487.088      123.238        0.064      350.091       30.995      859.490
08/08/2014  16:37:00     -310.631       12.703        3.489      171.801      120.233       71.231    29515.597    14456.075     5073.907        7.285        2.452      310.891       67.965        0.048      350.210       31.202      859.494
08/08/2014  16:38:00     -356.625     -147.800       -6.526      204.069      150.407       78.685    41644.104    22622.196     6191.277       10.975        3.523      386.039       87.394        0.051      350.131       31.065      859.490
08/08/2014  16:39:00     -319.478     -135.304       -6.395      211.955      156.207       91.500    44925.133    24400.711     8372.227        9.904        3.885      346.949      103.361        0.089      350.082       30.980      859.483
08/08/2014  16:40:00     -539.929     -175.249      -25.162      233.848      166.290       92.960    54685.106    27652.329     8641.603       20.691        4.549      567.658      115.223        0.041      350.082       30.980      859.474
08/08/2014  16:41:00     -591.029     -236.406      -18.037      230.391      182.751      100.235    53080.147    33397.970    10047.074       25.101        4.826      636.556      114.659        0.032      349.861       30.596      859.479
08/08/2014  16:42:00     -392.916     -110.252      -10.882      213.371      177.324       78.776    45527.223    31443.646     6205.603       12.490        4.159      408.091       84.446        0.043      349.870       30.614      859.492
08/08/2014  16:43:00     -359.539     -279.412      -11.058      186.706      135.528       90.900    34859.086    18367.779     8262.849       13.446        3.074      455.345      107.583        0.056      349.936       30.728      859.468
08/08/2014  16:44:00     -247.146      -97.665       -5.629      111.153      127.238       65.638    12355.059    16189.613     4308.331        5.175        1.643      265.743       62.671        0.056      350.060       30.941      859.437
08/08/2014  16:45:00     -407.313      -91.433      -14.307      202.933      147.302       82.237    41181.842    21697.841     6762.960       12.204        3.482      417.449      102.529        0.060      350.113       31.035      859.446
08/08/2014  16:46:00     -283.521     -159.034       17.703      197.880      158.494       97.861    39156.611    25120.258     9576.778        8.991        3.693      325.078      111.591        0.118      350.046       30.917      859.420
08/08/2014  16:47:00     -484.246     -191.039      -19.734      281.415      193.884       94.457    79194.273    37591.179     8922.053       19.852        6.285      520.567      122.307        0.055      349.996       30.830      859.403
08/08/2014  16:48:00     -307.451      -50.266       18.059      298.060      142.138      111.460    88839.860    20203.321    12423.424       10.940        6.073      311.533      131.655        0.179      350.047       30.919      859.406
08/08/2014  16:49:00     -151.083      -72.257       10.167      137.766      126.022       74.811    18979.445    15881.580     5596.661        3.430        2.023      167.473       74.064        0.196      350.137       31.077      859.403
08/08/2014  16:50:00     -350.516     -216.227       -6.117      169.286      143.665       86.235    28657.654    20639.659     7436.463       11.318        2.837      411.844       78.622        0.036      349.921       30.702      859.375
08/08/2014  16:51:00     -348.377     -200.867      -28.380      177.052      121.459       62.482    31347.459    14752.195     3904.021       10.625        2.500      402.137       61.879        0.024      350.054       30.932      859.414
08/08/2014  16:52:00     -284.368     -202.465       -8.042      181.569      160.157       85.925    32967.440    25650.124     7383.083        9.395        3.300      349.080       94.302        0.073      350.010       30.855      859.418
08/08/2014  16:53:00     -423.716     -263.573       -2.378      241.459      170.201      108.060    58302.502    28968.441    11676.904       17.396        4.947      499.005      111.741        0.050      350.018       30.869      859.392
08/08/2014  16:54:00     -200.582     -140.273       21.067      200.183      163.383       85.801    40073.276    26694.008     7361.896        6.723        3.706      244.764      106.758        0.190      350.070       30.961      859.415
08/08/2014  16:55:00     -293.933     -129.339       19.123      196.638      145.907       80.236    38666.368    21288.847     6437.882        8.493        3.320      321.132       88.968        0.077      350.067       30.954      859.419
08/08/2014  16:56:00     -401.913     -104.401       -9.795      177.942      149.911       82.374    31663.422    22473.421     6785.466       11.671        3.046      415.251       79.278        0.036      350.004       30.844      859.394
08/08/2014  16:57:00     -409.730     -166.639       -5.720      260.278      195.148      105.724    67744.390    38082.681    11177.479       15.632        5.850      442.321      136.009        0.095      349.966       30.778      859.404
08/08/2014  16:58:00     -458.151     -286.808       -5.315      219.463      198.991      100.282    48164.020    39597.463    10056.403       19.498        4.891      540.519      113.221        0.044      349.891       30.648      859.395
08/08/2014  16:59:00     -456.998     -224.937      -18.860      154.708      148.749       74.533    23934.631    22126.288     5555.105       15.570        2.581      509.357       69.993        0.019      349.847       30.573      859.385
08/08/2014  17:00:00     -267.281      -62.915        2.315      177.638      151.309       74.948    31555.170    22894.322     5617.167        6.772        3.003      274.586       94.981        0.120      350.075       30.967      859.402
08/08/2014  17:01:00     -440.814     -303.963       -0.199      253.930      180.585      101.862    64480.643    32610.913    10375.938       19.707        5.373      535.454      123.131        0.053      349.916       30.693      859.359
08/08/2014  17:02:00     -383.082     -288.038       -6.476      218.622      174.608       88.212    47795.680    30487.981     7781.303       15.790        4.303      479.289      107.171        0.050      349.927       30.712      859.371
08/08/2014  17:03:00     -366.087     -211.069      -11.038      160.178      162.140       85.667    25656.897    26289.534     7338.775       11.898        2.964      422.575       83.092        0.039      349.982       30.807      859.381
08/08/2014  17:04:00     -249.666      -63.889        0.416      128.590      109.511       65.517    16535.323    11992.703     4292.425        4.961        1.641      257.711       62.758        0.059      350.225       31.229      859.379
08/08/2014  17:05:00     -367.886     -245.886       -6.853      214.066      162.757      100.596    45824.426    26489.848    10119.466       13.912        4.122      442.493      100.146        0.051      350.009       30.855      859.382
08/08/2014  17:06:00     -449.190     -240.533      -15.349      169.609      144.781       78.493    28767.347    20961.646     6161.158       15.787        2.795      509.537       75.779        0.022      350.093       30.999      859.403
08/08/2014  17:07:00     -253.394     -127.280        9.610      247.678      156.435       92.330    61344.190    24471.787     8524.868        8.740        4.717      283.564      116.111        0.168      350.105       31.019      859.416
08/08/2014  17:08:00     -303.624       23.722      -20.276      166.065      124.719       67.356    27577.435    15554.927     4536.798        7.041        2.383      304.549       75.235        0.061      350.088       30.991      859.433
08/08/2014  17:09:00     -238.082     -104.941       -5.629      216.496      137.956       79.065    46870.723    19031.854     6251.337        6.993        3.608      260.183       82.808        0.101      350.144       31.090      859.425
08/08/2014  17:10:00     -418.320     -166.745        5.462      268.835      232.202      119.044    72272.105    53917.732    14171.561       17.157        7.018      450.328      142.006        0.099      349.945       30.742      859.402
08/08/2014  17:11:00     -548.828     -154.112      -50.001      251.489      171.781       92.606    63246.800    29508.830     8575.801       21.438        5.067      570.055      104.262        0.033      349.803       30.495      859.408
08/08/2014  17:12:00     -355.855      -74.411      -19.430      216.786      139.365       85.935    46996.023    19422.529     7384.856       10.316        3.690      363.552       99.417        0.075      349.791       30.476      859.379
08/08/2014  17:13:00     -386.354     -171.287      -14.650      208.196      127.671       84.497    43345.485    16299.952     7139.660       12.279        3.339      422.621       85.018        0.040      349.813       30.513      859.360
08/08/2014  17:14:00     -423.554      104.339      -27.409      273.696      171.305       91.486    74909.724    29345.378     8369.599       15.181        5.631      436.216       98.126        0.051      349.974       30.793      859.358
08/08/2014  17:15:00     -465.464      -85.653       -4.595      260.112      187.428       93.252    67658.082    35129.134     8696.025       16.773        5.574      473.279      119.807        0.064      350.059       30.941      859.359
08/08/2014  17:16:00     -554.094      -79.173      -26.588      249.170      198.308      113.250    62085.876    39326.048    12825.586       21.409        5.712      559.722      132.862        0.056      349.839       30.559      859.383
08/08/2014  17:17:00     -296.811     -175.277       -4.872      211.382      188.813      100.223    44682.180    35650.182    10044.682       10.459        4.519      344.701      115.877        0.113      349.981       30.805      859.369
08/08/2014  17:18:00     -461.802     -137.729      -10.938      231.366      145.928       95.455    53530.436    21295.111     9111.639       15.813        4.197      481.902      110.665        0.053      349.852       30.581      859.366
08/08/2014  17:19:00     -419.959     -131.504      -17.354      255.756      164.540       85.157    65411.139    27073.400     7251.683       14.683        4.987      440.067      107.802        0.060      349.862       30.598      859.364
08/08/2014  17:20:00     -490.450     -125.380      -14.234      222.964      205.046       87.861    49713.007    42044.051     7719.502       17.795        4.974      506.223       89.948        0.032      349.830       30.543      859.349
08/08/2014  17:21:00     -469.899     -141.536      -14.281      292.929      201.917      115.925    85807.121    40770.585    13438.694       19.050        7.001      490.752      140.542        0.082      349.830       30.545      859.319
08/08/2014  17:22:00     -593.454     -435.591      -21.256      318.373      233.828      140.342   101361.393    54675.712    19695.848       35.902        8.787      736.156      147.009        0.040      349.662       30.251      859.292
08/08/2014  17:23:00     -516.967     -347.731      -14.988      244.160      176.927      128.214    59614.071    31303.183    16438.770       24.785        5.368      623.034      152.495        0.060      349.685       30.289      859.340
08/08/2014  17:24:00     -439.784     -111.378      -22.152      239.531      195.022       91.064    57374.890    38033.578     8292.687       15.498        5.185      453.668      104.321        0.053      349.793       30.479      859.367
08/08/2014  17:25:00     -509.842      -74.695      -20.071      169.536      147.754       78.471    28742.366    21831.169     6157.671       16.132        2.837      515.285       72.628        0.020      349.716       30.344      859.355
08/08/2014  17:26:00     -503.825     -121.476      -36.638      202.023      196.140       85.273    40813.201    38470.775     7271.487       17.823        4.328      518.263       87.556        0.029      349.830       30.542      859.335
08/08/2014  17:27:00     -387.195     -148.317      -10.700      182.591      210.189       89.799    33339.329    44179.487     8063.873       12.879        4.279      414.630       97.699        0.056      349.939       30.731      859.342
08/08/2014  17:28:00     -340.096     -233.680       -3.326      185.875      178.782       94.404    34549.691    31962.861     8912.027       12.284        3.771      412.640      101.858        0.061      349.798       30.486      859.321
08/08/2014  17:29:00     -386.012     -158.637      -17.575      148.364      149.273       78.485    22011.840    22282.295     6159.875       11.246        2.523      417.338       67.308        0.026      349.864       30.601      859.351
08/08/2014  17:30:00     -190.645     -135.557       17.862      174.874      145.505       84.832    30581.042    21171.612     7196.496        5.698        2.947      233.926       93.693        0.160      349.893       30.652      859.338
08/08/2014  17:31:00     -272.961     -204.121        7.189      196.315      124.773       82.133    38539.622    15568.227     6745.803        8.853        3.043      340.842       95.357        0.078      349.945       30.743      859.376
08/08/2014  17:32:00     -401.601     -175.594       -6.095      247.903      178.883       91.720    61455.825    31999.132     8412.567       14.699        5.093      438.311      119.369        0.074      349.791       30.476      859.352
08/08/2014  17:33:00     -360.974     -164.024      -22.634      206.290      173.307       89.717    42555.379    30035.444     8049.095       11.916        4.032      396.493       86.470        0.048      349.811       30.510      859.339
08/08/2014  17:34:00     -317.948     -172.237       -5.549      175.896      139.782       85.329    30939.420    19538.891     7281.016        9.426        2.888      361.603       94.411        0.068      349.791       30.474      859.353
08/08/2014  17:35:00     -403.684     -114.447      -13.769      184.640      153.826       79.351    34092.080    23662.334     6296.629       12.014        3.203      419.593       89.911        0.046      349.799       30.490      859.364
08/08/2014  17:36:00     -559.221     -105.016      -31.416      230.781      228.817      104.650    53260.025    52357.199    10951.528       22.063        5.828      568.996      114.429        0.040      349.798       30.487      859.377
08/08/2014  17:37:00     -300.937      -62.476       15.380      181.955      125.154       95.553    33107.652    15663.485     9130.382        7.629        2.895      307.353       93.812        0.093      349.913       30.687      859.380
08/08/2014  17:38:00     -368.751      -38.630      -18.536      178.695      122.738       83.795    31932.004    15064.587     7021.549        9.591        2.701      370.769       90.040        0.059      349.799       30.489      859.414
08/08/2014  17:39:00     -327.121     -105.782       -0.127      239.467      148.602       77.738    57344.521    22082.436     6043.187       10.182        4.274      343.799      101.628        0.087      349.765       30.431      859.388
08/08/2014  17:40:00     -290.066      -34.942       -5.898      183.099      105.713       59.598    33525.135    11175.150     3551.865        6.681        2.413      292.163       75.371        0.067      349.746       30.396      859.377
08/08/2014  17:41:00     -131.297      -24.951       10.272      158.014       95.529       58.852    24968.357     9125.833     3463.599        2.775        1.878      133.646       70.995        0.282      349.854       30.586      859.363
08/08/2014  17:42:00     -255.033      -82.681      -17.595      144.235      102.417       58.555    20803.710    10489.246     3428.670        5.345        1.736      268.101       52.428        0.038      349.924       30.707      859.370
08/08/2014  17:43:00     -440.450     -181.673      -25.392      183.954      201.735       79.932    33839.019    40696.986     6389.082       15.427        4.046      476.446       88.412        0.034      349.746       30.397      859.367
08/08/2014  17:44:00     -365.138     -299.536      -20.794      175.491      140.326       65.042    30797.054    19691.514     4230.499       13.909        2.736      472.279       67.237        0.020      349.610       30.160      859.331
08/08/2014  17:45:00     -332.132     -218.281       14.552      220.529      218.978       97.893    48633.140    47951.165     9582.990       13.215        5.308      397.440      102.436        0.066      349.670       30.264      859.321
08/08/2014  17:46:00     -275.457     -176.697        7.157      253.265      172.804      101.500    64142.959    29861.154    10302.186       10.571        5.215      327.259      120.896        0.136      349.708       30.331      859.362
08/08/2014  17:47:00     -269.020      -23.860       -0.384      250.788      151.334       84.927    62894.516    22901.960     7212.606        8.296        4.650      270.076      104.071        0.148      349.779       30.455      859.327
08/08/2014  17:48:00     -311.442      -20.376      -21.795      190.986      132.683       65.580    36475.531    17604.882     4300.744        7.812        2.919      312.108       55.067        0.031      349.833       30.550      859.313
08/08/2014  17:49:00     -471.133     -130.931      -24.107      169.656      133.480       80.168    28783.278    17816.843     6426.983       14.635        2.651      488.988       81.016        0.027      349.653       30.236      859.327
08/08/2014  17:50:00     -433.560      -42.305      -29.972      185.999      133.706       79.889    34595.492    17877.414     6382.318       12.475        2.943      435.619       76.096        0.031      349.674       30.271      859.308
08/08/2014  17:51:00     -345.896      -14.713      -19.422      164.856      139.603       78.405    27177.657    19489.102     6147.405        8.652        2.641      346.208       87.429        0.064      349.759       30.419      859.300
08/08/2014  17:52:00     -328.157     -156.305       -4.144      202.291      149.758       96.596    40921.724    22427.565     9330.696       10.239        3.634      363.481       90.788        0.062      349.694       30.305      859.321
08/08/2014  17:53:00     -370.825     -234.417       -7.381      215.084      167.941      100.074    46261.152    28204.213    10014.880       13.848        4.224      438.706      102.596        0.055      349.667       30.258      859.337
08/08/2014  17:54:00     -288.183     -138.378       -6.203      168.991      154.662       97.671    28557.827    23920.409     9539.701        8.211        3.101      319.684       99.771        0.097      349.681       30.284      859.308
08/08/2014  17:55:00     -467.063      -21.914      -47.888      223.549      118.931       83.611    49974.368    14144.484     6990.802       14.600        3.555      467.577      107.704        0.053      349.707       30.328      859.327
08/08/2014  17:56:00     -409.183      -92.543      -22.406      160.700      192.287       72.977    25824.542    36974.423     5325.645       12.230        3.406      419.517       69.705        0.028      349.708       30.329      859.328
08/08/2014  17:57:00     -436.394      -95.506       -7.920      231.672      131.731       78.935    53671.845    17352.995     6230.792       13.842        3.863      446.722       96.836        0.047      349.659       30.246      859.296
08/08/2014  17:58:00     -454.430      -68.191      -14.077      257.744      156.955       78.992    66432.064    24634.796     6239.702       15.431        4.865      459.518       91.584        0.040      349.647       30.224      859.306
08/08/2014  17:59:00     -301.671     -113.327        5.732      218.638      135.822       85.536    47802.405    18447.535     7316.358        8.871        3.678      322.255      102.652        0.101      349.680       30.282      859.279
08/08/2014  18:00:00     -341.946      -62.256       -7.279      171.491      167.974       85.402    29409.078    28215.267     7293.432        9.287        3.246      347.567       91.065        0.069      349.656       30.241      859.272
08/08/2014  18:01:00     -392.788      -12.125      -24.003      256.027      161.001       89.296    65549.657    25921.348     7973.764       12.721        4.972      392.975      116.783        0.088      349.672       30.269      859.288
08/08/2014  18:02:00     -448.445      -41.700      -45.070      184.174      198.271       91.037    33920.171    39311.375     8287.753       14.318        4.076      450.380       92.689        0.042      349.651       30.232      859.302
08/08/2014  18:03:00     -452.827     -202.152      -33.603      243.318      159.334       89.655    59203.630    25387.278     8038.000       16.982        4.631      495.901      105.173        0.045      349.610       30.161      859.300
08/08/2014  18:04:00     -521.305       99.178      -38.174      231.252      160.873       87.070    53477.567    25880.034     7581.230       18.498        4.347      530.655       85.433        0.026      349.622       30.182      859.300
08/08/2014  18:05:00     -494.671     -162.768       -2.926      306.729      225.456       97.798    94082.546    50830.210     9564.385       21.281        7.724      520.762      127.202        0.060      349.503       29.975      859.288
08/08/2014  18:06:00     -502.005     -156.259       -0.485      248.486      189.780      106.790    61745.477    36016.465    11404.122       19.277        5.458      525.762      107.625        0.042      349.485       29.944      859.287
08/08/2014  18:07:00     -459.336      -38.200      -20.502      203.908      153.501       85.364    41578.604    23562.497     7286.937       14.263        3.621      460.922       83.477        0.033      349.555       30.065      859.296
08/08/2014  18:08:00     -279.119     -174.561       -2.697      115.840      135.561       65.299    13418.863    18376.876     4263.908        7.222        1.803      329.209       65.175        0.039      349.568       30.088      859.330
08/08/2014  18:09:00     -245.712     -178.045       10.857      206.899      154.467       89.384    42807.024    23860.184     7989.571        8.341        3.733      303.438      111.898        0.136      349.561       30.077      859.314
08/08/2014  18:10:00     -231.600     -182.854      -14.949      166.956      151.725       83.215    27874.387    23020.353     6924.737        7.255        2.891      295.083       83.748        0.081      349.552       30.062      859.335
08/08/2014  18:11:00     -418.146     -160.031      -18.242      189.038      148.548       91.987    35735.504    22066.494     8461.519       13.351        3.313      447.723       89.932        0.040      349.464       29.907      859.329
08/08/2014  18:12:00     -312.365     -134.340      -12.498      130.157      121.975       69.659    16940.951    14878.003     4852.322        7.622        1.834      340.028       62.457        0.034      349.507       29.982      859.346
08/08/2014  18:13:00     -191.740     -135.063      -12.295      226.426      218.536      106.274    51268.624    47757.983    11294.101        8.272        5.516      234.534      124.031        0.280      349.515       29.996      859.335
08/08/2014  18:14:00     -310.711     -224.548        6.051      226.702      133.980       98.454    51393.779    17950.507     9693.110       11.300        3.952      383.358      123.731        0.104      349.441       29.867      859.307
08/08/2014  18:15:00     -297.668      -79.034      -15.124      184.209      110.597       59.849    33932.993    12231.769     3581.930        7.240        2.487      307.981       69.064        0.050      349.521       30.007      859.344
08/08/2014  18:16:00     -479.182      -41.183      -41.478      235.288      168.873       93.439    55360.609    28518.177     8730.837       16.280        4.630      480.949      112.833        0.055      349.454       29.890      859.356
08/08/2014  18:17:00     -314.741      -48.849        1.338      176.161      148.694       73.116    31032.859    22109.938     5345.973        7.996        2.924      318.509       77.301        0.059      349.526       30.014      859.368
08/08/2014  18:18:00     -245.552     -176.086       -3.709      192.383      155.750       91.201    37011.368    24258.097     8317.551        8.044        3.479      302.162       96.064        0.101      349.452       29.886      859.361
08/08/2014  18:19:00     -241.182     -175.946       20.829      167.008      177.279       93.586    27891.606    31427.722     8758.255        7.881        3.404      298.539       93.890        0.099      349.439       29.862      859.353
08/08/2014  18:20:00     -387.319     -101.435       -9.478      208.711      140.122       78.387    43560.095    19634.050     6144.559       11.485        3.467      400.382      100.064        0.062      349.449       29.881      859.373
08/08/2014  18:21:00     -191.661     -109.134       22.582      194.585      154.169       77.792    37863.396    23767.963     6051.620        5.840        3.384      220.554       68.601        0.097      349.468       29.915      859.389
08/08/2014  18:22:00     -234.702     -175.301        7.965      148.748       95.409       68.658    22125.881     9102.916     4713.880        6.090        1.797      292.943       79.544        0.074      349.508       29.983      859.375
08/08/2014  18:23:00     -120.251      -62.194        9.457      115.287       75.043       56.128    13290.982     5631.400     3150.364        2.024        1.104      135.383       63.986        0.223      349.598       30.143      859.391
08/08/2014  18:24:00     -254.116      -47.690       -3.791      138.175      121.023       59.016    19092.333    14646.520     3482.858        5.204        1.861      258.553       65.154        0.064      349.556       30.065      859.426
08/08/2014  18:25:00     -209.794      -43.884        3.748      132.209      117.606       60.276    17479.257    13831.090     3633.220        4.044        1.747      214.335       62.838        0.086      349.572       30.093      859.445
08/08/2014  18:26:00     -277.172     -141.274      -11.608      125.397      155.929       64.131    15724.398    24313.961     4112.804        7.053        2.208      311.099       60.888        0.038      349.469       29.915      859.437
08/08/2014  18:27:00     -186.100     -120.870        7.407      138.745       99.686       65.301    19250.105     9937.240     4264.181        4.137        1.673      221.907       72.802        0.108      349.470       29.918      859.431
08/08/2014  18:28:00     -256.021      -92.964        9.878      251.089      126.091       95.603    63045.689    15898.837     9139.924        8.117        4.404      272.377      120.095        0.194      349.454       29.890      859.440
08/08/2014  18:29:00     -491.514      -60.209      -13.438      216.095      175.888      108.323    46696.959    30936.563    11733.776       16.736        4.468      495.188      108.607        0.048      349.300       29.622      859.448
08/08/2014  18:30:00     -400.760     -201.642      -11.499      167.097      127.752       85.262    27921.285    16320.653     7269.588       12.645        2.576      448.629       84.348        0.035      349.293       29.612      859.457
08/08/2014  18:31:00     -473.536     -152.535      -16.691      217.727      167.661       94.033    47404.883    28110.132     8842.263       16.605        4.218      497.497       85.124        0.029      349.251       29.539      859.449
08/08/2014  18:32:00     -451.621     -100.727      -26.963      200.225      205.258       97.349    40089.856    42130.733     9476.822       15.325        4.585      462.718       98.759        0.046      349.233       29.507      859.456
08/08/2014  18:33:00     -524.032      -77.898      -21.791      218.617      181.251       74.823    47793.466    32852.020     5598.435       18.368        4.312      529.790       74.025        0.020      349.235       29.511      859.473
08/08/2014  18:34:00     -418.688      -41.637      -24.067      163.868      159.439       85.406    26852.624    25420.726     7294.212       11.858        2.978      420.753       77.573        0.034      349.235       29.509      859.463
08/08/2014  18:35:00     -378.043      -89.696      -10.786      134.942      157.071       66.337    18209.448    24671.273     4400.597        9.917        2.364      388.539       49.270        0.016      349.222       29.489      859.485
08/08/2014  18:36:00     -446.891     -132.093      -11.753      227.060      196.346      108.367    51556.332    38551.788    11743.409       15.955        5.093      466.004      120.115        0.066      349.153       29.368      859.486
08/08/2014  18:37:00     -418.235     -135.178       -7.614      175.772      131.112       75.687    30895.911    17190.249     5728.493       12.352        2.691      439.538       90.395        0.042      349.129       29.325      859.487
08/08/2014  18:38:00     -485.356     -176.750      -13.745      261.423      213.223       97.928    68342.074    45464.103     9589.887       19.517        6.170      516.538      108.900        0.044      349.085       29.250      859.484
08/08/2014  18:39:00     -220.800      -84.974       13.459      227.673      169.692       92.544    51835.094    28795.295     8564.409        7.266        4.460      236.587      108.818        0.212      349.138       29.342      859.505
08/08/2014  18:40:00     -339.067     -113.669       -2.561      144.538      123.114       81.346    20891.334    15157.144     6617.094        8.527        2.133      357.613       60.083        0.028      349.110       29.292      859.527
08/08/2014  18:41:00     -460.178     -141.385      -35.386      224.296      158.801       89.011    50308.531    25217.844     7922.925       15.821        4.172      481.408      100.381        0.043      349.069       29.221      859.524
08/08/2014  18:42:00     -287.982     -153.607       -0.560      242.830      207.602      118.928    58966.558    43098.504    14143.807       11.135        5.810      326.388      131.766        0.163      349.048       29.186      859.521
08/08/2014  18:43:00     -273.241     -203.465       -6.420      248.099      188.784      105.022    61553.011    35639.336    11029.613       11.214        5.411      340.673      121.402        0.127      349.060       29.205      859.544
08/08/2014  18:44:00     -593.957     -182.296      -32.622      196.752      227.593       96.562    38711.304    51798.624     9324.296       24.344        4.992      621.302       98.275        0.025      349.018       29.135      859.545
08/08/2014  18:45:00     -362.845     -146.403        5.938      253.408      151.541       98.860    64215.409    22964.684     9773.305       12.502        4.848      391.267      117.338        0.090      349.053       29.197      859.564
08/08/2014  18:46:00     -323.752     -233.060       -2.699      211.681      171.439       87.828    44808.949    29391.353     7713.728       12.051        4.096      398.913      100.737        0.064      349.047       29.185      859.557
08/08/2014  18:47:00     -377.784     -228.167      -10.268      204.414      146.499       87.365    41784.967    21462.082     7632.569       13.287        3.544      441.340       97.441        0.049      349.034       29.162      859.566
08/08/2014  18:48:00     -290.780     -129.158      -13.416      173.547      127.111       72.140    30118.620    16157.082     5204.221        7.644        2.574      318.174       63.161        0.039      349.071       29.228      859.575
08/08/2014  18:49:00     -297.152     -146.862       -7.302      172.521      110.120       72.974    29763.656    12126.449     5325.169        7.856        2.361      331.463       71.159        0.046      349.052       29.194      859.568
08/08/2014  18:50:00     -260.803     -177.084       -7.767      208.480      201.062      115.814    43463.740    40425.926    13412.808        9.835        4.865      315.241      115.403        0.134      348.996       29.096      859.550
08/08/2014  18:51:00     -399.544     -161.480        6.495      233.107      182.325       91.176    54339.017    33242.354     8313.151       14.080        4.795      430.942       98.025        0.052      348.969       29.051      859.541
08/08/2014  18:52:00     -364.764     -259.597       -7.523      251.440      159.194      107.021    63221.879    25342.696    11453.501       15.024        5.001      447.709      107.089        0.057      348.969       29.049      859.531
08/08/2014  18:53:00     -325.566     -183.817       -1.750      205.727      129.498       83.620    42323.733    16769.770     6992.294       10.292        3.304      373.874       95.249        0.065      348.990       29.088      859.565
08/08/2014  18:54:00     -391.262      -97.831       -9.718      192.470      136.535       82.558    37044.526    18641.754     6815.762       11.261        3.125      403.307       92.838        0.053      348.962       29.039      859.552
08/08/2014  18:55:00     -376.861     -175.302       -0.876      173.390      151.348       84.677    30063.948    22906.208     7170.265       11.644        3.007      415.638       90.151        0.047      348.953       29.022      859.563
08/08/2014  18:56:00     -266.068     -213.479       10.977      205.397      190.213       94.748    42188.096    36181.011     8977.222       10.190        4.367      341.124      112.942        0.110      348.949       29.015      859.573
08/08/2014  18:57:00     -373.247     -246.366        3.257      215.867      149.847       89.201    46598.664    22454.047     7956.773       13.850        3.850      447.224      107.625        0.058      348.924       28.971      859.561
08/08/2014  18:58:00     -498.049     -326.390      -23.851      196.632      142.933       90.178    38664.104    20429.854     8132.105       21.118        3.361      595.469       94.125        0.025      348.891       28.915      859.583
08/08/2014  18:59:00     -400.676     -192.276      -18.739      239.948      149.672       93.926    57575.128    22401.759     8822.079       14.331        4.440      444.422      102.386        0.053      348.899       28.930      859.588
08/08/2014  19:00:00     -465.194     -308.053      -13.727      254.188      162.838      122.542    64611.411    26516.195    15016.504       20.880        5.307      557.945      142.242        0.065      348.876       28.888      859.572
08/08/2014  19:01:00     -349.649     -227.187      -12.772      179.937      139.751       72.412    32377.502    19530.308     5243.550       11.558        2.858      416.975       84.094        0.041      348.886       28.906      859.591
08/08/2014  19:02:00     -334.492     -221.426       -4.036      200.500      181.563       97.295    40200.123    32965.138     9466.314       12.176        4.132      401.141      104.212        0.067      348.875       28.887      859.583
08/08/2014  19:03:00     -307.935     -192.014        6.266      218.570      183.638      104.689    47772.818    33722.832    10959.884       11.208        4.623      362.896      123.300        0.115      348.890       28.914      859.577
08/08/2014  19:04:00     -309.548     -106.560       -1.863      176.139      135.427       71.663    31024.935    18340.356     5135.604        8.083        2.725      327.376       64.891        0.039      348.901       28.932      859.615
08/08/2014  19:05:00     -383.029     -180.050        2.484      253.592      188.502      120.762    64309.016    35532.892    14583.436       14.676        5.721      423.237      140.232        0.110      348.822       28.795      859.602
08/08/2014  19:06:00     -341.782      -85.422       -5.715      210.122      194.662       87.339    44151.103    37893.267     7628.141       10.689        4.484      352.295       67.557        0.037      348.792       28.743      859.608
08/08/2014  19:07:00     -433.246     -144.934      -13.280      258.661      170.632      106.674    66905.716    29115.427    11379.403       15.812        5.370      456.846      125.327        0.075      348.770       28.706      859.612
08/08/2014  19:08:00     -395.940      -89.967       -3.027      222.761      153.048       86.754    49622.626    23423.698     7526.192       12.271        4.029      406.033       97.266        0.057      348.742       28.657      859.623
08/08/2014  19:09:00     -392.384     -320.756      -19.846      273.296      239.305      103.184    74690.730    57266.910    10646.985       19.990        7.130      506.803      131.615        0.067      348.736       28.647      859.602
08/08/2014  19:10:00     -407.097     -208.636       -8.597      152.409      140.708       76.020    23228.567    19798.708     5779.037       12.906        2.440      457.446       72.605        0.025      348.714       28.609      859.641
08/08/2014  19:11:00     -220.684      -96.761        0.454      153.832      117.897       72.898    23664.401    13899.819     5314.180        5.046        2.144      240.965       67.041        0.077      348.707       28.598      859.648
08/08/2014  19:12:00     -315.206     -154.575      -20.420      185.200      186.193       83.671    34299.018    34667.703     7000.887        9.980        3.798      351.068       86.818        0.061      348.684       28.557      859.671
08/08/2014  19:13:00     -284.959      -55.167        5.674      164.691      142.983       73.987    27122.989    20444.133     5474.051        6.865        2.652      290.250       81.840        0.080      348.668       28.529      859.672
08/08/2014  19:14:00     -243.054     -171.760       -3.583      186.630      134.127       80.585    34830.659    17989.996     6493.879        7.394        2.966      297.618       99.731        0.112      348.647       28.491      859.697
08/08/2014  19:15:00     -312.707      -74.596       -7.190      187.101      147.361       83.033    35006.759    21715.302     6894.426        8.350        3.181      321.482       89.559        0.078      348.634       28.469      859.704
08/08/2014  19:16:00     -203.528      -85.147        4.759      188.383      111.372       74.226    35487.981    12403.797     5509.496        5.104        2.670      220.621       89.916        0.166      348.630       28.464      859.708
08/08/2014  19:17:00     -254.016     -142.528       -0.643      170.868       84.049       61.481    29196.005     7064.219     3779.909        6.243        2.002      291.270       72.607        0.062      348.618       28.442      859.716
08/08/2014  19:18:00     -345.941     -179.133       -4.636      246.935      162.725       97.734    60977.000    26479.549     9551.938       12.438        4.850      389.569      120.746        0.096      348.579       28.373      859.707
08/08/2014  19:19:00     -358.397     -217.664      -18.519      219.999      146.493       96.496    48399.640    21460.217     9311.411       12.765        3.959      419.316      101.383        0.058      348.579       28.374      859.715
08/08/2014  19:20:00     -365.727     -214.160        0.353      253.567      168.987       97.844    64296.374    28556.605     9573.356       14.100        5.121      423.817      116.769        0.076      348.548       28.318      859.744
08/08/2014  19:21:00     -505.749     -159.447      -16.926      239.227      203.356       91.166    57229.677    41353.738     8311.295       19.417        5.345      530.288      106.487        0.040      348.557       28.336      859.750
08/08/2014  19:22:00     -332.920     -185.246        1.193      206.202      142.621       89.644    42519.312    20340.752     8036.011       10.801        3.545      380.988      105.829        0.077      348.546       28.317      859.752
08/08/2014  19:23:00     -317.334     -173.693        7.677      219.469      154.179       79.202    48166.596    23771.012     6272.944       10.455        3.911      361.759      103.242        0.081      348.512       28.259      859.747
08/08/2014  19:24:00     -319.084     -205.802      -18.838      224.297      156.290       93.603    50309.221    24426.445     8761.491       11.399        4.175      379.696      100.271        0.070      348.520       28.272      859.761
08/08/2014  19:25:00     -375.447     -182.502       11.214      223.102      179.128      102.312    49774.379    32086.939    10467.810       13.334        4.616      417.454      114.435        0.075      348.503       28.243      859.759
08/08/2014  19:26:00     -376.375     -247.377       10.051      262.403      217.337      125.456    68855.110    47235.221    15739.206       16.737        6.591      450.393      135.573        0.091      348.467       28.180      859.764
08/08/2014  19:27:00     -529.492     -193.601      -19.260      248.627      198.503      104.582    61815.226    39403.583    10937.460       21.516        5.608      563.776      104.571        0.034      348.460       28.169      859.773
08/08/2014  19:28:00     -457.498     -287.046      -14.579      230.451      157.053       96.752    53107.646    24665.592     9360.935       18.951        4.357      540.092      113.177        0.044      348.463       28.174      859.778
08/08/2014  19:29:00     -435.171     -209.164      -19.677      254.573      188.170      103.806    64807.403    35407.859    10775.678       17.223        5.550      482.829      128.090        0.070      348.444       28.142      859.785
08/08/2014  19:30:00     -431.977     -215.397      -11.279      213.167      166.594       89.224    45440.034    27753.449     7961.009       15.712        4.058      482.701      104.873        0.047      348.436       28.128      859.805
08/08/2014  19:31:00     -374.011     -230.619      -14.912      199.634      173.771       99.280    39853.607    30196.211     9856.551       13.658        3.995      439.396      101.190        0.053      348.429       28.115      859.790
08/08/2014  19:32:00     -465.786     -281.952      -29.874      267.721      224.838      115.302    71674.279    50552.159    13294.598       21.641        6.776      544.475      130.314        0.057      348.389       28.045      859.767
08/08/2014  19:33:00     -431.696     -284.705      -15.445      208.275      224.795      104.774    43378.399    50532.700    10977.506       18.625        5.244      517.125      113.216        0.048      348.380       28.032      859.774
08/08/2014  19:34:00     -387.864     -191.797       -3.785      194.706      185.794       83.648    37910.484    34519.392     6996.905       13.332        3.971      432.695       87.727        0.041      348.372       28.017      859.802
08/08/2014  19:35:00     -361.006     -242.211        8.760      230.139      191.945      107.520    52963.949    36843.074    11560.458       14.520        5.068      434.731      128.539        0.087      348.357       27.992      859.798
08/08/2014  19:36:00     -414.246     -335.809       -6.828      212.906      169.136      110.284    45328.767    28607.148    12162.568       18.524        4.305      533.262      124.857        0.055      348.330       27.944      859.840
08/08/2014  19:37:00     -337.324     -175.330        3.712      171.766      126.410       63.403    29503.626    15979.394     4019.891        9.701        2.475      380.168       67.167        0.031      348.325       27.935      859.897
08/08/2014  19:38:00     -453.600     -225.804      -19.160      207.954      148.301       97.187    43244.820    21993.284     9445.378       16.588        3.734      506.696      116.538        0.053      348.312       27.911      859.912
08/08/2014  19:39:00     -302.460      -93.037      -16.724      195.809      184.518       89.667    38341.282    34046.807     8040.214        9.041        4.021      316.446       94.386        0.089      348.286       27.867      859.914
08/08/2014  19:40:00     -256.138     -136.804        4.031      231.785      173.821      112.525    53724.309    30213.864    12661.790        9.045        4.830      290.382      130.992        0.203      348.275       27.848      859.920
08/08/2014  19:41:00     -342.013     -229.622      -19.220      200.469      195.247       93.397    40187.685    38121.285     8722.972       12.853        4.352      411.945      111.210        0.073      348.290       27.873      859.936
08/08/2014  19:42:00     -305.047     -197.251      -12.411      240.435      139.219      106.620    57808.978    19382.002    11367.893       11.032        4.428      363.265      121.737        0.112      348.271       27.843      859.950
08/08/2014  19:43:00     -314.186     -205.280      -26.186      224.314      185.707      113.840    50316.809    34487.032    12959.501       11.963        4.888      375.303      118.170        0.099      348.260       27.822      859.977
08/08/2014  19:44:00     -494.766     -236.103      -13.088      250.348      206.815      103.879    62674.118    42772.353    10790.927       20.845        5.812      548.214      115.500        0.044      348.252       27.807      859.985
08/08/2014  19:45:00     -303.294     -145.339      -12.447      156.623      187.437       88.719    24530.687    35132.472     7871.092        9.039        3.377      336.319       92.701        0.076      348.241       27.790      859.998
08/08/2014  19:46:00     -356.163     -131.999       -3.304      158.952      170.977       93.044    25265.597    29233.242     8657.116       10.371        3.158      379.836      100.958        0.071      348.209       27.735      860.019
08/08/2014  19:47:00     -378.805     -229.518        5.988      250.329      167.086       98.313    62664.411    27917.730     9665.379       14.821        5.012      442.913      112.003        0.064      348.197       27.714      860.025
08/08/2014  19:48:00     -290.923     -150.736       -6.159      204.935      188.424      103.459    41998.365    35503.571    10703.821        9.778        4.410      327.654      115.674        0.125      348.185       27.693      860.014
08/08/2014  19:49:00     -228.846     -151.601       -4.672      176.750      147.554       68.975    31240.488    21772.291     4757.496        6.656        2.889      274.506       49.931        0.033      348.158       27.648      860.043
08/08/2014  19:50:00     -535.685     -146.487      -16.530      234.233      230.970       97.170    54864.909    53346.929     9441.953       21.315        5.883      555.353      124.449        0.050      348.171       27.668      860.033
08/08/2014  19:51:00     -539.393     -242.680      -21.979      219.828      214.076       86.008    48324.384    45828.583     7397.326       22.592        5.078      591.471      100.930        0.029      348.132       27.603      860.057
08/08/2014  19:52:00     -349.486     -119.561       -7.302      184.627      159.062       72.798    34086.972    25300.680     5299.613       10.058        3.234      369.372       80.472        0.047      348.120       27.582      860.074
08/08/2014  19:53:00     -297.173     -148.040       -5.251      178.794      182.872       79.310    31967.151    33442.046     6290.112        9.096        3.585      332.006       88.693        0.071      348.107       27.558      860.097
08/08/2014  19:54:00     -245.265     -167.429        7.866      205.559      138.160       78.051    42254.600    19088.158     6092.009        7.783        3.372      296.964      102.917        0.120      348.087       27.523      860.124
08/08/2014  19:55:00     -400.584     -163.678      -12.803      219.018      129.643       85.795    47968.735    16807.249     7360.758       12.976        3.607      432.733      105.631        0.060      348.090       27.528      860.135
08/08/2014  19:56:00     -311.029     -162.551      -14.768      196.167      111.595       75.961    38481.535    12453.471     5770.120        9.003        2.835      350.945       88.868        0.064      348.050       27.460      860.146
08/08/2014  19:57:00     -234.271     -133.633      -11.412      126.694      117.439       59.843    16051.367    13792.031     3581.164        5.314        1.671      269.705       66.450        0.061      348.055       27.469      860.146
08/08/2014  19:58:00     -408.436     -170.681      -16.282      239.774      176.351       93.576    57491.447    31099.659     8756.492       14.676        4.867      442.665      112.382        0.064      348.034       27.432      860.126
08/08/2014  19:59:00     -206.252      -70.146       -1.592      180.076      131.263       87.573    32427.342    17230.009     7669.084        5.238        2.866      217.854       92.861        0.182      348.008       27.387      860.141
08/08/2014  20:00:00     -287.711      -68.338       -3.252      180.541      146.486       70.110    32595.194    21458.209     4915.473        7.320        2.948      295.716       86.069        0.085      347.971       27.323      860.170
08/08/2014  20:01:00     -298.610      -26.662      -23.497      140.718       87.240       70.346    19801.468     7610.863     4948.526        6.139        1.618      299.798       72.594        0.059      347.961       27.308      860.195
08/08/2014  20:02:00     -258.155      -88.326        5.706      187.816      117.329       76.636    35274.963    13766.119     5873.137        6.468        2.746      272.847       89.985        0.109      347.928       27.251      860.217
08/08/2014  20:03:00     -348.172     -176.165      -10.797      171.310      176.452       91.279    29347.076    31135.468     8331.869       11.058        3.441      390.202       86.152        0.049      347.930       27.253      860.222
08/08/2014  20:04:00     -314.450     -124.651       -0.915      204.140      162.602       80.792    41673.184    26439.566     6527.394        9.451        3.732      338.255       95.908        0.080      347.906       27.211      860.230
08/08/2014  20:05:00     -177.544      -55.330       16.087      141.199      115.531       64.892    19937.078    13347.370     4210.969        3.616        1.875      185.966       71.663        0.149      347.874       27.157      860.252
08/08/2014  20:06:00     -263.696     -127.723       -2.244      156.319      147.692       67.820    24435.478    21813.051     4599.506        6.834        2.542      293.000       73.929        0.064      347.877       27.162      860.250
08/08/2014  20:07:00     -314.987      -84.994       -9.563      141.682      136.166       66.742    20073.885    18541.271     4454.455        7.479        2.153      326.252       64.773        0.039      347.844       27.105      860.277
08/08/2014  20:08:00     -190.034     -106.931        2.178      111.898       78.334       50.653    12521.144     6136.177     2565.702        3.438        1.061      218.053       46.474        0.045      347.830       27.081      860.291
08/08/2014  20:09:00     -289.054      -83.836       11.025      224.604      136.842       74.512    50446.828    18725.817     5552.035        8.270        3.736      300.966      100.184        0.111      347.826       27.071      860.280
08/08/2014  20:10:00     -466.686     -158.003      -23.485      182.397      173.171      100.106    33268.742    29988.320    10021.301       15.828        3.664      492.708       93.602        0.036      347.829       27.078      860.269
08/08/2014  20:11:00     -462.308     -170.453      -32.419      217.014      145.646       82.883    47095.126    21212.787     6869.542       15.949        3.759      492.730       92.182        0.035      347.823       27.069      860.289
08/08/2014  20:12:00     -289.024     -120.382       -9.823      127.880      113.425       64.272    16353.364    12865.329     4130.940        6.573        1.667      313.092       58.793        0.035      347.797       27.022      860.310
08/08/2014  20:13:00     -493.559     -215.052      -38.869      243.923      176.252       72.509    59498.211    31064.634     5257.563       19.357        4.791      538.376       68.786        0.016      347.807       27.039      860.317
08/08/2014  20:14:00     -410.313     -128.390       -0.992      183.286      176.017       89.376    33593.621    30982.126     7988.118       12.869        3.628      429.931       88.567        0.042      347.782       26.997      860.339
08/08/2014  20:15:00     -434.305     -151.334      -11.269      203.446      130.531       82.638    41390.126    17038.441     6829.063       13.844        3.263      459.916       90.058        0.038      347.753       26.947      860.379
08/08/2014  20:16:00     -233.648      -96.317        0.396      161.672      133.024       74.125    26137.825    17695.333     5494.572        5.659        2.466      252.722       78.079        0.095      347.751       26.944      860.354
08/08/2014  20:17:00     -190.885      -56.649        4.716      141.884       93.189       60.388    20130.982     8684.162     3646.714        3.606        1.623      199.114       70.259        0.125      347.742       26.929      860.370
08/08/2014  20:18:00     -347.999     -167.296      -20.857      133.000      143.549       74.895    17689.130    20606.396     5609.243        9.671        2.195      386.123       63.670        0.027      347.741       26.926      860.342
08/08/2014  20:19:00     -335.967     -128.480      -18.625      122.743      134.086       73.850    15065.774    17979.014     5453.817        8.411        1.925      359.696       72.537        0.041      347.714       26.879      860.344
08/08/2014  20:20:00     -297.023     -122.088        9.010      191.781      168.580       87.706    36779.784    28419.217     7692.280        8.804        3.645      321.135       95.883        0.089      347.699       26.854      860.337
08/08/2014  20:21:00     -354.100      -81.191       -6.684      153.661      145.345       79.389    23611.738    21125.242     6302.538        9.152        2.552      363.289       81.746        0.051      347.665       26.795      860.332
08/08/2014  20:22:00     -528.791      -54.964      -19.319      225.541      175.913       90.644    50868.572    30945.449     8216.375       18.650        4.502      531.639      100.055        0.035      347.657       26.781      860.359
08/08/2014  20:23:00     -405.553      -60.436       -6.334      207.846      139.116       78.868    43199.911    19353.232     6220.227       11.846        3.439      410.032       89.415        0.048      347.645       26.761      860.373
08/08/2014  20:24:00     -299.761      -36.398       -2.380      190.876      149.163       76.883    36433.796    22249.724     5910.989        7.788        3.230      301.963       78.374        0.067      347.614       26.708      860.385
08/08/2014  20:25:00     -372.384      -57.436      -13.835      184.180      123.994       78.543    33922.258    15374.485     6169.032        9.880        2.773      376.788       80.731        0.046      347.624       26.726      860.430
08/08/2014  20:26:00     -357.528      -21.296      -20.949      251.735      108.509       84.595    63370.691    11774.136     7156.393       10.549        4.115      358.162      117.223        0.107      347.636       26.746      860.444
08/08/2014  20:27:00     -282.218       14.568       -4.667      174.402      124.612       79.279    30416.102    15528.158     6285.208        6.604        2.611      282.594       78.904        0.078      347.619       26.715      860.428
08/08/2014  20:28:00     -400.153     -145.894      -18.889      132.007      108.014       71.032    17425.781    11666.919     5045.486       10.794        1.707      425.920       54.074        0.016      347.621       26.721      860.452
08/08/2014  20:29:00     -171.848      -42.860       -2.915      108.628      102.097       52.182    11799.948    10423.855     2722.978        2.816        1.247      177.112       42.499        0.058      347.578       26.647      860.477
08/08/2014  20:30:00     -240.738      -93.889       -6.418      115.442      126.767       59.202    13326.904    16069.935     3504.864        4.985        1.645      258.399       43.031        0.028      347.598       26.681      860.499
08/08/2014  20:31:00     -235.018       -5.685       -0.165      207.571      148.529       82.287    43085.666    22060.994     6771.074        6.358        3.596      235.087       83.760        0.127      347.578       26.648      860.529
08/08/2014  20:32:00     -368.489     -152.788      -11.746      168.512      190.650       84.079    28396.205    36347.452     7069.247       11.553        3.591      398.909       75.365        0.036      347.597       26.678      860.558
08/08/2014  20:33:00     -460.732      -87.886      -21.916      173.398      146.796       86.526    30066.894    21549.054     7486.824       13.978        2.955      469.039       93.490        0.040      347.604       26.688      860.598
08/08/2014  20:34:00     -398.386     -161.108      -18.305      197.590      150.379       77.840    39041.677    22613.775     6059.001       12.634        3.386      429.729       78.888        0.034      347.607       26.696      860.632
08/08/2014  20:35:00     -213.662      -65.914        8.498      120.381      115.634       55.530    14491.540    13371.145     3083.616        4.050        1.547      223.598       49.812        0.050      347.597       26.679      860.681
08/08/2014  20:36:00     -140.888      -39.220       -8.074      115.346       87.800       45.274    13304.756     7708.886     2049.756        2.225        1.153      146.245       46.512        0.101      347.575       26.643      860.696
08/08/2014  20:37:00     -176.832      -67.778       -3.835       86.466       78.971       53.390     7476.288     6236.475     2850.543        2.622        0.828      189.376       47.699        0.063      347.574       26.639      860.712
08/08/2014  20:38:00     -399.143      -44.063      -16.704      139.839      109.798       68.748    19555.075    12055.699     4726.221        9.893        1.817      401.568       66.736        0.028      347.574       26.640      860.732
08/08/2014  20:39:00     -270.729     -102.355      -11.470      149.276      140.334       71.753    22283.383    19693.726     5148.512        6.550        2.356      289.432       66.909        0.053      347.533       26.567      860.745
08/08/2014  20:40:00     -241.136     -150.815      -11.963      113.408      100.567       63.206    12861.347    10113.711     3995.008        5.400        1.349      284.414       61.994        0.048      347.540       26.581      860.769
08/08/2014  20:41:00     -196.055     -111.457       -8.474      122.752       76.243       45.289    15068.151     5812.941     2051.065        3.693        1.147      225.522       46.225        0.042      347.534       26.570      860.803
08/08/2014  20:42:00      -70.474      -10.242       21.858       80.661      102.651       53.867     6506.228    10537.142     2901.690        1.274        0.997       71.214       40.112        0.317      347.530       26.564      860.841
08/08/2014  20:43:00     -192.297      -23.765        5.011      151.958      105.080       50.354    23091.164    11041.783     2535.570        3.711        1.833      193.760       52.290        0.073      347.527       26.557      860.875
08/08/2014  20:44:00     -163.951       -5.936       -2.183       74.388       74.449       43.958     5533.639     5542.691     1932.310        1.996        0.650      164.059       44.684        0.074      347.520       26.547      860.925
08/08/2014  20:45:00     -151.374      -44.734       -8.132       59.037      100.924       34.512     3485.364    10185.609     1191.099        1.992        0.743      157.845       27.262        0.030      347.536       26.576      860.946
08/08/2014  20:46:00      -78.790      -40.493        6.547       69.540       62.171       42.797     4835.852     3865.279     1831.571        0.921        0.527       88.587       42.397        0.229      347.500       26.511      860.949
08/08/2014  20:47:00     -214.887      -29.485      -10.708      115.344      135.885       59.538    13304.271    18464.792     3544.729        4.123        1.766      216.900       38.067        0.031      347.459       26.439      860.961
08/08/2014  20:48:00     -404.869     -102.298      -11.432      136.807      109.805       65.393    18716.247    12057.181     4276.220       10.478        1.752      417.593       66.673        0.025      347.495       26.501      860.993
08/08/2014  20:49:00     -174.770       19.199        3.913      127.743       90.229       67.775    16318.179     8141.326     4593.443        2.998        1.453      175.821       71.430        0.165      347.475       26.470      861.007
08/08/2014  20:50:00     -302.798      -26.980      -14.279      147.383      145.508       66.554    21721.756    21172.524     4429.403        6.996        2.366      303.998       53.987        0.032      347.515       26.537      861.012
08/08/2014  20:51:00     -405.041      -93.135      -11.988      155.261      143.045       60.876    24106.023    20461.769     3705.893       11.057        2.414      415.611       51.608        0.015      347.492       26.497      861.075
08/08/2014  20:52:00     -376.745      -60.177      -13.542      157.100      118.053       67.125    24680.443    13936.604     4505.708        9.442        2.156      381.520       73.834        0.037      347.510       26.528      861.171
08/08/2014  20:53:00     -272.192        0.397      -19.160      110.956       98.212       58.125    12311.170     9645.636     3378.502        4.989        1.267      272.192       55.206        0.041      347.566       26.623      861.181
08/08/2014  20:54:00     -162.530      -71.758      -14.495       92.350       89.895       37.027     8528.523     8081.180     1371.031        2.487        0.899      177.666       33.370        0.035      347.530       26.564      861.164
08/08/2014  20:55:00     -123.519      -15.018       -3.707       73.527       70.271       32.333     5406.190     4938.031     1045.437        1.344        0.569      124.428       25.872        0.043      347.506       26.524      861.193
08/08/2014  20:56:00     -167.596      -40.713        4.050      134.980       96.164       56.540    18219.605     9247.544     3196.752        3.021        1.533      172.470       53.657        0.097      347.480       26.475      861.219
08/08/2014  20:57:00     -182.203      -43.062       -3.972       72.256       95.128       38.107     5220.908     9049.423     1452.123        2.539        0.786      187.222       35.517        0.036      347.491       26.496      861.188
08/08/2014  20:58:00     -279.856     -108.141      -12.740      100.105       68.627       45.406    10021.090     4709.674     2061.665        5.348        0.840      300.023       21.778        0.005      347.478       26.473      861.182
08/08/2014  20:59:00     -310.084       -6.762      -33.167      132.002      104.275       59.448    17424.506    10873.257     3534.092        6.456        1.592      310.157       51.438        0.028      347.456       26.433      861.269
08/08/2014  21:00:00     -284.634       33.111      -14.919      162.641      105.655       56.824    26452.205    11162.901     3228.996        6.158        2.042      286.554       65.272        0.052      347.427       26.384      861.268
08/08/2014  21:01:00     -275.211        6.809      -17.034      133.307       81.444       55.512    17770.844     6633.205     3081.578        5.178        1.374      275.295       66.298        0.058      347.438       26.405      861.251
08/08/2014  21:02:00     -382.042      -24.257      -16.238      179.779      138.865       73.901    32320.386    19283.579     5461.347       10.193        2.853      382.812       84.883        0.049      347.422       26.374      861.294
08/08/2014  21:03:00     -224.831       51.663      -18.271      102.059       69.034       43.284    10416.138     4765.697     1873.472        3.530        0.853      230.690       42.654        0.034      347.486       26.486      861.275
08/08/2014  21:04:00     -165.389      -36.550       -6.352       74.242       59.764       40.409     5511.881     3571.746     1632.904        1.972        0.536      169.379       21.208        0.016      347.481       26.480      861.265
08/08/2014  21:05:00     -221.486       -0.432      -25.947      110.396       98.557       52.635    12187.191     9713.438     2770.481        3.720        1.234      221.486       45.720        0.043      347.421       26.375      861.278
08/08/2014  21:06:00     -116.610       27.310       -6.800       79.719       60.820       31.603     6355.138     3699.039      998.751        1.272        0.553      119.766       40.082        0.112      347.367       26.283      861.252
08/08/2014  21:07:00     -104.852      -17.133        3.122      141.780       95.458       70.933    20101.440     9112.229     5031.491        2.276        1.712      106.242       78.077        0.540      347.384       26.314      861.306
08/08/2014  21:08:00     -179.386      -67.112       -7.452      223.280      122.343       57.527    49853.969    14967.827     3309.314        5.242        3.407      191.529       72.851        0.145      347.395       26.332      861.315
08/08/2014  21:09:00     -498.867     -169.801      -19.833      123.118      120.854       67.839    15158.034    14605.648     4602.145       15.622        1.718      526.973       55.226        0.011      347.433       26.397      861.287
08/08/2014  21:10:00     -419.148      -88.387      -36.450      190.709      142.780       82.767    36369.995    20386.224     6850.374       12.420        3.180      428.366       85.378        0.040      347.419       26.368      861.291
08/08/2014  21:11:00     -350.125        1.542      -24.140       86.693      119.911       57.014     7515.612    14378.752     3250.564        7.415        1.257      350.129       48.558        0.019      347.404       26.343      861.285
08/08/2014  21:12:00     -451.213      -72.843      -34.938      229.494      182.642       91.253    52667.577    33357.966     8327.181       15.222        4.718      457.055      113.068        0.061      347.375       26.296      861.292
08/08/2014  21:13:00     -408.259     -130.287      -28.080      145.878      128.516       72.268    21280.259    16516.444     5222.687       11.372        2.151      428.545       73.143        0.029      347.377       26.298      861.305
08/08/2014  21:14:00     -444.177     -127.744      -33.305      118.667      128.446       75.124    14081.831    16498.502     5643.566       12.547        1.811      462.181       61.702        0.018      347.413       26.360      861.343
08/08/2014  21:15:00     -194.985     -126.401       11.762      194.016      191.536       76.796    37642.224    36686.159     5897.633        6.716        4.011      232.371       88.896        0.146      347.439       26.407      861.360
08/08/2014  21:16:00     -101.073      -12.154       -2.077      136.204       78.796       46.351    18551.639     6208.754     2148.452        1.863        1.345      101.801       54.325        0.285      347.383       26.311      861.345
08/08/2014  21:17:00     -263.446      -57.346      -12.484      124.945      119.094       72.823    15611.157    14183.348     5303.249        5.397        1.755      269.615       63.740        0.056      347.379       26.301      861.330
08/08/2014  21:18:00     -204.244      -85.602       -3.367       92.644       98.241       48.420     8582.992     9651.318     2344.489        3.481        1.029      221.457       41.133        0.034      347.323       26.207      861.349
08/08/2014  21:19:00     -430.087       35.815      -36.495      148.908      131.506       61.503    22173.472    17293.878     3782.680       11.541        2.163      431.575       62.998        0.021      347.306       26.177      861.372
08/08/2014  21:20:00     -204.217      -84.474       11.103      153.796       93.005       74.486    23653.172     8649.893     5548.129        4.340        1.893      220.998       80.744        0.133      347.245       26.073      861.369
08/08/2014  21:21:00     -298.870      -90.631      -29.659      163.190      119.765       58.998    26631.053    14343.570     3480.808        7.143        2.223      312.310       56.999        0.033      347.251       26.082      861.364
08/08/2014  21:22:00     -419.230     -119.717      -28.607      158.937      104.392       68.908    25261.107    10897.614     4748.334       11.590        2.045      435.988       74.551        0.029      347.261       26.099      861.359
08/08/2014  21:23:00     -322.735      -92.967      -13.599      125.303      116.316       65.116    15700.884    13529.378     4240.106        7.322        1.674      335.858       69.172        0.042      347.234       26.051      861.375
08/08/2014  21:24:00     -189.889     -102.186      -13.829      132.284      106.313       61.182    17498.925    11302.355     3743.247        3.961        1.627      215.638       39.905        0.034      347.242       26.067      861.359
08/08/2014  21:25:00      -95.732     -101.338        7.594      120.778       84.180       55.593    14587.214     7086.288     3090.559        2.212        1.238      139.405       55.070        0.156      347.204       26.001      861.345
08/08/2014  21:26:00     -206.592       19.126       -7.924      111.236      118.820       45.939    12373.421    14118.224     2110.384        3.585        1.430      207.476       47.864        0.053      347.208       26.007      861.335
08/08/2014  21:27:00     -178.484      -33.870       -0.085      125.381      109.212       54.154    15720.288    11927.321     2932.639        3.179        1.529      181.670       45.538        0.063      347.149       25.907      861.319
08/08/2014  21:28:00     -277.521     -147.210        0.448      134.758      138.979       69.881    18159.736    19315.217     4883.423        7.052        2.118      314.147       71.928        0.052      347.172       25.944      861.341
08/08/2014  21:29:00     -238.406      103.089      -18.928      127.275      166.323       70.846    16198.920    27663.187     5019.173        5.834        2.444      259.740       65.852        0.064      347.230       26.046      861.305
08/08/2014  21:30:00     -144.015       -1.158        4.478       98.260      121.226       55.402     9655.015    14695.780     3069.362        2.409        1.371      144.020       47.810        0.110      347.185       25.971      861.267
08/08/2014  21:31:00     -276.973      -96.364      -23.414      195.439      127.101       76.206    38196.388    16154.766     5807.341        7.334        3.008      293.257       74.210        0.064      347.181       25.962      861.302
08/08/2014  21:32:00     -354.212      -96.851        5.768      245.455      153.462      100.061    60248.076    23550.521    10012.186       11.433        4.691      367.215      119.320        0.106      347.176       25.953      861.272
08/08/2014  21:33:00     -419.749      -81.216      -19.098      200.807      171.971       81.315    40323.312    29573.857     6612.148       12.981        3.825      427.534       96.526        0.051      347.174       25.949      861.314
08/08/2014  21:34:00     -279.135       -7.354      -10.596      105.364      121.291       66.462    11101.531    14711.485     4417.192        5.415        1.512      279.232       45.571        0.027      347.148       25.905      861.341
08/08/2014  21:35:00     -308.919       -8.579       -6.340      189.907      120.296       67.845    36064.846    14471.122     4603.002        7.533        2.757      309.038       81.342        0.069      347.140       25.890      861.339
08/08/2014  21:36:00     -297.938     -126.690       -9.470      160.336      101.432       65.038    25707.603    10288.510     4229.942        7.256        2.011      323.755       62.409        0.037      347.144       25.897      861.334
08/08/2014  21:37:00     -345.314      -95.579       -6.713      126.857      120.214       59.570    16092.604    14451.366     3548.590        8.125        1.705      358.297       68.705        0.037      347.070       25.769      861.344
08/08/2014  21:38:00     -191.982       -4.697       -8.755      137.292       89.126       43.616    18849.187     7943.479     1902.358        3.282        1.435      192.039       48.387        0.063      347.034       25.709      861.351
08/08/2014  21:39:00     -150.040       12.045       -3.775      101.910       88.315       45.717    10385.598     7799.537     2090.084        2.147        1.014      150.522       43.302        0.083      347.026       25.694      861.341
08/08/2014  21:40:00     -279.619       11.360      -26.111      130.315       89.875       46.174    16981.885     8077.560     2131.994        5.309        1.360      279.850       50.594        0.033      347.051       25.737      861.329
08/08/2014  21:41:00     -235.375       -7.889      -13.959       87.918       74.466       51.362     7729.495     5545.254     2638.096        3.578        0.796      235.508       44.484        0.036      347.031       25.702      861.315
08/08/2014  21:42:00     -277.468        0.251       -2.028      169.980       94.779       61.357    28893.285     8983.106     3764.629        5.931        2.082      277.468       80.548        0.084      347.097       25.817      861.319
08/08/2014  21:43:00     -292.596      -12.134      -21.121      131.866       77.049       49.164    17388.598     5936.557     2417.089        5.597        1.287      292.848       57.030        0.038      347.117       25.851      861.335
08/08/2014  21:44:00     -173.495        3.613       -8.024       90.585       64.812       50.538     8205.657     4200.621     2554.059        2.257        0.748      173.532       56.279        0.105      347.075       25.780      861.327
08/08/2014  21:45:00     -337.687      -20.190      -39.576      118.534      105.238       56.465    14050.220    11075.106     3188.305        7.215        1.416      338.290       62.111        0.034      347.077       25.780      861.319
08/08/2014  21:46:00     -232.221      -86.613       -4.928      111.458       91.634       52.885    12422.997     8396.827     2796.860        4.253        1.181      247.848       50.306        0.041      346.986       25.625      861.326
08/08/2014  21:47:00     -360.962      -47.771      -16.254      166.385      135.411       82.008    27684.081    18336.094     6725.380        9.278        2.637      364.109       94.355        0.067      347.045       25.725      861.329
08/08/2014  21:48:00     -342.056      -44.856       -5.925      154.811      135.420       70.803    23966.428    18338.471     5013.022        8.317        2.366      344.985       77.478        0.050      347.048       25.731      861.338
08/08/2014  21:49:00     -372.151       23.878      -15.865      220.763      137.707       70.383    48736.172    18963.329     4953.758       10.597        3.633      372.917       87.132        0.055      347.046       25.729      861.339
08/08/2014  21:50:00     -321.531       -0.028      -12.833      107.192      129.332       55.831    11490.166    16726.884     3117.122        6.743        1.567      321.531       45.791        0.020      347.020       25.682      861.371
08/08/2014  21:51:00     -202.166      -26.258      -21.864      155.293      100.786       52.510    24116.016    10157.773     2757.251        3.953        1.852      203.864       58.526        0.082      347.007       25.661      861.391
08/08/2014  21:52:00     -175.331      -11.450       -8.066       97.124       80.889       46.085     9433.104     6542.969     2123.854        2.451        0.905      175.704       45.879        0.068      346.948       25.559      861.395
08/08/2014  21:53:00     -251.319      -83.867      -11.535      139.706      147.177       68.601    19517.760    21661.214     4706.157        5.810        2.294      264.944       63.863        0.058      346.986       25.626      861.364
08/08/2014  21:54:00     -195.280      -28.458       -6.961      155.558       87.645       62.527    24198.411     7681.732     3909.606        3.738        1.789      197.343       71.172        0.130      346.885       25.453      861.392
08/08/2014  21:55:00     -326.450     -132.978        0.070      178.311      143.986       66.916    31794.851    20732.033     4477.709        9.062        2.850      352.495       75.954        0.046      346.919       25.510      861.375
08/08/2014  21:56:00     -347.884      -48.691      -11.138      193.902      163.206       83.497    37597.865    26636.226     6971.680        9.735        3.560      351.275      100.137        0.081      346.889       25.459      861.385
08/08/2014  21:57:00     -337.518      -92.747      -24.291      138.844      133.515       76.028    19277.770    17826.342     5780.196        8.299        2.144      350.030       62.881        0.032      346.895       25.468      861.406
08/08/2014  21:58:00     -328.999      -74.002       -4.533      125.952      117.786       70.721    15863.993    13873.464     5001.396        7.423        1.737      337.219       66.509        0.039      346.836       25.368      861.421
08/08/2014  21:59:00     -335.591      -95.292      -13.777      179.281      142.764       73.786    32141.703    20381.634     5444.359        8.992        2.898      348.858       86.194        0.061      346.857       25.403      861.386
08/08/2014  22:00:00     -329.519        6.148      -25.419      114.040       85.246       54.176    13005.111     7266.903     2935.089        6.623        1.160      329.577       59.758        0.033      346.827       25.352      861.409
08/08/2014  22:01:00     -352.248      -34.584      -29.365      133.254      113.590       57.057    17756.613    12902.773     3255.556        8.002        1.696      353.941       55.013        0.024      346.852       25.394      861.392
08/08/2014  22:02:00     -396.191      -62.198      -19.943      155.550      130.400       75.182    24195.842    17004.148     5652.301       10.403        2.343      401.043       81.987        0.042      346.796       25.297      861.380
08/08/2014  22:03:00     -335.483      -77.331      -10.169      198.813      145.991       76.518    39526.785    21313.511     5854.996        9.265        3.335      344.281       92.817        0.073      346.802       25.308      861.374
08/08/2014  22:04:00     -342.572     -100.725      -13.932      105.636      110.349       62.347    11158.871    12176.949     3887.150        7.745        1.361      357.073       59.515        0.028      346.826       25.350      861.377
08/08/2014  22:05:00     -205.265      -80.669       -2.378      116.749      107.471       64.360    13630.401    11549.953     4142.272        3.898        1.466      220.548       63.465        0.083      346.779       25.269      861.385
08/08/2014  22:06:00     -265.222      -58.644       -9.543      109.296       79.255       51.480    11945.594     6281.393     2650.170        4.737        1.044      271.628       57.316        0.045      346.760       25.235      861.389
08/08/2014  22:07:00     -294.642     -113.348        0.262      180.572      111.451       70.414    32606.258    12421.405     4958.114        7.481        2.499      315.692       86.386        0.075      346.756       25.228      861.391
08/08/2014  22:08:00     -262.304      -48.624       -6.057      114.867       98.051       59.208    13194.535     9613.918     3505.613        4.875        1.316      266.773       53.631        0.040      346.731       25.187      861.397
08/08/2014  22:09:00     -322.965      -47.371      -26.087      157.668       99.923       64.088    24859.078     9984.588     4107.231        7.308        1.948      326.420       83.365        0.065      346.744       25.208      861.373
08/08/2014  22:10:00     -254.968      -72.796       -5.698      181.892      154.518       78.981    33084.566    23875.786     6238.063        6.676        3.160      265.157       98.557        0.138      346.709       25.148      861.319
08/08/2014  22:11:00     -332.907       -0.884      -10.419      227.170      100.296       91.140    51605.999    10059.303     8306.452        9.044        3.499      332.908      115.638        0.121      346.705       25.142      861.321
08/08/2014  22:12:00     -313.577      -27.772      -27.921      151.234       96.546       62.217    22871.602     9321.043     3870.955        6.797        1.803      314.804       72.325        0.053      346.775       25.262      861.342
08/08/2014  22:13:00     -208.135      -64.670        2.878      168.143      105.294       52.453    28271.938    11086.808     2751.282        4.480        2.106      217.951       67.451        0.096      346.702       25.139      861.319
08/08/2014  22:14:00     -348.636      -60.744      -28.204       90.264       72.241       50.631     8147.572     5218.804     2563.511        7.098        0.796      353.888       42.977        0.015      346.781       25.272      861.298
08/08/2014  22:15:00     -264.849      -82.835       -3.322      125.343       95.224       53.776    15710.883     9067.583     2891.813        5.234        1.384      277.501       51.651        0.035      346.726       25.176      861.291
08/08/2014  22:16:00     -246.289      -37.984       -6.401      102.307       64.952       45.535    10466.754     4218.742     2073.422        3.945        0.838      249.201       50.990        0.042      346.725       25.174      861.279
08/08/2014  22:17:00     -277.971      -89.971       -5.786      114.184       87.134       55.085    13037.945     7592.255     3034.329        5.453        1.183      292.169       55.100        0.036      346.674       25.087      861.274
08/08/2014  22:18:00     -248.707      -59.514      -18.013      161.555      105.110       67.645    26100.028    11048.057     4575.824        5.371        2.086      255.728       79.334        0.096      346.660       25.064      861.266
08/08/2014  22:19:00     -198.610      -33.360       -6.112      112.959       79.743       52.676    12759.803     6358.994     2774.721        3.124        1.095      201.392       57.590        0.082      346.632       25.015      861.255
08/08/2014  22:20:00     -266.959     -103.154      -21.141      125.941       71.056       53.046    15861.049     5048.932     2813.876        5.303        1.186      286.195       63.901        0.050      346.688       25.112      861.243
08/08/2014  22:21:00     -407.941     -100.886       -2.942      211.903      144.919       75.783    44903.085    21001.479     5743.138       12.411        3.582      420.231       86.608        0.042      346.721       25.169      861.235
08/08/2014  22:22:00     -203.521      -21.037      -26.604      100.057       79.619       46.415    10011.341     6339.184     2154.375        3.053        0.925      204.606       38.541        0.035      346.719       25.167      861.226
08/08/2014  22:23:00     -283.175      -75.657       -2.579      151.538      121.140       64.693    22963.821    14674.853     4185.126        6.386        2.091      293.107       64.830        0.049      346.706       25.142      861.236
08/08/2014  22:24:00     -376.291      -42.639      -25.342      134.914      129.722       66.088    18201.702    16827.846     4367.616        9.172        1.970      378.699       64.517        0.029      346.735       25.192      861.220
08/08/2014  22:25:00     -355.436      -44.039      -15.839      133.330      111.630       78.277    17776.950    12461.253     6127.302        8.244        1.818      358.154       75.029        0.044      346.738       25.198      861.214
08/08/2014  22:26:00     -244.020      -82.694       -9.169      106.424      123.472       55.765    11326.069    15245.249     3109.747        4.807        1.484      257.651       56.624        0.048      346.793       25.293      861.219
08/08/2014  22:27:00     -335.955      -17.897      -15.024      127.272      113.053       73.582    16198.222    12781.044     5414.299        7.390        1.720      336.431       70.134        0.043      346.769       25.252      861.242
08/08/2014  22:28:00     -207.664       -5.542        1.446      127.598      109.050       60.587    16281.278    11891.836     3670.781        3.749        1.592      207.738       62.295        0.090      346.694       25.122      861.237
08/08/2014  22:29:00     -146.103      -50.820       12.471      123.291       93.372       61.789    15200.634     8718.362     3817.894        2.590        1.387      154.689       62.990        0.166      346.636       25.024      861.250
08/08/2014  22:30:00     -330.257      -37.768      -10.518      124.839       88.893       62.267    15584.874     7901.993     3877.185        6.898        1.368      332.409       66.070        0.040      346.695       25.124      861.270
08/08/2014  22:31:00     -308.644      -65.383       -3.152      143.448      131.929       69.458    20577.289    17405.211     4824.431        7.117        2.140      315.493       73.725        0.055      346.683       25.102      861.292
08/08/2014  22:32:00     -287.204      -82.882       -5.256      143.708       83.171       63.398    20652.014     6917.477     4019.333        6.048        1.579      298.924       67.717        0.051      346.723       25.171      861.291
08/08/2014  22:33:00     -224.079       35.468      -11.077      105.340       96.472       42.519    11096.453     9306.804     1807.904        3.690        1.111      226.869       38.038        0.028      346.707       25.147      861.309
08/08/2014  22:34:00     -387.400       -7.056      -32.033      110.569       83.645       57.562    12225.606     6996.539     3313.369        8.684        1.127      387.464       52.317        0.018      346.690       25.115      861.326
08/08/2014  22:35:00     -206.548      -76.490       -8.338      118.344      109.406       53.345    14005.285    11969.576     2845.661        3.870        1.441      220.256       53.548        0.059      346.653       25.052      861.340
08/08/2014  22:36:00     -178.577      -75.288        2.910      127.435       67.920       44.537    16239.565     4613.180     1983.541        3.020        1.142      193.799       40.929        0.045      346.625       25.003      861.359
08/08/2014  22:37:00      -59.437      -45.127       15.635       71.801       71.279       48.339     5155.443     5080.688     2336.663        0.919        0.629       74.627       46.227        0.384      346.593       24.952      861.358
08/08/2014  22:38:00     -115.480        1.178        9.315      100.886       63.430       41.900    10178.015     4023.322     1755.632        1.469        0.798      115.486       44.493        0.148      346.618       24.993      861.374
08/08/2014  22:39:00     -135.054      -41.514        3.458       94.686       75.121       38.446     8965.522     5643.216     1478.061        1.803        0.804      141.290       40.403        0.082      346.545       24.868      861.371
08/08/2014  22:40:00     -372.753      -20.791      -32.500       88.283      116.878       52.513     7793.884    13660.559     2757.588        8.232        1.211      373.332       35.321        0.009      346.728       25.181      861.359
08/08/2014  22:41:00     -215.123      -76.205       -2.048      110.837       72.121       52.206    12284.925     5201.444     2725.470        3.615        1.011      228.222       57.243        0.063      346.581       24.928      861.355
08/08/2014  22:42:00     -225.175       10.231      -12.039      128.447       75.504       49.135    16498.542     5700.859     2414.207        3.778        1.231      225.407       57.716        0.066      346.623       25.000      861.359
08/08/2014  22:43:00     -104.655        7.323        3.494       86.282       72.909       45.139     7444.529     5315.686     2037.491        1.291        0.740      104.911       47.343        0.204      346.564       24.901      861.348
08/08/2014  22:44:00     -177.330       -3.176       -4.390      117.752       68.187       36.992    13865.484     4649.532     1368.398        2.568        0.994      177.359       50.429        0.081      346.584       24.935      861.371
08/08/2014  22:45:00     -211.717       22.209      -22.209      150.555       93.330       51.058    22666.878     8710.483     2606.928        3.989        1.699      212.879       59.850        0.079      346.590       24.945      861.391
08/08/2014  22:46:00     -162.886       32.302      -14.553       93.319       60.304       41.460     8708.429     3636.613     1718.952        2.092        0.703      166.058       42.429        0.065      346.597       24.957      861.387
08/08/2014  22:47:00     -123.185      -10.900      -11.303       66.790       43.786       30.813     4460.948     1917.171      949.435        1.137        0.366      123.666       23.028        0.035      346.622       25.004      861.401
08/08/2014  22:48:00     -116.132      -30.834       -0.818       60.339       56.981       40.358     3640.746     3246.886     1628.737        1.148        0.426      120.156       39.501        0.108      346.579       24.929      861.415
08/08/2014  22:49:00      -47.133      -17.002        3.896       44.088       32.606       18.417     1943.765     1063.134      339.196        0.294        0.167       50.106       16.958        0.115      346.427       24.666      861.424
08/08/2014  22:50:00      -33.673       -4.397       -3.668       46.560       42.377       24.867     2167.871     1795.778      618.364        0.287        0.229       33.959       22.073        0.422      346.439       24.687      861.451
08/08/2014  22:51:00      -20.456       -1.171       10.537       42.872       50.901       39.096     1838.035     2590.916     1528.474        0.324        0.298       20.489       23.768        1.346      346.583       24.935      861.458
08/08/2014  22:52:00       -0.303       42.712        9.381       38.234       35.709       33.469     1461.868     1275.162     1120.204        0.288        0.193       42.713       29.543        0.478      346.544       24.869      861.464
08/08/2014  22:53:00       26.008       20.280       -1.081       38.517       30.963       18.780     1483.585      958.724      352.679        0.194        0.140       32.980       12.132        0.135      346.391       24.607      861.462
08/08/2014  22:54:00       10.578       20.983       34.449       30.618       26.736       28.728      937.450      714.818      825.301        0.211        0.124       23.498       20.223        0.741      346.290       24.431      861.481
08/08/2014  22:55:00       80.257       18.383       11.197       64.824       40.701       31.096     4202.190     1656.543      966.969        0.686        0.341       82.336       34.980        0.180      346.357       24.546      861.511
08/08/2014  22:56:00       46.842       99.337      -23.961       32.443       36.856       17.585     1052.563     1358.392      309.218        0.768        0.136      109.827       18.650        0.029      346.375       24.577      861.538
08/08/2014  22:57:00      119.881       73.571       24.237       27.520       21.490       24.292      757.327      461.827      590.092        1.109        0.090      140.656       16.886        0.014      346.262       24.383      861.520
08/08/2014  22:58:00      138.522       46.923       -0.572       65.071       42.030       37.329     4234.262     1766.510     1393.443        1.439        0.370      146.254       24.701        0.029      346.079       24.066      861.492
08/08/2014  22:59:00       53.576      -17.064        8.179       54.756       49.085       28.198     2998.171     2409.356      795.128        0.471        0.310       56.228       15.645        0.077      345.995       23.925      861.499
08/08/2014  23:00:00       11.354      -63.172       13.787       30.102       26.651       30.079      906.137      710.274      904.744        0.341        0.126       64.185        7.078        0.012      346.157       24.203      861.514
08/08/2014  23:01:00        7.747        2.612       12.555       24.310       41.716       16.566      590.978     1740.217      274.446        0.141        0.130        8.175       17.957        4.824      346.150       24.192      861.527
08/08/2014  23:02:00       36.258       16.174       -1.813       18.862       14.580       13.876      355.763      212.577      192.544        0.117        0.038       39.702       13.101        0.109      346.138       24.168      861.540
08/08/2014  23:03:00       32.575       11.571       10.214       26.965       14.902       12.118      727.113      222.084      146.850        0.120        0.055       34.569       10.031        0.084      346.010       23.950      861.558
08/08/2014  23:04:00       50.247       12.518       13.720       24.597       14.712       16.683      605.021      216.457      278.325        0.198        0.055       51.782        9.580        0.034      346.041       24.004      861.563
08/08/2014  23:05:00       25.311       25.605       41.075       29.688       27.597       27.607      881.378      761.611      762.172        0.269        0.120       36.003       29.193        0.657      346.002       23.937      861.559
08/08/2014  23:06:00       59.006       55.405       35.563       48.291       28.566       34.666     2331.994      815.996     1201.731        0.608        0.217       80.941       33.660        0.173      346.170       24.225      861.558
08/08/2014  23:07:00      110.741       53.921       44.860       51.798       41.540       35.009     2683.024     1725.536     1225.653        1.141        0.282      123.171       24.570        0.040      346.208       24.290      861.561
08/08/2014  23:08:00      107.740       32.650       24.290       57.834       37.000       37.723     3344.751     1368.976     1423.044        0.970        0.307      112.578       25.924        0.053      346.271       24.397      861.569
08/08/2014  23:09:00       90.187       32.790       19.280       30.878       28.945       25.923      953.420      837.801      671.981        0.602        0.123       95.963       14.611        0.023      346.226       24.321      861.570
08/08/2014  23:10:00       73.445       31.159       18.055       25.559       19.774       19.995      653.244      391.026      399.791        0.407        0.072       79.781        7.264        0.008      346.202       24.280      861.567
08/08/2014  23:11:00      -15.246      -16.600        1.389       29.248       19.186       15.882      855.429      368.107      252.234        0.099        0.074       22.539       12.617        0.313      346.230       24.327      861.595
08/08/2014  23:12:00      -62.596      -21.745       -5.065       10.724       14.085        5.909      115.000      198.390       34.913        0.238        0.017       66.266        3.293        0.002      345.971       23.882      861.616
08/08/2014  23:13:00      -18.705      -10.732       -6.197       15.973       10.674       11.019      255.145      113.944      121.426        0.050        0.025       21.565        5.805        0.072      345.994       23.922      861.621
08/08/2014  23:14:00       25.405        9.074       16.857       32.890       19.454       11.172     1081.753      378.447      124.822        0.130        0.079       26.977       14.972        0.308      346.004       23.940      861.616
08/08/2014  23:15:00       39.167       20.644       28.508       34.494       23.769       22.759     1189.865      564.943      517.994        0.252        0.114       44.275       16.553        0.140      345.994       23.922      861.593
08/08/2014  23:16:00       20.538       12.679       12.239       22.106       19.631       13.607      488.679      385.370      185.147        0.090        0.053       24.136        3.436        0.020      345.998       23.930      861.577
08/08/2014  23:17:00       16.151       35.260       -3.316       17.295       25.809       10.420      299.109      666.106      108.587        0.129        0.054       38.783       10.083        0.068      345.877       23.722      861.560
08/08/2014  23:18:00        2.372       30.696       -7.720       12.478       17.595        7.059      155.694      309.575       49.826        0.076        0.026       30.787        7.742        0.063      346.066       24.046      861.563
08/08/2014  23:19:00       -9.634       13.877       -9.834       16.234       14.430       12.491      263.542      208.225      156.016        0.050        0.031       16.894       11.657        0.476      346.047       24.013      861.566
08/08/2014  23:20:00      -15.372      -19.086       -0.676       12.138       10.191        4.670      147.332      103.856       21.808        0.044        0.014       24.507        3.741        0.023      346.050       24.019      861.568
08/08/2014  23:21:00       13.640      -38.844       -5.318       12.012       14.617        7.367      144.288      213.662       54.266        0.107        0.021       41.169        6.176        0.023      346.095       24.096      861.572
08/08/2014  23:22:00        3.490      -50.635       -4.128       12.927        7.971        8.472      167.113       63.535       71.769        0.145        0.015       50.755        6.993        0.019      346.206       24.283      861.571
08/08/2014  23:23:00        8.324      -34.841        0.528        8.459       13.819        9.519       71.549      190.959       90.614        0.082        0.018       35.822        6.135        0.029      346.105       24.111      861.594
08/08/2014  23:24:00       13.634      -19.428       -1.753       11.851        8.334        8.046      140.436       69.450       64.733        0.042        0.014       23.735        7.489        0.100      345.964       23.869      861.599
08/08/2014  23:25:00      -13.844        0.816        5.724       10.272       14.680        7.443      105.511      215.501       55.391        0.030        0.019       13.868        7.150        0.266      345.976       23.891      861.612
08/08/2014  23:26:00      -21.651        4.076       -3.648       10.553        5.826        6.794      111.376       33.946       46.162        0.035        0.010       22.031        4.740        0.046      346.087       24.082      861.638
08/08/2014  23:27:00      -35.938       16.244       -7.933        7.782        5.810        5.564       60.558       33.756       30.955        0.087        0.006       39.439        2.396        0.004      346.049       24.017      861.660
08/08/2014  23:28:00       -7.691       23.319        0.184       13.969        7.217        6.105      195.141       52.092       37.271        0.044        0.014       24.554        3.540        0.021      346.143       24.179      861.663
08/08/2014  23:29:00       44.305       21.536        5.210       13.178       16.935       12.435      173.660      286.806      154.632        0.153        0.031       49.261        3.975        0.007      346.056       24.029      861.655
08/08/2014  23:30:00       12.525       -1.231        9.918       15.062       10.354       10.697      226.857      107.210      114.418        0.035        0.022       12.585        8.812        0.490      345.722       23.456      861.665
08/08/2014  23:31:00        9.060      -15.571        4.477        8.708       11.020       10.927       75.835      121.447      119.394        0.033        0.016       18.015        9.262        0.264      345.680       23.382      861.679
08/08/2014  23:32:00       15.859      -35.266        2.642        8.990       12.253        8.008       80.824      150.125       64.120        0.090        0.015       38.668        6.122        0.025      345.977       23.893      861.687
08/08/2014  23:33:00       22.518       12.200       15.406       15.068       27.733        9.430      227.037      769.093       88.928        0.099        0.054       25.610       13.303        0.270      345.793       23.577      861.674
08/08/2014  23:34:00       20.774       10.730       -4.334       11.334       14.721       11.403      128.458      216.701      130.019        0.052        0.024       23.381       12.045        0.265      345.767       23.534      861.675
08/08/2014  23:35:00      -14.585      -23.036       -0.068        9.902       13.008        5.752       98.059      169.219       33.081        0.052        0.015       27.265        5.178        0.036      346.154       24.196      861.687
08/08/2014  23:36:00       30.573        3.982        6.079       14.995       13.654        9.520      224.856      186.434       90.624        0.074        0.025       30.831        5.032        0.027      346.210       24.294      861.698
08/08/2014  23:37:00       52.359       21.822        3.021       14.353       14.736       10.022      206.000      217.142      100.450        0.188        0.026       56.725        6.757        0.014      346.244       24.352      861.699
08/08/2014  23:38:00       17.972      -15.347        0.268       13.615       10.136       10.940      185.371      102.731      119.676        0.048        0.020       23.633        9.285        0.154      345.963       23.869      861.702
08/08/2014  23:39:00       -1.724       -3.145       -6.774       14.513        7.247        3.526      210.631       52.521       12.434        0.017        0.014        3.587        2.801        0.610      345.784       23.561      861.696
08/08/2014  23:40:00      -34.804       -8.952       -4.006        8.036        6.598        5.159       64.577       43.531       26.617        0.072        0.007       35.937        2.654        0.005      345.748       23.501      861.709
08/08/2014  23:41:00      -20.474       11.779       -1.252        4.304       11.386        2.813       18.528      129.638        7.911        0.036        0.008       23.621        1.798        0.006      345.742       23.491      861.711
08/08/2014  23:42:00       -7.646       19.042       -2.833        8.505       15.553        4.168       72.341      241.897       17.371        0.038        0.017       20.520        2.466        0.014      345.994       23.921      861.718
08/08/2014  23:43:00      -10.714      -27.784       -8.928        8.796       15.445        7.418       77.377      238.536       55.022        0.067        0.019       29.778        5.531        0.034      346.018       23.963      861.714
08/08/2014  23:44:00      -22.363      -39.123       -5.399        7.297       13.350        7.128       53.240      178.217       50.801        0.117        0.014       45.063        4.582        0.010      346.119       24.134      861.708
08/08/2014  23:45:00        5.966      -10.825        3.625       10.668       11.119        8.568      113.810      123.625       73.408        0.024        0.016       12.360        3.360        0.074      345.909       23.778      861.723
08/08/2014  23:46:00        4.359        3.492        7.210       15.071        8.071        6.774      227.132       65.135       45.890        0.021        0.017        5.585        7.022        1.581      345.721       23.453      861.721
08/08/2014  23:47:00      -17.201       -0.729       -1.159        7.730        5.671        3.519       59.756       32.164       12.387        0.020        0.005       17.217        4.359        0.064      345.889       23.742      861.729
08/08/2014  23:48:00       34.984       31.695        7.478       19.321       16.563        7.651      373.311      274.343       58.538        0.150        0.035       47.207        3.118        0.004      346.078       24.067      861.715
08/08/2014  23:49:00       58.771       58.348       -3.982       11.566        9.845       10.702      133.781       96.916      114.523        0.361        0.017       82.816        6.073        0.005      346.086       24.083      861.684
08/08/2014  23:50:00       48.935       74.110       -2.839       32.854       41.355       29.093     1079.385     1710.266      846.389        0.576        0.182       88.808       28.184        0.101      345.717       23.448      861.684
08/08/2014  23:51:00      119.658       42.078       11.375       35.524       36.354       30.439     1261.920     1321.643      926.523        0.986        0.176      126.840       20.052        0.025      345.688       23.398      861.677
08/08/2014  23:52:00       10.721      -41.342        5.827       37.592       41.586       20.198     1413.183     1729.418      407.942        0.270        0.178       42.709       19.120        0.200      345.610       23.262      861.681
08/08/2014  23:53:00       16.064      -54.805      -10.198       27.503       36.582       19.773      756.415     1338.235      390.960        0.293        0.124       57.111       22.293        0.152      345.506       23.086      861.699
08/08/2014  23:54:00       -2.752      -20.273        3.783       25.429       21.718       18.292      646.652      471.655      334.599        0.094        0.073       20.459       16.708        0.667      345.490       23.057      861.716
08/08/2014  23:55:00       24.140      -54.500        7.361       29.792       37.832       25.608      887.575     1431.259      655.768        0.329        0.149       59.607       20.165        0.114      345.709       23.435      861.730
08/08/2014  23:56:00      -27.810      -37.543       -7.152       16.413       26.227       10.363      269.396      687.854      107.390        0.165        0.053       46.721       10.337        0.049      345.658       23.344      861.739
08/08/2014  23:57:00        7.529      -17.931        2.176       25.570       14.066       11.444      653.824      197.840      130.960        0.068        0.049       19.447        6.589        0.115      345.659       23.347      861.725
08/08/2014  23:58:00       -4.889       -8.671        9.457       20.276       15.308       12.058      411.132      234.320      145.403        0.049        0.040        9.954       10.879        1.195      345.571       23.195      861.718
08/08/2014  23:59:00      -17.530      -16.039        4.000       12.562       19.603        9.375      157.794      384.295       87.881        0.061        0.031       23.760       10.732        0.204      345.637       23.310      861.730
